<?xml version="1.0" encoding="UTF-8" standalone="no" ?>
<gpx xmlns="http://www.topografix.com/GPX/1/1" xmlns:xsi="http://www.w3.org/2001/XMLSchema-instance" xsi:schemaLocation="http://www.topografix.com/GPX/1/1 http://www.topografix.com/GPX/1/1/gpx.xsd" version="1.1" creator="VisuGPX - https://www.visugpx.com">
  <metadata>
    <name>Grenoble Trail 2021-08-08</name>
  </metadata>
  <trk>
    <name><![CDATA[ACTIVE LOG051101]]></name>
    <trkseg>
      <trkpt lat="45.19655" lon="5.73939">
        <ele>194.826</ele>
        <time>2021-08-08T03:11:01Z</time>
      </trkpt>
      <trkpt lat="45.19656" lon="5.73931">
        <ele>198.467</ele>
        <time>2021-08-08T03:11:09Z</time>
      </trkpt>
      <trkpt lat="45.19656" lon="5.73925">
        <ele>202.009</ele>
        <time>2021-08-08T03:11:13Z</time>
      </trkpt>
      <trkpt lat="45.19656" lon="5.73923">
        <ele>205.855</ele>
        <time>2021-08-08T03:11:18Z</time>
      </trkpt>
      <trkpt lat="45.19656" lon="5.73925">
        <ele>207.546</ele>
        <time>2021-08-08T03:11:21Z</time>
      </trkpt>
      <trkpt lat="45.19656" lon="5.73932">
        <ele>211.124</ele>
        <time>2021-08-08T03:11:28Z</time>
      </trkpt>
      <trkpt lat="45.19656" lon="5.73944">
        <ele>214.368</ele>
        <time>2021-08-08T03:11:36Z</time>
      </trkpt>
      <trkpt lat="45.19656" lon="5.73948">
        <ele>216.853</ele>
        <time>2021-08-08T03:11:42Z</time>
      </trkpt>
      <trkpt lat="45.19655" lon="5.7395">
        <ele>220.039</ele>
        <time>2021-08-08T03:11:52Z</time>
      </trkpt>
      <trkpt lat="45.19655" lon="5.7395">
        <ele>220.939</ele>
        <time>2021-08-08T03:11:54Z</time>
      </trkpt>
      <trkpt lat="45.19655" lon="5.73954">
        <ele>224.403</ele>
        <time>2021-08-08T03:12:20Z</time>
      </trkpt>
      <trkpt lat="45.19658" lon="5.73958">
        <ele>223.96</ele>
        <time>2021-08-08T03:13:58Z</time>
      </trkpt>
      <trkpt lat="45.19657" lon="5.73971">
        <ele>223.853</ele>
        <time>2021-08-08T03:14:17Z</time>
      </trkpt>
      <trkpt lat="45.19658" lon="5.73973">
        <ele>223.798</ele>
        <time>2021-08-08T03:14:22Z</time>
      </trkpt>
      <trkpt lat="45.19655" lon="5.73975">
        <ele>222.923</ele>
        <time>2021-08-08T03:14:24Z</time>
      </trkpt>
      <trkpt lat="45.19647" lon="5.73977">
        <ele>223.574</ele>
        <time>2021-08-08T03:14:32Z</time>
      </trkpt>
      <trkpt lat="45.19645" lon="5.73976">
        <ele>223.504</ele>
        <time>2021-08-08T03:14:34Z</time>
      </trkpt>
      <trkpt lat="45.1964" lon="5.73976">
        <ele>223.648</ele>
        <time>2021-08-08T03:14:42Z</time>
      </trkpt>
      <trkpt lat="45.19639" lon="5.73975">
        <ele>223.817</ele>
        <time>2021-08-08T03:14:48Z</time>
      </trkpt>
      <trkpt lat="45.19635" lon="5.73974">
        <ele>220.911</ele>
        <time>2021-08-08T03:14:54Z</time>
      </trkpt>
      <trkpt lat="45.19633" lon="5.73962">
        <ele>221.042</ele>
        <time>2021-08-08T03:14:59Z</time>
      </trkpt>
      <trkpt lat="45.19631" lon="5.73965">
        <ele>217.501</ele>
        <time>2021-08-08T03:15:04Z</time>
      </trkpt>
      <trkpt lat="45.1963" lon="5.73966">
        <ele>217.286</ele>
        <time>2021-08-08T03:15:05Z</time>
      </trkpt>
      <trkpt lat="45.19632" lon="5.73971">
        <ele>216.647</ele>
        <time>2021-08-08T03:15:12Z</time>
      </trkpt>
      <trkpt lat="45.1963" lon="5.73972">
        <ele>214.805</ele>
        <time>2021-08-08T03:15:23Z</time>
      </trkpt>
      <trkpt lat="45.19631" lon="5.73975">
        <ele>214.975</ele>
        <time>2021-08-08T03:15:31Z</time>
      </trkpt>
      <trkpt lat="45.19638" lon="5.73975">
        <ele>215.437</ele>
        <time>2021-08-08T03:15:37Z</time>
      </trkpt>
      <trkpt lat="45.19647" lon="5.7396">
        <ele>215.197</ele>
        <time>2021-08-08T03:15:44Z</time>
      </trkpt>
      <trkpt lat="45.19651" lon="5.73957">
        <ele>215.067</ele>
        <time>2021-08-08T03:15:49Z</time>
      </trkpt>
      <trkpt lat="45.19662" lon="5.73968">
        <ele>215.447</ele>
        <time>2021-08-08T03:15:57Z</time>
      </trkpt>
      <trkpt lat="45.19672" lon="5.73987">
        <ele>215.304</ele>
        <time>2021-08-08T03:16:05Z</time>
      </trkpt>
      <trkpt lat="45.1968" lon="5.73997">
        <ele>215.375</ele>
        <time>2021-08-08T03:16:10Z</time>
      </trkpt>
      <trkpt lat="45.19684" lon="5.74002">
        <ele>214.903</ele>
        <time>2021-08-08T03:16:12Z</time>
      </trkpt>
      <trkpt lat="45.1969" lon="5.74025">
        <ele>215.475</ele>
        <time>2021-08-08T03:16:20Z</time>
      </trkpt>
      <trkpt lat="45.19689" lon="5.74028">
        <ele>215.475</ele>
        <time>2021-08-08T03:16:21Z</time>
      </trkpt>
      <trkpt lat="45.19692" lon="5.74044">
        <ele>215.398</ele>
        <time>2021-08-08T03:16:27Z</time>
      </trkpt>
      <trkpt lat="45.19695" lon="5.74062">
        <ele>215.235</ele>
        <time>2021-08-08T03:16:33Z</time>
      </trkpt>
      <trkpt lat="45.19696" lon="5.74065">
        <ele>215.596</ele>
        <time>2021-08-08T03:16:34Z</time>
      </trkpt>
      <trkpt lat="45.19707" lon="5.7409">
        <ele>215.049</ele>
        <time>2021-08-08T03:16:43Z</time>
      </trkpt>
      <trkpt lat="45.19714" lon="5.74104">
        <ele>215.241</ele>
        <time>2021-08-08T03:16:48Z</time>
      </trkpt>
      <trkpt lat="45.19722" lon="5.74116">
        <ele>215.017</ele>
        <time>2021-08-08T03:16:53Z</time>
      </trkpt>
      <trkpt lat="45.19722" lon="5.74123">
        <ele>215.134</ele>
        <time>2021-08-08T03:16:55Z</time>
      </trkpt>
      <trkpt lat="45.19726" lon="5.74127">
        <ele>214.942</ele>
        <time>2021-08-08T03:16:57Z</time>
      </trkpt>
      <trkpt lat="45.19728" lon="5.7415">
        <ele>214.518</ele>
        <time>2021-08-08T03:17:04Z</time>
      </trkpt>
      <trkpt lat="45.19731" lon="5.74172">
        <ele>215.091</ele>
        <time>2021-08-08T03:17:11Z</time>
      </trkpt>
      <trkpt lat="45.19736" lon="5.74179">
        <ele>215.101</ele>
        <time>2021-08-08T03:17:14Z</time>
      </trkpt>
      <trkpt lat="45.19737" lon="5.74198">
        <ele>214.409</ele>
        <time>2021-08-08T03:17:20Z</time>
      </trkpt>
      <trkpt lat="45.1974" lon="5.74212">
        <ele>215.146</ele>
        <time>2021-08-08T03:17:24Z</time>
      </trkpt>
      <trkpt lat="45.1974" lon="5.74221">
        <ele>215.534</ele>
        <time>2021-08-08T03:17:26Z</time>
      </trkpt>
      <trkpt lat="45.19724" lon="5.74234">
        <ele>215.902</ele>
        <time>2021-08-08T03:17:31Z</time>
      </trkpt>
      <trkpt lat="45.19711" lon="5.74237">
        <ele>215.172</ele>
        <time>2021-08-08T03:17:36Z</time>
      </trkpt>
      <trkpt lat="45.19687" lon="5.74241">
        <ele>215.429</ele>
        <time>2021-08-08T03:17:45Z</time>
      </trkpt>
      <trkpt lat="45.19674" lon="5.74243">
        <ele>215.722</ele>
        <time>2021-08-08T03:17:50Z</time>
      </trkpt>
      <trkpt lat="45.19665" lon="5.74241">
        <ele>215.736</ele>
        <time>2021-08-08T03:17:54Z</time>
      </trkpt>
      <trkpt lat="45.1964" lon="5.74239">
        <ele>215.498</ele>
        <time>2021-08-08T03:18:03Z</time>
      </trkpt>
      <trkpt lat="45.19625" lon="5.74237">
        <ele>215.436</ele>
        <time>2021-08-08T03:18:09Z</time>
      </trkpt>
      <trkpt lat="45.1962" lon="5.74238">
        <ele>215.576</ele>
        <time>2021-08-08T03:18:11Z</time>
      </trkpt>
      <trkpt lat="45.19608" lon="5.74237">
        <ele>215.433</ele>
        <time>2021-08-08T03:18:16Z</time>
      </trkpt>
      <trkpt lat="45.19593" lon="5.74235">
        <ele>215.837</ele>
        <time>2021-08-08T03:18:22Z</time>
      </trkpt>
      <trkpt lat="45.19577" lon="5.74231">
        <ele>215.481</ele>
        <time>2021-08-08T03:18:29Z</time>
      </trkpt>
      <trkpt lat="45.19568" lon="5.74229">
        <ele>215.409</ele>
        <time>2021-08-08T03:18:33Z</time>
      </trkpt>
      <trkpt lat="45.1956" lon="5.74229">
        <ele>215.844</ele>
        <time>2021-08-08T03:18:36Z</time>
      </trkpt>
      <trkpt lat="45.19548" lon="5.74221">
        <ele>215.602</ele>
        <time>2021-08-08T03:18:42Z</time>
      </trkpt>
      <trkpt lat="45.19532" lon="5.74215">
        <ele>215.992</ele>
        <time>2021-08-08T03:18:49Z</time>
      </trkpt>
      <trkpt lat="45.19517" lon="5.74209">
        <ele>216.292</ele>
        <time>2021-08-08T03:18:56Z</time>
      </trkpt>
      <trkpt lat="45.1951" lon="5.74208">
        <ele>216.861</ele>
        <time>2021-08-08T03:19:00Z</time>
      </trkpt>
      <trkpt lat="45.19518" lon="5.74221">
        <ele>215.795</ele>
        <time>2021-08-08T03:19:10Z</time>
      </trkpt>
      <trkpt lat="45.1953" lon="5.74228">
        <ele>214.046</ele>
        <time>2021-08-08T03:19:18Z</time>
      </trkpt>
      <trkpt lat="45.19546" lon="5.74229">
        <ele>214.028</ele>
        <time>2021-08-08T03:19:24Z</time>
      </trkpt>
      <trkpt lat="45.19558" lon="5.74232">
        <ele>214.606</ele>
        <time>2021-08-08T03:19:30Z</time>
      </trkpt>
      <trkpt lat="45.1957" lon="5.74234">
        <ele>214.669</ele>
        <time>2021-08-08T03:19:36Z</time>
      </trkpt>
      <trkpt lat="45.19575" lon="5.74236">
        <ele>214.254</ele>
        <time>2021-08-08T03:19:39Z</time>
      </trkpt>
      <trkpt lat="45.1959" lon="5.74238">
        <ele>214.773</ele>
        <time>2021-08-08T03:19:46Z</time>
      </trkpt>
      <trkpt lat="45.19602" lon="5.74242">
        <ele>213.605</ele>
        <time>2021-08-08T03:19:51Z</time>
      </trkpt>
      <trkpt lat="45.19618" lon="5.74245">
        <ele>213.285</ele>
        <time>2021-08-08T03:19:58Z</time>
      </trkpt>
      <trkpt lat="45.19628" lon="5.74245">
        <ele>213.649</ele>
        <time>2021-08-08T03:20:02Z</time>
      </trkpt>
      <trkpt lat="45.19641" lon="5.74248">
        <ele>213.559</ele>
        <time>2021-08-08T03:20:08Z</time>
      </trkpt>
      <trkpt lat="45.19657" lon="5.74251">
        <ele>213.344</ele>
        <time>2021-08-08T03:20:15Z</time>
      </trkpt>
      <trkpt lat="45.19673" lon="5.74252">
        <ele>213.441</ele>
        <time>2021-08-08T03:20:21Z</time>
      </trkpt>
      <trkpt lat="45.19684" lon="5.74254">
        <ele>213.202</ele>
        <time>2021-08-08T03:20:26Z</time>
      </trkpt>
      <trkpt lat="45.19699" lon="5.74252">
        <ele>212.975</ele>
        <time>2021-08-08T03:20:31Z</time>
      </trkpt>
      <trkpt lat="45.19711" lon="5.74254">
        <ele>213.046</ele>
        <time>2021-08-08T03:20:36Z</time>
      </trkpt>
      <trkpt lat="45.19715" lon="5.74256">
        <ele>213.358</ele>
        <time>2021-08-08T03:20:38Z</time>
      </trkpt>
      <trkpt lat="45.19733" lon="5.74251">
        <ele>213.37</ele>
        <time>2021-08-08T03:20:45Z</time>
      </trkpt>
      <trkpt lat="45.19745" lon="5.74245">
        <ele>213.229</ele>
        <time>2021-08-08T03:20:50Z</time>
      </trkpt>
      <trkpt lat="45.19749" lon="5.74246">
        <ele>213.324</ele>
        <time>2021-08-08T03:20:52Z</time>
      </trkpt>
      <trkpt lat="45.1976" lon="5.74244">
        <ele>213.364</ele>
        <time>2021-08-08T03:20:58Z</time>
      </trkpt>
      <trkpt lat="45.19778" lon="5.74241">
        <ele>213.458</ele>
        <time>2021-08-08T03:21:05Z</time>
      </trkpt>
      <trkpt lat="45.19794" lon="5.74239">
        <ele>213.782</ele>
        <time>2021-08-08T03:21:12Z</time>
      </trkpt>
      <trkpt lat="45.19808" lon="5.74236">
        <ele>213.117</ele>
        <time>2021-08-08T03:21:19Z</time>
      </trkpt>
      <trkpt lat="45.19824" lon="5.7423">
        <ele>213.077</ele>
        <time>2021-08-08T03:21:26Z</time>
      </trkpt>
      <trkpt lat="45.1984" lon="5.74228">
        <ele>213.384</ele>
        <time>2021-08-08T03:21:34Z</time>
      </trkpt>
      <trkpt lat="45.19847" lon="5.74227">
        <ele>212.776</ele>
        <time>2021-08-08T03:21:38Z</time>
      </trkpt>
      <trkpt lat="45.19856" lon="5.74225">
        <ele>213.176</ele>
        <time>2021-08-08T03:21:44Z</time>
      </trkpt>
      <trkpt lat="45.1987" lon="5.74218">
        <ele>213.646</ele>
        <time>2021-08-08T03:21:51Z</time>
      </trkpt>
      <trkpt lat="45.19881" lon="5.74213">
        <ele>213.516</ele>
        <time>2021-08-08T03:21:57Z</time>
      </trkpt>
      <trkpt lat="45.19892" lon="5.74205">
        <ele>212.877</ele>
        <time>2021-08-08T03:22:03Z</time>
      </trkpt>
      <trkpt lat="45.19907" lon="5.74197">
        <ele>213.218</ele>
        <time>2021-08-08T03:22:11Z</time>
      </trkpt>
      <trkpt lat="45.19924" lon="5.74185">
        <ele>213.232</ele>
        <time>2021-08-08T03:22:20Z</time>
      </trkpt>
      <trkpt lat="45.19936" lon="5.74176">
        <ele>213.347</ele>
        <time>2021-08-08T03:22:27Z</time>
      </trkpt>
      <trkpt lat="45.19938" lon="5.74175">
        <ele>213.346</ele>
        <time>2021-08-08T03:22:28Z</time>
      </trkpt>
      <trkpt lat="45.1995" lon="5.74165">
        <ele>213.427</ele>
        <time>2021-08-08T03:22:34Z</time>
      </trkpt>
      <trkpt lat="45.19955" lon="5.74161">
        <ele>213.271</ele>
        <time>2021-08-08T03:22:37Z</time>
      </trkpt>
      <trkpt lat="45.19958" lon="5.74159">
        <ele>212.896</ele>
        <time>2021-08-08T03:22:40Z</time>
      </trkpt>
      <trkpt lat="45.19967" lon="5.74151">
        <ele>212.458</ele>
        <time>2021-08-08T03:22:45Z</time>
      </trkpt>
      <trkpt lat="45.19975" lon="5.74143">
        <ele>212.783</ele>
        <time>2021-08-08T03:22:49Z</time>
      </trkpt>
      <trkpt lat="45.19985" lon="5.74137">
        <ele>213.052</ele>
        <time>2021-08-08T03:22:54Z</time>
      </trkpt>
      <trkpt lat="45.19992" lon="5.7413">
        <ele>212.865</ele>
        <time>2021-08-08T03:22:59Z</time>
      </trkpt>
      <trkpt lat="45.19998" lon="5.74115">
        <ele>212.99</ele>
        <time>2021-08-08T03:23:04Z</time>
      </trkpt>
      <trkpt lat="45.20003" lon="5.74108">
        <ele>212.759</ele>
        <time>2021-08-08T03:23:08Z</time>
      </trkpt>
      <trkpt lat="45.20007" lon="5.74099">
        <ele>212.854</ele>
        <time>2021-08-08T03:23:14Z</time>
      </trkpt>
      <trkpt lat="45.20014" lon="5.74087">
        <ele>212.711</ele>
        <time>2021-08-08T03:23:19Z</time>
      </trkpt>
      <trkpt lat="45.20021" lon="5.7406">
        <ele>212.549</ele>
        <time>2021-08-08T03:23:22Z</time>
      </trkpt>
      <trkpt lat="45.20033" lon="5.74044">
        <ele>213.587</ele>
        <time>2021-08-08T03:23:27Z</time>
      </trkpt>
      <trkpt lat="45.20048" lon="5.74026">
        <ele>214.441</ele>
        <time>2021-08-08T03:23:32Z</time>
      </trkpt>
      <trkpt lat="45.20051" lon="5.74022">
        <ele>215.622</ele>
        <time>2021-08-08T03:23:35Z</time>
      </trkpt>
      <trkpt lat="45.20051" lon="5.74023">
        <ele>215.779</ele>
        <time>2021-08-08T03:23:37Z</time>
      </trkpt>
      <trkpt lat="45.20058" lon="5.74005">
        <ele>214.981</ele>
        <time>2021-08-08T03:23:45Z</time>
      </trkpt>
      <trkpt lat="45.20064" lon="5.73997">
        <ele>214.978</ele>
        <time>2021-08-08T03:23:48Z</time>
      </trkpt>
      <trkpt lat="45.20078" lon="5.73991">
        <ele>214.835</ele>
        <time>2021-08-08T03:23:55Z</time>
      </trkpt>
      <trkpt lat="45.20094" lon="5.73967">
        <ele>214.514</ele>
        <time>2021-08-08T03:24:00Z</time>
      </trkpt>
      <trkpt lat="45.20111" lon="5.73949">
        <ele>214.184</ele>
        <time>2021-08-08T03:24:06Z</time>
      </trkpt>
      <trkpt lat="45.20121" lon="5.73933">
        <ele>213.893</ele>
        <time>2021-08-08T03:24:12Z</time>
      </trkpt>
      <trkpt lat="45.20131" lon="5.73918">
        <ele>214.45</ele>
        <time>2021-08-08T03:24:17Z</time>
      </trkpt>
      <trkpt lat="45.20139" lon="5.73904">
        <ele>214.541</ele>
        <time>2021-08-08T03:24:23Z</time>
      </trkpt>
      <trkpt lat="45.20147" lon="5.73892">
        <ele>214.188</ele>
        <time>2021-08-08T03:24:28Z</time>
      </trkpt>
      <trkpt lat="45.20155" lon="5.7388">
        <ele>214.218</ele>
        <time>2021-08-08T03:24:33Z</time>
      </trkpt>
      <trkpt lat="45.20163" lon="5.73861">
        <ele>214.535</ele>
        <time>2021-08-08T03:24:40Z</time>
      </trkpt>
      <trkpt lat="45.20172" lon="5.73838">
        <ele>214.15</ele>
        <time>2021-08-08T03:24:47Z</time>
      </trkpt>
      <trkpt lat="45.20172" lon="5.73836">
        <ele>213.855</ele>
        <time>2021-08-08T03:24:48Z</time>
      </trkpt>
      <trkpt lat="45.20173" lon="5.73821">
        <ele>214.28</ele>
        <time>2021-08-08T03:24:52Z</time>
      </trkpt>
      <trkpt lat="45.20176" lon="5.73798">
        <ele>213.993</ele>
        <time>2021-08-08T03:24:58Z</time>
      </trkpt>
      <trkpt lat="45.20177" lon="5.73775">
        <ele>214.027</ele>
        <time>2021-08-08T03:25:04Z</time>
      </trkpt>
      <trkpt lat="45.20177" lon="5.73753">
        <ele>214.445</ele>
        <time>2021-08-08T03:25:10Z</time>
      </trkpt>
      <trkpt lat="45.20177" lon="5.73727">
        <ele>214.267</ele>
        <time>2021-08-08T03:25:17Z</time>
      </trkpt>
      <trkpt lat="45.20175" lon="5.73704">
        <ele>213.817</ele>
        <time>2021-08-08T03:25:24Z</time>
      </trkpt>
      <trkpt lat="45.20166" lon="5.73689">
        <ele>213.979</ele>
        <time>2021-08-08T03:25:29Z</time>
      </trkpt>
      <trkpt lat="45.20161" lon="5.73671">
        <ele>213.711</ele>
        <time>2021-08-08T03:25:35Z</time>
      </trkpt>
      <trkpt lat="45.20159" lon="5.73655">
        <ele>214.27</ele>
        <time>2021-08-08T03:25:39Z</time>
      </trkpt>
      <trkpt lat="45.20151" lon="5.73627">
        <ele>213.803</ele>
        <time>2021-08-08T03:25:47Z</time>
      </trkpt>
      <trkpt lat="45.20145" lon="5.73612">
        <ele>213.358</ele>
        <time>2021-08-08T03:25:52Z</time>
      </trkpt>
      <trkpt lat="45.20143" lon="5.73609">
        <ele>214.507</ele>
        <time>2021-08-08T03:25:53Z</time>
      </trkpt>
      <trkpt lat="45.20136" lon="5.73591">
        <ele>213.765</ele>
        <time>2021-08-08T03:25:59Z</time>
      </trkpt>
      <trkpt lat="45.20127" lon="5.73579">
        <ele>213.868</ele>
        <time>2021-08-08T03:26:04Z</time>
      </trkpt>
      <trkpt lat="45.20115" lon="5.73559">
        <ele>213.646</ele>
        <time>2021-08-08T03:26:10Z</time>
      </trkpt>
      <trkpt lat="45.20101" lon="5.73543">
        <ele>213.966</ele>
        <time>2021-08-08T03:26:17Z</time>
      </trkpt>
      <trkpt lat="45.20093" lon="5.73526">
        <ele>214.159</ele>
        <time>2021-08-08T03:26:22Z</time>
      </trkpt>
      <trkpt lat="45.2008" lon="5.73507">
        <ele>214.186</ele>
        <time>2021-08-08T03:26:29Z</time>
      </trkpt>
      <trkpt lat="45.20066" lon="5.735">
        <ele>214.418</ele>
        <time>2021-08-08T03:26:35Z</time>
      </trkpt>
      <trkpt lat="45.20046" lon="5.73496">
        <ele>214.543</ele>
        <time>2021-08-08T03:26:41Z</time>
      </trkpt>
      <trkpt lat="45.2003" lon="5.73483">
        <ele>214.25</ele>
        <time>2021-08-08T03:26:48Z</time>
      </trkpt>
      <trkpt lat="45.20021" lon="5.73471">
        <ele>213.628</ele>
        <time>2021-08-08T03:26:53Z</time>
      </trkpt>
      <trkpt lat="45.20007" lon="5.73461">
        <ele>213.997</ele>
        <time>2021-08-08T03:26:59Z</time>
      </trkpt>
      <trkpt lat="45.1999" lon="5.73449">
        <ele>214.409</ele>
        <time>2021-08-08T03:27:06Z</time>
      </trkpt>
      <trkpt lat="45.19976" lon="5.73437">
        <ele>214.277</ele>
        <time>2021-08-08T03:27:13Z</time>
      </trkpt>
      <trkpt lat="45.1996" lon="5.7343">
        <ele>214.557</ele>
        <time>2021-08-08T03:27:19Z</time>
      </trkpt>
      <trkpt lat="45.19946" lon="5.73423">
        <ele>214.517</ele>
        <time>2021-08-08T03:27:25Z</time>
      </trkpt>
      <trkpt lat="45.19926" lon="5.7342">
        <ele>215.319</ele>
        <time>2021-08-08T03:27:32Z</time>
      </trkpt>
      <trkpt lat="45.19909" lon="5.73418">
        <ele>214.497</ele>
        <time>2021-08-08T03:27:38Z</time>
      </trkpt>
      <trkpt lat="45.19891" lon="5.73417">
        <ele>214.508</ele>
        <time>2021-08-08T03:27:44Z</time>
      </trkpt>
      <trkpt lat="45.19883" lon="5.73411">
        <ele>214.932</ele>
        <time>2021-08-08T03:27:48Z</time>
      </trkpt>
      <trkpt lat="45.19869" lon="5.73406">
        <ele>214.407</ele>
        <time>2021-08-08T03:27:54Z</time>
      </trkpt>
      <trkpt lat="45.19854" lon="5.734">
        <ele>214.835</ele>
        <time>2021-08-08T03:28:00Z</time>
      </trkpt>
      <trkpt lat="45.19836" lon="5.73396">
        <ele>214.789</ele>
        <time>2021-08-08T03:28:07Z</time>
      </trkpt>
      <trkpt lat="45.19825" lon="5.7339">
        <ele>214.84</ele>
        <time>2021-08-08T03:28:12Z</time>
      </trkpt>
      <trkpt lat="45.19809" lon="5.73385">
        <ele>215.306</ele>
        <time>2021-08-08T03:28:19Z</time>
      </trkpt>
      <trkpt lat="45.19794" lon="5.73381">
        <ele>214.986</ele>
        <time>2021-08-08T03:28:25Z</time>
      </trkpt>
      <trkpt lat="45.19787" lon="5.73377">
        <ele>215.294</ele>
        <time>2021-08-08T03:28:28Z</time>
      </trkpt>
      <trkpt lat="45.19765" lon="5.73373">
        <ele>215.434</ele>
        <time>2021-08-08T03:28:36Z</time>
      </trkpt>
      <trkpt lat="45.19745" lon="5.73371">
        <ele>216.435</ele>
        <time>2021-08-08T03:28:43Z</time>
      </trkpt>
      <trkpt lat="45.19731" lon="5.73364">
        <ele>216.774</ele>
        <time>2021-08-08T03:28:50Z</time>
      </trkpt>
      <trkpt lat="45.19724" lon="5.73346">
        <ele>216.724</ele>
        <time>2021-08-08T03:28:56Z</time>
      </trkpt>
      <trkpt lat="45.19727" lon="5.73326">
        <ele>217.486</ele>
        <time>2021-08-08T03:29:02Z</time>
      </trkpt>
      <trkpt lat="45.19735" lon="5.73299">
        <ele>217.345</ele>
        <time>2021-08-08T03:29:10Z</time>
      </trkpt>
      <trkpt lat="45.19742" lon="5.73275">
        <ele>217.608</ele>
        <time>2021-08-08T03:29:17Z</time>
      </trkpt>
      <trkpt lat="45.19748" lon="5.73249">
        <ele>217.375</ele>
        <time>2021-08-08T03:29:25Z</time>
      </trkpt>
      <trkpt lat="45.19748" lon="5.73241">
        <ele>217.281</ele>
        <time>2021-08-08T03:29:27Z</time>
      </trkpt>
      <trkpt lat="45.19732" lon="5.73236">
        <ele>216.189</ele>
        <time>2021-08-08T03:29:32Z</time>
      </trkpt>
      <trkpt lat="45.19708" lon="5.73224">
        <ele>216.196</ele>
        <time>2021-08-08T03:29:41Z</time>
      </trkpt>
      <trkpt lat="45.19691" lon="5.73208">
        <ele>215.93</ele>
        <time>2021-08-08T03:29:48Z</time>
      </trkpt>
      <trkpt lat="45.19678" lon="5.73202">
        <ele>216.317</ele>
        <time>2021-08-08T03:29:53Z</time>
      </trkpt>
      <trkpt lat="45.19664" lon="5.73188">
        <ele>216.586</ele>
        <time>2021-08-08T03:30:00Z</time>
      </trkpt>
      <trkpt lat="45.19647" lon="5.73167">
        <ele>216.751</ele>
        <time>2021-08-08T03:30:08Z</time>
      </trkpt>
      <trkpt lat="45.19629" lon="5.73139">
        <ele>216.919</ele>
        <time>2021-08-08T03:30:17Z</time>
      </trkpt>
      <trkpt lat="45.19616" lon="5.73115">
        <ele>216.728</ele>
        <time>2021-08-08T03:30:25Z</time>
      </trkpt>
      <trkpt lat="45.196" lon="5.73089">
        <ele>217.132</ele>
        <time>2021-08-08T03:30:34Z</time>
      </trkpt>
      <trkpt lat="45.19588" lon="5.7307">
        <ele>217.211</ele>
        <time>2021-08-08T03:30:41Z</time>
      </trkpt>
      <trkpt lat="45.19571" lon="5.73041">
        <ele>217.718</ele>
        <time>2021-08-08T03:30:51Z</time>
      </trkpt>
      <trkpt lat="45.19558" lon="5.7302">
        <ele>217.654</ele>
        <time>2021-08-08T03:30:59Z</time>
      </trkpt>
      <trkpt lat="45.19542" lon="5.72994">
        <ele>218.195</ele>
        <time>2021-08-08T03:31:08Z</time>
      </trkpt>
      <trkpt lat="45.19531" lon="5.72976">
        <ele>217.843</ele>
        <time>2021-08-08T03:31:14Z</time>
      </trkpt>
      <trkpt lat="45.19519" lon="5.72956">
        <ele>218.055</ele>
        <time>2021-08-08T03:31:21Z</time>
      </trkpt>
      <trkpt lat="45.19506" lon="5.72935">
        <ele>217.301</ele>
        <time>2021-08-08T03:31:28Z</time>
      </trkpt>
      <trkpt lat="45.19491" lon="5.72912">
        <ele>216.549</ele>
        <time>2021-08-08T03:31:36Z</time>
      </trkpt>
      <trkpt lat="45.19477" lon="5.72891">
        <ele>216.732</ele>
        <time>2021-08-08T03:31:43Z</time>
      </trkpt>
      <trkpt lat="45.19463" lon="5.72866">
        <ele>215.923</ele>
        <time>2021-08-08T03:31:51Z</time>
      </trkpt>
      <trkpt lat="45.19453" lon="5.72842">
        <ele>216.403</ele>
        <time>2021-08-08T03:31:58Z</time>
      </trkpt>
      <trkpt lat="45.19441" lon="5.7281">
        <ele>215.917</ele>
        <time>2021-08-08T03:32:07Z</time>
      </trkpt>
      <trkpt lat="45.19432" lon="5.72779">
        <ele>214.758</ele>
        <time>2021-08-08T03:32:15Z</time>
      </trkpt>
      <trkpt lat="45.19424" lon="5.7274">
        <ele>213.594</ele>
        <time>2021-08-08T03:32:25Z</time>
      </trkpt>
      <trkpt lat="45.19418" lon="5.72711">
        <ele>211.463</ele>
        <time>2021-08-08T03:32:33Z</time>
      </trkpt>
      <trkpt lat="45.19413" lon="5.72685">
        <ele>210.2</ele>
        <time>2021-08-08T03:32:40Z</time>
      </trkpt>
      <trkpt lat="45.19409" lon="5.72656">
        <ele>210.712</ele>
        <time>2021-08-08T03:32:47Z</time>
      </trkpt>
      <trkpt lat="45.194" lon="5.72637">
        <ele>210.139</ele>
        <time>2021-08-08T03:32:53Z</time>
      </trkpt>
      <trkpt lat="45.19396" lon="5.72616">
        <ele>210.12</ele>
        <time>2021-08-08T03:32:59Z</time>
      </trkpt>
      <trkpt lat="45.19386" lon="5.72597">
        <ele>209.951</ele>
        <time>2021-08-08T03:33:06Z</time>
      </trkpt>
      <trkpt lat="45.19386" lon="5.72573">
        <ele>210.165</ele>
        <time>2021-08-08T03:33:11Z</time>
      </trkpt>
      <trkpt lat="45.19382" lon="5.7255">
        <ele>210.867</ele>
        <time>2021-08-08T03:33:17Z</time>
      </trkpt>
      <trkpt lat="45.1938" lon="5.72532">
        <ele>211.91</ele>
        <time>2021-08-08T03:33:22Z</time>
      </trkpt>
      <trkpt lat="45.19374" lon="5.72509">
        <ele>212.676</ele>
        <time>2021-08-08T03:33:29Z</time>
      </trkpt>
      <trkpt lat="45.19369" lon="5.72489">
        <ele>212.22</ele>
        <time>2021-08-08T03:33:35Z</time>
      </trkpt>
      <trkpt lat="45.19362" lon="5.72463">
        <ele>213.489</ele>
        <time>2021-08-08T03:33:42Z</time>
      </trkpt>
      <trkpt lat="45.19356" lon="5.72439">
        <ele>214.008</ele>
        <time>2021-08-08T03:33:49Z</time>
      </trkpt>
      <trkpt lat="45.19351" lon="5.72418">
        <ele>213.978</ele>
        <time>2021-08-08T03:33:55Z</time>
      </trkpt>
      <trkpt lat="45.19352" lon="5.72372">
        <ele>214.758</ele>
        <time>2021-08-08T03:34:08Z</time>
      </trkpt>
      <trkpt lat="45.19348" lon="5.72361">
        <ele>215.707</ele>
        <time>2021-08-08T03:34:12Z</time>
      </trkpt>
      <trkpt lat="45.19333" lon="5.72341">
        <ele>216.023</ele>
        <time>2021-08-08T03:34:20Z</time>
      </trkpt>
      <trkpt lat="45.19337" lon="5.72315">
        <ele>216.071</ele>
        <time>2021-08-08T03:34:25Z</time>
      </trkpt>
      <trkpt lat="45.19337" lon="5.72312">
        <ele>216.316</ele>
        <time>2021-08-08T03:34:26Z</time>
      </trkpt>
      <trkpt lat="45.19343" lon="5.72277">
        <ele>216.442</ele>
        <time>2021-08-08T03:34:34Z</time>
      </trkpt>
      <trkpt lat="45.19339" lon="5.72254">
        <ele>216.029</ele>
        <time>2021-08-08T03:34:40Z</time>
      </trkpt>
      <trkpt lat="45.19334" lon="5.7223">
        <ele>216.33</ele>
        <time>2021-08-08T03:34:46Z</time>
      </trkpt>
      <trkpt lat="45.19336" lon="5.72206">
        <ele>216.406</ele>
        <time>2021-08-08T03:34:52Z</time>
      </trkpt>
      <trkpt lat="45.19322" lon="5.72179">
        <ele>215.951</ele>
        <time>2021-08-08T03:34:58Z</time>
      </trkpt>
      <trkpt lat="45.19319" lon="5.7215">
        <ele>215.688</ele>
        <time>2021-08-08T03:35:05Z</time>
      </trkpt>
      <trkpt lat="45.19324" lon="5.72131">
        <ele>215.197</ele>
        <time>2021-08-08T03:35:11Z</time>
      </trkpt>
      <trkpt lat="45.19324" lon="5.72114">
        <ele>215.18</ele>
        <time>2021-08-08T03:35:16Z</time>
      </trkpt>
      <trkpt lat="45.19329" lon="5.72089">
        <ele>214.647</ele>
        <time>2021-08-08T03:35:23Z</time>
      </trkpt>
      <trkpt lat="45.19334" lon="5.72063">
        <ele>214.997</ele>
        <time>2021-08-08T03:35:29Z</time>
      </trkpt>
      <trkpt lat="45.19339" lon="5.7205">
        <ele>215.082</ele>
        <time>2021-08-08T03:35:32Z</time>
      </trkpt>
      <trkpt lat="45.19345" lon="5.72021">
        <ele>215.411</ele>
        <time>2021-08-08T03:35:39Z</time>
      </trkpt>
      <trkpt lat="45.19352" lon="5.71993">
        <ele>215.104</ele>
        <time>2021-08-08T03:35:46Z</time>
      </trkpt>
      <trkpt lat="45.19362" lon="5.71972">
        <ele>215.086</ele>
        <time>2021-08-08T03:35:52Z</time>
      </trkpt>
      <trkpt lat="45.19373" lon="5.71952">
        <ele>214.241</ele>
        <time>2021-08-08T03:35:58Z</time>
      </trkpt>
      <trkpt lat="45.19386" lon="5.71931">
        <ele>214.506</ele>
        <time>2021-08-08T03:36:05Z</time>
      </trkpt>
      <trkpt lat="45.19402" lon="5.71922">
        <ele>213.753</ele>
        <time>2021-08-08T03:36:12Z</time>
      </trkpt>
      <trkpt lat="45.1942" lon="5.71919">
        <ele>212.509</ele>
        <time>2021-08-08T03:36:19Z</time>
      </trkpt>
      <trkpt lat="45.19436" lon="5.71916">
        <ele>212.05</ele>
        <time>2021-08-08T03:36:25Z</time>
      </trkpt>
      <trkpt lat="45.19454" lon="5.71903">
        <ele>212.525</ele>
        <time>2021-08-08T03:36:32Z</time>
      </trkpt>
      <trkpt lat="45.19473" lon="5.71904">
        <ele>212.337</ele>
        <time>2021-08-08T03:36:38Z</time>
      </trkpt>
      <trkpt lat="45.19494" lon="5.71907">
        <ele>213.169</ele>
        <time>2021-08-08T03:36:46Z</time>
      </trkpt>
      <trkpt lat="45.19508" lon="5.71905">
        <ele>213.085</ele>
        <time>2021-08-08T03:36:51Z</time>
      </trkpt>
      <trkpt lat="45.19527" lon="5.71898">
        <ele>212.969</ele>
        <time>2021-08-08T03:36:58Z</time>
      </trkpt>
      <trkpt lat="45.19542" lon="5.71899">
        <ele>213.578</ele>
        <time>2021-08-08T03:37:04Z</time>
      </trkpt>
      <trkpt lat="45.19549" lon="5.71897">
        <ele>213.416</ele>
        <time>2021-08-08T03:37:07Z</time>
      </trkpt>
      <trkpt lat="45.19556" lon="5.71913">
        <ele>215.171</ele>
        <time>2021-08-08T03:37:13Z</time>
      </trkpt>
      <trkpt lat="45.19557" lon="5.71915">
        <ele>215.178</ele>
        <time>2021-08-08T03:37:14Z</time>
      </trkpt>
      <trkpt lat="45.19566" lon="5.71923">
        <ele>218.187</ele>
        <time>2021-08-08T03:37:20Z</time>
      </trkpt>
      <trkpt lat="45.19572" lon="5.71941">
        <ele>219.507</ele>
        <time>2021-08-08T03:37:27Z</time>
      </trkpt>
      <trkpt lat="45.19577" lon="5.71955">
        <ele>220.972</ele>
        <time>2021-08-08T03:37:34Z</time>
      </trkpt>
      <trkpt lat="45.19577" lon="5.71958">
        <ele>221.682</ele>
        <time>2021-08-08T03:37:35Z</time>
      </trkpt>
      <trkpt lat="45.19581" lon="5.71964">
        <ele>223.37</ele>
        <time>2021-08-08T03:37:41Z</time>
      </trkpt>
      <trkpt lat="45.19585" lon="5.71968">
        <ele>224.794</ele>
        <time>2021-08-08T03:37:45Z</time>
      </trkpt>
      <trkpt lat="45.19589" lon="5.71969">
        <ele>225.792</ele>
        <time>2021-08-08T03:37:47Z</time>
      </trkpt>
      <trkpt lat="45.19593" lon="5.71973">
        <ele>227.126</ele>
        <time>2021-08-08T03:37:50Z</time>
      </trkpt>
      <trkpt lat="45.19597" lon="5.71977">
        <ele>228.619</ele>
        <time>2021-08-08T03:37:54Z</time>
      </trkpt>
      <trkpt lat="45.19606" lon="5.71978">
        <ele>231.004</ele>
        <time>2021-08-08T03:38:00Z</time>
      </trkpt>
      <trkpt lat="45.19612" lon="5.7198">
        <ele>232</ele>
        <time>2021-08-08T03:38:05Z</time>
      </trkpt>
      <trkpt lat="45.19619" lon="5.71988">
        <ele>234.29</ele>
        <time>2021-08-08T03:38:12Z</time>
      </trkpt>
      <trkpt lat="45.1962" lon="5.7199">
        <ele>234.977</ele>
        <time>2021-08-08T03:38:14Z</time>
      </trkpt>
      <trkpt lat="45.19623" lon="5.71998">
        <ele>236.039</ele>
        <time>2021-08-08T03:38:18Z</time>
      </trkpt>
      <trkpt lat="45.19627" lon="5.72003">
        <ele>237.574</ele>
        <time>2021-08-08T03:38:22Z</time>
      </trkpt>
      <trkpt lat="45.19634" lon="5.72012">
        <ele>240.603</ele>
        <time>2021-08-08T03:38:30Z</time>
      </trkpt>
      <trkpt lat="45.1964" lon="5.72016">
        <ele>242.75</ele>
        <time>2021-08-08T03:38:37Z</time>
      </trkpt>
      <trkpt lat="45.19644" lon="5.7202">
        <ele>244.534</ele>
        <time>2021-08-08T03:38:42Z</time>
      </trkpt>
      <trkpt lat="45.19648" lon="5.72033">
        <ele>245.372</ele>
        <time>2021-08-08T03:38:50Z</time>
      </trkpt>
      <trkpt lat="45.1965" lon="5.72046">
        <ele>247.284</ele>
        <time>2021-08-08T03:38:57Z</time>
      </trkpt>
      <trkpt lat="45.1965" lon="5.72048">
        <ele>247.587</ele>
        <time>2021-08-08T03:38:59Z</time>
      </trkpt>
      <trkpt lat="45.19643" lon="5.7206">
        <ele>249.059</ele>
        <time>2021-08-08T03:39:06Z</time>
      </trkpt>
      <trkpt lat="45.19641" lon="5.72072">
        <ele>251.152</ele>
        <time>2021-08-08T03:39:13Z</time>
      </trkpt>
      <trkpt lat="45.19643" lon="5.72071">
        <ele>252.28</ele>
        <time>2021-08-08T03:39:18Z</time>
      </trkpt>
      <trkpt lat="45.19644" lon="5.7207">
        <ele>252.708</ele>
        <time>2021-08-08T03:39:20Z</time>
      </trkpt>
      <trkpt lat="45.19647" lon="5.72066">
        <ele>254.162</ele>
        <time>2021-08-08T03:39:26Z</time>
      </trkpt>
      <trkpt lat="45.19649" lon="5.72066">
        <ele>254.363</ele>
        <time>2021-08-08T03:39:27Z</time>
      </trkpt>
      <trkpt lat="45.19655" lon="5.7207">
        <ele>255.76</ele>
        <time>2021-08-08T03:39:33Z</time>
      </trkpt>
      <trkpt lat="45.19657" lon="5.72072">
        <ele>256.367</ele>
        <time>2021-08-08T03:39:35Z</time>
      </trkpt>
      <trkpt lat="45.19655" lon="5.72078">
        <ele>259.067</ele>
        <time>2021-08-08T03:39:44Z</time>
      </trkpt>
      <trkpt lat="45.19659" lon="5.72078">
        <ele>260.192</ele>
        <time>2021-08-08T03:39:47Z</time>
      </trkpt>
      <trkpt lat="45.19668" lon="5.72081">
        <ele>262.286</ele>
        <time>2021-08-08T03:39:56Z</time>
      </trkpt>
      <trkpt lat="45.1967" lon="5.72091">
        <ele>264.643</ele>
        <time>2021-08-08T03:40:02Z</time>
      </trkpt>
      <trkpt lat="45.1967" lon="5.72096">
        <ele>265.958</ele>
        <time>2021-08-08T03:40:06Z</time>
      </trkpt>
      <trkpt lat="45.19667" lon="5.72102">
        <ele>266.831</ele>
        <time>2021-08-08T03:40:11Z</time>
      </trkpt>
      <trkpt lat="45.19664" lon="5.72106">
        <ele>267.041</ele>
        <time>2021-08-08T03:40:15Z</time>
      </trkpt>
      <trkpt lat="45.19662" lon="5.72112">
        <ele>269.767</ele>
        <time>2021-08-08T03:40:20Z</time>
      </trkpt>
      <trkpt lat="45.19659" lon="5.72119">
        <ele>270.852</ele>
        <time>2021-08-08T03:40:25Z</time>
      </trkpt>
      <trkpt lat="45.19658" lon="5.72133">
        <ele>272.122</ele>
        <time>2021-08-08T03:40:32Z</time>
      </trkpt>
      <trkpt lat="45.1964" lon="5.72147">
        <ele>272.345</ele>
        <time>2021-08-08T03:40:38Z</time>
      </trkpt>
      <trkpt lat="45.19628" lon="5.72147">
        <ele>271.504</ele>
        <time>2021-08-08T03:40:43Z</time>
      </trkpt>
      <trkpt lat="45.19614" lon="5.72149">
        <ele>270.734</ele>
        <time>2021-08-08T03:40:50Z</time>
      </trkpt>
      <trkpt lat="45.19603" lon="5.72152">
        <ele>268.941</ele>
        <time>2021-08-08T03:40:57Z</time>
      </trkpt>
      <trkpt lat="45.19594" lon="5.72157">
        <ele>268.898</ele>
        <time>2021-08-08T03:41:02Z</time>
      </trkpt>
      <trkpt lat="45.19578" lon="5.72166">
        <ele>269.087</ele>
        <time>2021-08-08T03:41:10Z</time>
      </trkpt>
      <trkpt lat="45.19569" lon="5.72171">
        <ele>270.114</ele>
        <time>2021-08-08T03:41:14Z</time>
      </trkpt>
      <trkpt lat="45.19568" lon="5.72177">
        <ele>271.361</ele>
        <time>2021-08-08T03:41:17Z</time>
      </trkpt>
      <trkpt lat="45.19567" lon="5.72178">
        <ele>271.665</ele>
        <time>2021-08-08T03:41:18Z</time>
      </trkpt>
      <trkpt lat="45.19561" lon="5.7218">
        <ele>273.109</ele>
        <time>2021-08-08T03:41:23Z</time>
      </trkpt>
      <trkpt lat="45.19552" lon="5.72182">
        <ele>274.954</ele>
        <time>2021-08-08T03:41:29Z</time>
      </trkpt>
      <trkpt lat="45.19538" lon="5.72179">
        <ele>274.716</ele>
        <time>2021-08-08T03:41:36Z</time>
      </trkpt>
      <trkpt lat="45.19534" lon="5.72177">
        <ele>274.636</ele>
        <time>2021-08-08T03:41:38Z</time>
      </trkpt>
      <trkpt lat="45.19527" lon="5.72176">
        <ele>274.856</ele>
        <time>2021-08-08T03:41:42Z</time>
      </trkpt>
      <trkpt lat="45.19517" lon="5.72176">
        <ele>275.121</ele>
        <time>2021-08-08T03:41:47Z</time>
      </trkpt>
      <trkpt lat="45.195" lon="5.72171">
        <ele>276.413</ele>
        <time>2021-08-08T03:41:56Z</time>
      </trkpt>
      <trkpt lat="45.1949" lon="5.72169">
        <ele>277.083</ele>
        <time>2021-08-08T03:42:02Z</time>
      </trkpt>
      <trkpt lat="45.19479" lon="5.72168">
        <ele>279.649</ele>
        <time>2021-08-08T03:42:11Z</time>
      </trkpt>
      <trkpt lat="45.19476" lon="5.72169">
        <ele>280.603</ele>
        <time>2021-08-08T03:42:13Z</time>
      </trkpt>
      <trkpt lat="45.19471" lon="5.72177">
        <ele>281.87</ele>
        <time>2021-08-08T03:42:19Z</time>
      </trkpt>
      <trkpt lat="45.19473" lon="5.72179">
        <ele>282.741</ele>
        <time>2021-08-08T03:42:21Z</time>
      </trkpt>
      <trkpt lat="45.19474" lon="5.72181">
        <ele>282.597</ele>
        <time>2021-08-08T03:42:22Z</time>
      </trkpt>
      <trkpt lat="45.19478" lon="5.72185">
        <ele>284.06</ele>
        <time>2021-08-08T03:42:26Z</time>
      </trkpt>
      <trkpt lat="45.19479" lon="5.72188">
        <ele>284.773</ele>
        <time>2021-08-08T03:42:28Z</time>
      </trkpt>
      <trkpt lat="45.1948" lon="5.72188">
        <ele>285.554</ele>
        <time>2021-08-08T03:42:30Z</time>
      </trkpt>
      <trkpt lat="45.19484" lon="5.7219">
        <ele>286.24</ele>
        <time>2021-08-08T03:42:35Z</time>
      </trkpt>
      <trkpt lat="45.19485" lon="5.72191">
        <ele>286.782</ele>
        <time>2021-08-08T03:42:36Z</time>
      </trkpt>
      <trkpt lat="45.19487" lon="5.72192">
        <ele>287.463</ele>
        <time>2021-08-08T03:42:38Z</time>
      </trkpt>
      <trkpt lat="45.19491" lon="5.72195">
        <ele>289.361</ele>
        <time>2021-08-08T03:42:42Z</time>
      </trkpt>
      <trkpt lat="45.19498" lon="5.722">
        <ele>291.19</ele>
        <time>2021-08-08T03:42:48Z</time>
      </trkpt>
      <trkpt lat="45.19507" lon="5.72206">
        <ele>293.047</ele>
        <time>2021-08-08T03:42:54Z</time>
      </trkpt>
      <trkpt lat="45.19514" lon="5.7221">
        <ele>293.873</ele>
        <time>2021-08-08T03:42:58Z</time>
      </trkpt>
      <trkpt lat="45.19521" lon="5.72219">
        <ele>294.739</ele>
        <time>2021-08-08T03:43:05Z</time>
      </trkpt>
      <trkpt lat="45.19524" lon="5.72221">
        <ele>295.611</ele>
        <time>2021-08-08T03:43:08Z</time>
      </trkpt>
      <trkpt lat="45.19529" lon="5.72224">
        <ele>298.037</ele>
        <time>2021-08-08T03:43:14Z</time>
      </trkpt>
      <trkpt lat="45.19529" lon="5.72226">
        <ele>298.04</ele>
        <time>2021-08-08T03:43:15Z</time>
      </trkpt>
      <trkpt lat="45.19532" lon="5.72231">
        <ele>301.045</ele>
        <time>2021-08-08T03:43:20Z</time>
      </trkpt>
      <trkpt lat="45.19541" lon="5.72231">
        <ele>301.62</ele>
        <time>2021-08-08T03:43:26Z</time>
      </trkpt>
      <trkpt lat="45.19552" lon="5.72232">
        <ele>303.337</ele>
        <time>2021-08-08T03:43:34Z</time>
      </trkpt>
      <trkpt lat="45.19557" lon="5.72235">
        <ele>304.506</ele>
        <time>2021-08-08T03:43:38Z</time>
      </trkpt>
      <trkpt lat="45.19565" lon="5.72241">
        <ele>305.381</ele>
        <time>2021-08-08T03:43:45Z</time>
      </trkpt>
      <trkpt lat="45.19568" lon="5.72245">
        <ele>305.915</ele>
        <time>2021-08-08T03:43:49Z</time>
      </trkpt>
      <trkpt lat="45.19576" lon="5.72249">
        <ele>307.216</ele>
        <time>2021-08-08T03:43:55Z</time>
      </trkpt>
      <trkpt lat="45.19578" lon="5.72251">
        <ele>307.65</ele>
        <time>2021-08-08T03:43:57Z</time>
      </trkpt>
      <trkpt lat="45.19591" lon="5.72252">
        <ele>310.202</ele>
        <time>2021-08-08T03:44:06Z</time>
      </trkpt>
      <trkpt lat="45.19593" lon="5.72252">
        <ele>310.044</ele>
        <time>2021-08-08T03:44:07Z</time>
      </trkpt>
      <trkpt lat="45.19603" lon="5.72258">
        <ele>311.592</ele>
        <time>2021-08-08T03:44:13Z</time>
      </trkpt>
      <trkpt lat="45.19608" lon="5.72259">
        <ele>311.978</ele>
        <time>2021-08-08T03:44:16Z</time>
      </trkpt>
      <trkpt lat="45.19621" lon="5.72258">
        <ele>313.247</ele>
        <time>2021-08-08T03:44:24Z</time>
      </trkpt>
      <trkpt lat="45.19634" lon="5.72258">
        <ele>314.831</ele>
        <time>2021-08-08T03:44:33Z</time>
      </trkpt>
      <trkpt lat="45.19645" lon="5.72253">
        <ele>314.998</ele>
        <time>2021-08-08T03:44:40Z</time>
      </trkpt>
      <trkpt lat="45.19658" lon="5.72258">
        <ele>316.635</ele>
        <time>2021-08-08T03:44:47Z</time>
      </trkpt>
      <trkpt lat="45.19667" lon="5.72254">
        <ele>317.721</ele>
        <time>2021-08-08T03:44:52Z</time>
      </trkpt>
      <trkpt lat="45.19668" lon="5.72253">
        <ele>317.583</ele>
        <time>2021-08-08T03:44:53Z</time>
      </trkpt>
      <trkpt lat="45.19675" lon="5.72246">
        <ele>319.63</ele>
        <time>2021-08-08T03:45:00Z</time>
      </trkpt>
      <trkpt lat="45.19684" lon="5.72237">
        <ele>319.724</ele>
        <time>2021-08-08T03:45:05Z</time>
      </trkpt>
      <trkpt lat="45.19691" lon="5.72214">
        <ele>321.119</ele>
        <time>2021-08-08T03:45:13Z</time>
      </trkpt>
      <trkpt lat="45.19693" lon="5.7221">
        <ele>322.006</ele>
        <time>2021-08-08T03:45:15Z</time>
      </trkpt>
      <trkpt lat="45.19695" lon="5.72206">
        <ele>322.704</ele>
        <time>2021-08-08T03:45:17Z</time>
      </trkpt>
      <trkpt lat="45.19697" lon="5.72203">
        <ele>323.373</ele>
        <time>2021-08-08T03:45:19Z</time>
      </trkpt>
      <trkpt lat="45.1971" lon="5.72195">
        <ele>324.83</ele>
        <time>2021-08-08T03:45:28Z</time>
      </trkpt>
      <trkpt lat="45.19722" lon="5.72195">
        <ele>325.042</ele>
        <time>2021-08-08T03:45:35Z</time>
      </trkpt>
      <trkpt lat="45.19725" lon="5.722">
        <ele>325.714</ele>
        <time>2021-08-08T03:45:39Z</time>
      </trkpt>
      <trkpt lat="45.19719" lon="5.7221">
        <ele>327.311</ele>
        <time>2021-08-08T03:45:46Z</time>
      </trkpt>
      <trkpt lat="45.19711" lon="5.7222">
        <ele>330.639</ele>
        <time>2021-08-08T03:45:54Z</time>
      </trkpt>
      <trkpt lat="45.19706" lon="5.72227">
        <ele>331.986</ele>
        <time>2021-08-08T03:46:01Z</time>
      </trkpt>
      <trkpt lat="45.19697" lon="5.72238">
        <ele>333.623</ele>
        <time>2021-08-08T03:46:09Z</time>
      </trkpt>
      <trkpt lat="45.19696" lon="5.72239">
        <ele>333.461</ele>
        <time>2021-08-08T03:46:10Z</time>
      </trkpt>
      <trkpt lat="45.19699" lon="5.72242">
        <ele>334.739</ele>
        <time>2021-08-08T03:46:15Z</time>
      </trkpt>
      <trkpt lat="45.19705" lon="5.72238">
        <ele>336.314</ele>
        <time>2021-08-08T03:46:21Z</time>
      </trkpt>
      <trkpt lat="45.19712" lon="5.72237">
        <ele>336.766</ele>
        <time>2021-08-08T03:46:28Z</time>
      </trkpt>
      <trkpt lat="45.1972" lon="5.72237">
        <ele>339.252</ele>
        <time>2021-08-08T03:46:36Z</time>
      </trkpt>
      <trkpt lat="45.19727" lon="5.72235">
        <ele>340.383</ele>
        <time>2021-08-08T03:46:41Z</time>
      </trkpt>
      <trkpt lat="45.1973" lon="5.72232">
        <ele>340.986</ele>
        <time>2021-08-08T03:46:44Z</time>
      </trkpt>
      <trkpt lat="45.1974" lon="5.72235">
        <ele>341.958</ele>
        <time>2021-08-08T03:46:51Z</time>
      </trkpt>
      <trkpt lat="45.19744" lon="5.72233">
        <ele>342.282</ele>
        <time>2021-08-08T03:46:54Z</time>
      </trkpt>
      <trkpt lat="45.19759" lon="5.72229">
        <ele>344.126</ele>
        <time>2021-08-08T03:47:03Z</time>
      </trkpt>
      <trkpt lat="45.19764" lon="5.72229">
        <ele>344.348</ele>
        <time>2021-08-08T03:47:06Z</time>
      </trkpt>
      <trkpt lat="45.19768" lon="5.72231">
        <ele>344.82</ele>
        <time>2021-08-08T03:47:10Z</time>
      </trkpt>
      <trkpt lat="45.19768" lon="5.72235">
        <ele>345.941</ele>
        <time>2021-08-08T03:47:12Z</time>
      </trkpt>
      <trkpt lat="45.19767" lon="5.72248">
        <ele>347.274</ele>
        <time>2021-08-08T03:47:19Z</time>
      </trkpt>
      <trkpt lat="45.19768" lon="5.72248">
        <ele>348.092</ele>
        <time>2021-08-08T03:47:22Z</time>
      </trkpt>
      <trkpt lat="45.19773" lon="5.72243">
        <ele>348.785</ele>
        <time>2021-08-08T03:47:27Z</time>
      </trkpt>
      <trkpt lat="45.19777" lon="5.72234">
        <ele>350.404</ele>
        <time>2021-08-08T03:47:34Z</time>
      </trkpt>
      <trkpt lat="45.19778" lon="5.72232">
        <ele>350.156</ele>
        <time>2021-08-08T03:47:35Z</time>
      </trkpt>
      <trkpt lat="45.19781" lon="5.72234">
        <ele>351.691</ele>
        <time>2021-08-08T03:47:41Z</time>
      </trkpt>
      <trkpt lat="45.19782" lon="5.72235">
        <ele>352.021</ele>
        <time>2021-08-08T03:47:43Z</time>
      </trkpt>
      <trkpt lat="45.19786" lon="5.72228">
        <ele>353.792</ele>
        <time>2021-08-08T03:47:51Z</time>
      </trkpt>
      <trkpt lat="45.19785" lon="5.72233">
        <ele>354.512</ele>
        <time>2021-08-08T03:47:54Z</time>
      </trkpt>
      <trkpt lat="45.19785" lon="5.72234">
        <ele>356.068</ele>
        <time>2021-08-08T03:48:00Z</time>
      </trkpt>
      <trkpt lat="45.19789" lon="5.72232">
        <ele>357.467</ele>
        <time>2021-08-08T03:48:06Z</time>
      </trkpt>
      <trkpt lat="45.19784" lon="5.72244">
        <ele>358.42</ele>
        <time>2021-08-08T03:48:12Z</time>
      </trkpt>
      <trkpt lat="45.19787" lon="5.72241">
        <ele>359.661</ele>
        <time>2021-08-08T03:48:18Z</time>
      </trkpt>
      <trkpt lat="45.19788" lon="5.7224">
        <ele>360.352</ele>
        <time>2021-08-08T03:48:25Z</time>
      </trkpt>
      <trkpt lat="45.19787" lon="5.72243">
        <ele>361.412</ele>
        <time>2021-08-08T03:48:27Z</time>
      </trkpt>
      <trkpt lat="45.1979" lon="5.72247">
        <ele>361.891</ele>
        <time>2021-08-08T03:48:33Z</time>
      </trkpt>
      <trkpt lat="45.19791" lon="5.72247">
        <ele>362.386</ele>
        <time>2021-08-08T03:48:34Z</time>
      </trkpt>
      <trkpt lat="45.19792" lon="5.72248">
        <ele>362.917</ele>
        <time>2021-08-08T03:48:39Z</time>
      </trkpt>
      <trkpt lat="45.19789" lon="5.72256">
        <ele>364.744</ele>
        <time>2021-08-08T03:48:43Z</time>
      </trkpt>
      <trkpt lat="45.1979" lon="5.72255">
        <ele>365.116</ele>
        <time>2021-08-08T03:48:45Z</time>
      </trkpt>
      <trkpt lat="45.19792" lon="5.72251">
        <ele>366.295</ele>
        <time>2021-08-08T03:48:47Z</time>
      </trkpt>
      <trkpt lat="45.19794" lon="5.72251">
        <ele>367.26</ele>
        <time>2021-08-08T03:48:53Z</time>
      </trkpt>
      <trkpt lat="45.19793" lon="5.72258">
        <ele>368.989</ele>
        <time>2021-08-08T03:48:59Z</time>
      </trkpt>
      <trkpt lat="45.19796" lon="5.72255">
        <ele>369.849</ele>
        <time>2021-08-08T03:49:04Z</time>
      </trkpt>
      <trkpt lat="45.19793" lon="5.72259">
        <ele>371.196</ele>
        <time>2021-08-08T03:49:11Z</time>
      </trkpt>
      <trkpt lat="45.19789" lon="5.72262">
        <ele>371.929</ele>
        <time>2021-08-08T03:49:16Z</time>
      </trkpt>
      <trkpt lat="45.19789" lon="5.72261">
        <ele>372.465</ele>
        <time>2021-08-08T03:49:17Z</time>
      </trkpt>
      <trkpt lat="45.19788" lon="5.72258">
        <ele>374.291</ele>
        <time>2021-08-08T03:49:23Z</time>
      </trkpt>
      <trkpt lat="45.19795" lon="5.72251">
        <ele>377.174</ele>
        <time>2021-08-08T03:49:29Z</time>
      </trkpt>
      <trkpt lat="45.19798" lon="5.72248">
        <ele>378.403</ele>
        <time>2021-08-08T03:49:32Z</time>
      </trkpt>
      <trkpt lat="45.19803" lon="5.72236">
        <ele>378.983</ele>
        <time>2021-08-08T03:49:39Z</time>
      </trkpt>
      <trkpt lat="45.1981" lon="5.72223">
        <ele>380.189</ele>
        <time>2021-08-08T03:49:47Z</time>
      </trkpt>
      <trkpt lat="45.19814" lon="5.72229">
        <ele>381.335</ele>
        <time>2021-08-08T03:49:52Z</time>
      </trkpt>
      <trkpt lat="45.19814" lon="5.72238">
        <ele>384.434</ele>
        <time>2021-08-08T03:50:00Z</time>
      </trkpt>
      <trkpt lat="45.19813" lon="5.72241">
        <ele>385.111</ele>
        <time>2021-08-08T03:50:02Z</time>
      </trkpt>
      <trkpt lat="45.19812" lon="5.72245">
        <ele>386.342</ele>
        <time>2021-08-08T03:50:08Z</time>
      </trkpt>
      <trkpt lat="45.1982" lon="5.72249">
        <ele>387.881</ele>
        <time>2021-08-08T03:50:17Z</time>
      </trkpt>
      <trkpt lat="45.1982" lon="5.7225">
        <ele>388.359</ele>
        <time>2021-08-08T03:50:18Z</time>
      </trkpt>
      <trkpt lat="45.19818" lon="5.72256">
        <ele>388.727</ele>
        <time>2021-08-08T03:50:22Z</time>
      </trkpt>
      <trkpt lat="45.19812" lon="5.72262">
        <ele>390.854</ele>
        <time>2021-08-08T03:50:27Z</time>
      </trkpt>
      <trkpt lat="45.19803" lon="5.72271">
        <ele>394.358</ele>
        <time>2021-08-08T03:50:35Z</time>
      </trkpt>
      <trkpt lat="45.19789" lon="5.72284">
        <ele>398.153</ele>
        <time>2021-08-08T03:50:47Z</time>
      </trkpt>
      <trkpt lat="45.19788" lon="5.72285">
        <ele>398.412</ele>
        <time>2021-08-08T03:50:48Z</time>
      </trkpt>
      <trkpt lat="45.19833" lon="5.72238">
        <ele>399.092</ele>
        <time>2021-08-08T03:50:53Z</time>
      </trkpt>
      <trkpt lat="45.19833" lon="5.72249">
        <ele>402.491</ele>
        <time>2021-08-08T03:51:02Z</time>
      </trkpt>
      <trkpt lat="45.19833" lon="5.72251">
        <ele>403.77</ele>
        <time>2021-08-08T03:51:05Z</time>
      </trkpt>
      <trkpt lat="45.19826" lon="5.72261">
        <ele>404.089</ele>
        <time>2021-08-08T03:51:12Z</time>
      </trkpt>
      <trkpt lat="45.19826" lon="5.72263">
        <ele>404.025</ele>
        <time>2021-08-08T03:51:13Z</time>
      </trkpt>
      <trkpt lat="45.1982" lon="5.72284">
        <ele>405.543</ele>
        <time>2021-08-08T03:51:22Z</time>
      </trkpt>
      <trkpt lat="45.19817" lon="5.72293">
        <ele>405.776</ele>
        <time>2021-08-08T03:51:26Z</time>
      </trkpt>
      <trkpt lat="45.19811" lon="5.72313">
        <ele>406.532</ele>
        <time>2021-08-08T03:51:35Z</time>
      </trkpt>
      <trkpt lat="45.19807" lon="5.72326">
        <ele>406.765</ele>
        <time>2021-08-08T03:51:40Z</time>
      </trkpt>
      <trkpt lat="45.19805" lon="5.72328">
        <ele>407.659</ele>
        <time>2021-08-08T03:51:41Z</time>
      </trkpt>
      <trkpt lat="45.19805" lon="5.7233">
        <ele>407.491</ele>
        <time>2021-08-08T03:51:43Z</time>
      </trkpt>
      <trkpt lat="45.19821" lon="5.72331">
        <ele>410.066</ele>
        <time>2021-08-08T03:51:52Z</time>
      </trkpt>
      <trkpt lat="45.19834" lon="5.72332">
        <ele>413.554</ele>
        <time>2021-08-08T03:51:59Z</time>
      </trkpt>
      <trkpt lat="45.19836" lon="5.72332">
        <ele>413.639</ele>
        <time>2021-08-08T03:52:00Z</time>
      </trkpt>
      <trkpt lat="45.19842" lon="5.72332">
        <ele>414.979</ele>
        <time>2021-08-08T03:52:03Z</time>
      </trkpt>
      <trkpt lat="45.19828" lon="5.72342">
        <ele>416.989</ele>
        <time>2021-08-08T03:52:08Z</time>
      </trkpt>
      <trkpt lat="45.19815" lon="5.72347">
        <ele>417.654</ele>
        <time>2021-08-08T03:52:09Z</time>
      </trkpt>
      <trkpt lat="45.19809" lon="5.72351">
        <ele>417.299</ele>
        <time>2021-08-08T03:52:14Z</time>
      </trkpt>
      <trkpt lat="45.19809" lon="5.72346">
        <ele>417.142</ele>
        <time>2021-08-08T03:52:18Z</time>
      </trkpt>
      <trkpt lat="45.19813" lon="5.72338">
        <ele>417.487</ele>
        <time>2021-08-08T03:52:23Z</time>
      </trkpt>
      <trkpt lat="45.19819" lon="5.72322">
        <ele>417.246</ele>
        <time>2021-08-08T03:52:30Z</time>
      </trkpt>
      <trkpt lat="45.19821" lon="5.72329">
        <ele>419.542</ele>
        <time>2021-08-08T03:52:35Z</time>
      </trkpt>
      <trkpt lat="45.19821" lon="5.72336">
        <ele>423.053</ele>
        <time>2021-08-08T03:52:41Z</time>
      </trkpt>
      <trkpt lat="45.19821" lon="5.7234">
        <ele>424.156</ele>
        <time>2021-08-08T03:52:44Z</time>
      </trkpt>
      <trkpt lat="45.19822" lon="5.72348">
        <ele>425.834</ele>
        <time>2021-08-08T03:52:52Z</time>
      </trkpt>
      <trkpt lat="45.19822" lon="5.72349">
        <ele>426.06</ele>
        <time>2021-08-08T03:52:53Z</time>
      </trkpt>
      <trkpt lat="45.19823" lon="5.72356">
        <ele>427.821</ele>
        <time>2021-08-08T03:52:59Z</time>
      </trkpt>
      <trkpt lat="45.19818" lon="5.72374">
        <ele>428.725</ele>
        <time>2021-08-08T03:53:07Z</time>
      </trkpt>
      <trkpt lat="45.19817" lon="5.72376">
        <ele>428.648</ele>
        <time>2021-08-08T03:53:08Z</time>
      </trkpt>
      <trkpt lat="45.1982" lon="5.72378">
        <ele>429.411</ele>
        <time>2021-08-08T03:53:13Z</time>
      </trkpt>
      <trkpt lat="45.19823" lon="5.72375">
        <ele>432.47</ele>
        <time>2021-08-08T03:53:17Z</time>
      </trkpt>
      <trkpt lat="45.19825" lon="5.72375">
        <ele>434.103</ele>
        <time>2021-08-08T03:53:23Z</time>
      </trkpt>
      <trkpt lat="45.19824" lon="5.72378">
        <ele>435.803</ele>
        <time>2021-08-08T03:53:26Z</time>
      </trkpt>
      <trkpt lat="45.19824" lon="5.72389">
        <ele>436.6</ele>
        <time>2021-08-08T03:53:31Z</time>
      </trkpt>
      <trkpt lat="45.19826" lon="5.72392">
        <ele>436.33</ele>
        <time>2021-08-08T03:53:33Z</time>
      </trkpt>
      <trkpt lat="45.1983" lon="5.72394">
        <ele>437.837</ele>
        <time>2021-08-08T03:53:38Z</time>
      </trkpt>
      <trkpt lat="45.19836" lon="5.72391">
        <ele>440.341</ele>
        <time>2021-08-08T03:53:45Z</time>
      </trkpt>
      <trkpt lat="45.19838" lon="5.7239">
        <ele>441.119</ele>
        <time>2021-08-08T03:53:47Z</time>
      </trkpt>
      <trkpt lat="45.19839" lon="5.72389">
        <ele>441.304</ele>
        <time>2021-08-08T03:53:48Z</time>
      </trkpt>
      <trkpt lat="45.19847" lon="5.72387">
        <ele>441.37</ele>
        <time>2021-08-08T03:53:55Z</time>
      </trkpt>
      <trkpt lat="45.19847" lon="5.72387">
        <ele>443.025</ele>
        <time>2021-08-08T03:53:58Z</time>
      </trkpt>
      <trkpt lat="45.19848" lon="5.72386">
        <ele>446.305</ele>
        <time>2021-08-08T03:54:06Z</time>
      </trkpt>
      <trkpt lat="45.1985" lon="5.72393">
        <ele>447.44</ele>
        <time>2021-08-08T03:54:11Z</time>
      </trkpt>
      <trkpt lat="45.19849" lon="5.724">
        <ele>449.924</ele>
        <time>2021-08-08T03:54:18Z</time>
      </trkpt>
      <trkpt lat="45.19848" lon="5.724">
        <ele>452.962</ele>
        <time>2021-08-08T03:54:25Z</time>
      </trkpt>
      <trkpt lat="45.1985" lon="5.72398">
        <ele>455.35</ele>
        <time>2021-08-08T03:54:32Z</time>
      </trkpt>
      <trkpt lat="45.1985" lon="5.72409">
        <ele>457.939</ele>
        <time>2021-08-08T03:54:41Z</time>
      </trkpt>
      <trkpt lat="45.19848" lon="5.72413">
        <ele>459.602</ele>
        <time>2021-08-08T03:54:44Z</time>
      </trkpt>
      <trkpt lat="45.19848" lon="5.72418">
        <ele>462.681</ele>
        <time>2021-08-08T03:54:49Z</time>
      </trkpt>
      <trkpt lat="45.19847" lon="5.72427">
        <ele>464.337</ele>
        <time>2021-08-08T03:54:56Z</time>
      </trkpt>
      <trkpt lat="45.19847" lon="5.7243">
        <ele>464.6</ele>
        <time>2021-08-08T03:54:58Z</time>
      </trkpt>
      <trkpt lat="45.19843" lon="5.72437">
        <ele>465.698</ele>
        <time>2021-08-08T03:55:04Z</time>
      </trkpt>
      <trkpt lat="45.19838" lon="5.72441">
        <ele>464.404</ele>
        <time>2021-08-08T03:55:10Z</time>
      </trkpt>
      <trkpt lat="45.19838" lon="5.72439">
        <ele>464.691</ele>
        <time>2021-08-08T03:55:51Z</time>
      </trkpt>
      <trkpt lat="45.19839" lon="5.72439">
        <ele>464.491</ele>
        <time>2021-08-08T03:55:52Z</time>
      </trkpt>
      <trkpt lat="45.19844" lon="5.72443">
        <ele>464.659</ele>
        <time>2021-08-08T03:55:57Z</time>
      </trkpt>
      <trkpt lat="45.19845" lon="5.72449">
        <ele>464.854</ele>
        <time>2021-08-08T03:56:00Z</time>
      </trkpt>
      <trkpt lat="45.19844" lon="5.72464">
        <ele>467.763</ele>
        <time>2021-08-08T03:56:07Z</time>
      </trkpt>
      <trkpt lat="45.19845" lon="5.72467">
        <ele>467.348</ele>
        <time>2021-08-08T03:56:08Z</time>
      </trkpt>
      <trkpt lat="45.19845" lon="5.72484">
        <ele>468.664</ele>
        <time>2021-08-08T03:56:14Z</time>
      </trkpt>
      <trkpt lat="45.19845" lon="5.72498">
        <ele>469.738</ele>
        <time>2021-08-08T03:56:19Z</time>
      </trkpt>
      <trkpt lat="45.19849" lon="5.72513">
        <ele>470.271</ele>
        <time>2021-08-08T03:56:25Z</time>
      </trkpt>
      <trkpt lat="45.19851" lon="5.7253">
        <ele>471.279</ele>
        <time>2021-08-08T03:56:32Z</time>
      </trkpt>
      <trkpt lat="45.19853" lon="5.72546">
        <ele>472.297</ele>
        <time>2021-08-08T03:56:38Z</time>
      </trkpt>
      <trkpt lat="45.19856" lon="5.72558">
        <ele>473.061</ele>
        <time>2021-08-08T03:56:44Z</time>
      </trkpt>
      <trkpt lat="45.19857" lon="5.72544">
        <ele>473.943</ele>
        <time>2021-08-08T03:56:50Z</time>
      </trkpt>
      <trkpt lat="45.19855" lon="5.72522">
        <ele>476.623</ele>
        <time>2021-08-08T03:56:58Z</time>
      </trkpt>
      <trkpt lat="45.19859" lon="5.72495">
        <ele>477.159</ele>
        <time>2021-08-08T03:57:07Z</time>
      </trkpt>
      <trkpt lat="45.19863" lon="5.72488">
        <ele>478.314</ele>
        <time>2021-08-08T03:57:13Z</time>
      </trkpt>
      <trkpt lat="45.19865" lon="5.72483">
        <ele>481.318</ele>
        <time>2021-08-08T03:57:18Z</time>
      </trkpt>
      <trkpt lat="45.19872" lon="5.72481">
        <ele>484.544</ele>
        <time>2021-08-08T03:57:24Z</time>
      </trkpt>
      <trkpt lat="45.19873" lon="5.72477">
        <ele>485.315</ele>
        <time>2021-08-08T03:57:26Z</time>
      </trkpt>
      <trkpt lat="45.19878" lon="5.72477">
        <ele>486.341</ele>
        <time>2021-08-08T03:57:32Z</time>
      </trkpt>
      <trkpt lat="45.1988" lon="5.72489">
        <ele>486.791</ele>
        <time>2021-08-08T03:57:36Z</time>
      </trkpt>
      <trkpt lat="45.19881" lon="5.72513">
        <ele>486.57</ele>
        <time>2021-08-08T03:57:43Z</time>
      </trkpt>
      <trkpt lat="45.19881" lon="5.7252">
        <ele>486.714</ele>
        <time>2021-08-08T03:57:45Z</time>
      </trkpt>
      <trkpt lat="45.19885" lon="5.72539">
        <ele>487.64</ele>
        <time>2021-08-08T03:57:53Z</time>
      </trkpt>
      <trkpt lat="45.19884" lon="5.72542">
        <ele>489.698</ele>
        <time>2021-08-08T03:57:57Z</time>
      </trkpt>
      <trkpt lat="45.19882" lon="5.72547">
        <ele>492.795</ele>
        <time>2021-08-08T03:58:03Z</time>
      </trkpt>
      <trkpt lat="45.19881" lon="5.72553">
        <ele>493.268</ele>
        <time>2021-08-08T03:58:08Z</time>
      </trkpt>
      <trkpt lat="45.1988" lon="5.72564">
        <ele>493.24</ele>
        <time>2021-08-08T03:58:13Z</time>
      </trkpt>
      <trkpt lat="45.19874" lon="5.72565">
        <ele>493.367</ele>
        <time>2021-08-08T03:58:19Z</time>
      </trkpt>
      <trkpt lat="45.19873" lon="5.72545">
        <ele>493.341</ele>
        <time>2021-08-08T03:58:27Z</time>
      </trkpt>
      <trkpt lat="45.1987" lon="5.72517">
        <ele>493.566</ele>
        <time>2021-08-08T03:58:37Z</time>
      </trkpt>
      <trkpt lat="45.19869" lon="5.72506">
        <ele>493.521</ele>
        <time>2021-08-08T03:58:41Z</time>
      </trkpt>
      <trkpt lat="45.19875" lon="5.72509">
        <ele>493.145</ele>
        <time>2021-08-08T03:58:46Z</time>
      </trkpt>
      <trkpt lat="45.19877" lon="5.7254">
        <ele>493.15</ele>
        <time>2021-08-08T03:58:56Z</time>
      </trkpt>
      <trkpt lat="45.19879" lon="5.72551">
        <ele>492.871</ele>
        <time>2021-08-08T03:59:01Z</time>
      </trkpt>
      <trkpt lat="45.19881" lon="5.72545">
        <ele>490.279</ele>
        <time>2021-08-08T03:59:07Z</time>
      </trkpt>
      <trkpt lat="45.19882" lon="5.7254">
        <ele>488.493</ele>
        <time>2021-08-08T03:59:11Z</time>
      </trkpt>
      <trkpt lat="45.19881" lon="5.72536">
        <ele>486.971</ele>
        <time>2021-08-08T03:59:14Z</time>
      </trkpt>
      <trkpt lat="45.19883" lon="5.72518">
        <ele>487.302</ele>
        <time>2021-08-08T03:59:21Z</time>
      </trkpt>
      <trkpt lat="45.19885" lon="5.7249">
        <ele>487.602</ele>
        <time>2021-08-08T03:59:29Z</time>
      </trkpt>
      <trkpt lat="45.19882" lon="5.72488">
        <ele>487.149</ele>
        <time>2021-08-08T03:59:34Z</time>
      </trkpt>
      <trkpt lat="45.19877" lon="5.72488">
        <ele>483.745</ele>
        <time>2021-08-08T03:59:39Z</time>
      </trkpt>
      <trkpt lat="45.19866" lon="5.72489">
        <ele>479.917</ele>
        <time>2021-08-08T03:59:46Z</time>
      </trkpt>
      <trkpt lat="45.19857" lon="5.72485">
        <ele>477.006</ele>
        <time>2021-08-08T03:59:53Z</time>
      </trkpt>
      <trkpt lat="45.19856" lon="5.72483">
        <ele>476.808</ele>
        <time>2021-08-08T03:59:55Z</time>
      </trkpt>
      <trkpt lat="45.19861" lon="5.72476">
        <ele>476.815</ele>
        <time>2021-08-08T04:00:00Z</time>
      </trkpt>
      <trkpt lat="45.19865" lon="5.72471">
        <ele>477.586</ele>
        <time>2021-08-08T04:00:03Z</time>
      </trkpt>
      <trkpt lat="45.19879" lon="5.72473">
        <ele>478.366</ele>
        <time>2021-08-08T04:00:07Z</time>
      </trkpt>
      <trkpt lat="45.19886" lon="5.72476">
        <ele>477.968</ele>
        <time>2021-08-08T04:00:11Z</time>
      </trkpt>
      <trkpt lat="45.19888" lon="5.72465">
        <ele>477.728</ele>
        <time>2021-08-08T04:00:15Z</time>
      </trkpt>
      <trkpt lat="45.19894" lon="5.7245">
        <ele>476.984</ele>
        <time>2021-08-08T04:00:20Z</time>
      </trkpt>
      <trkpt lat="45.19913" lon="5.72437">
        <ele>475.16</ele>
        <time>2021-08-08T04:00:28Z</time>
      </trkpt>
      <trkpt lat="45.19929" lon="5.72426">
        <ele>473.831</ele>
        <time>2021-08-08T04:00:35Z</time>
      </trkpt>
      <trkpt lat="45.19944" lon="5.72421">
        <ele>473.666</ele>
        <time>2021-08-08T04:00:41Z</time>
      </trkpt>
      <trkpt lat="45.19963" lon="5.72419">
        <ele>474.508</ele>
        <time>2021-08-08T04:00:49Z</time>
      </trkpt>
      <trkpt lat="45.19979" lon="5.7242">
        <ele>476.914</ele>
        <time>2021-08-08T04:00:57Z</time>
      </trkpt>
      <trkpt lat="45.19995" lon="5.7242">
        <ele>478</ele>
        <time>2021-08-08T04:01:05Z</time>
      </trkpt>
      <trkpt lat="45.20011" lon="5.72423">
        <ele>479.577</ele>
        <time>2021-08-08T04:01:13Z</time>
      </trkpt>
      <trkpt lat="45.20023" lon="5.72422">
        <ele>481.937</ele>
        <time>2021-08-08T04:01:19Z</time>
      </trkpt>
      <trkpt lat="45.20038" lon="5.72425">
        <ele>482.467</ele>
        <time>2021-08-08T04:01:27Z</time>
      </trkpt>
      <trkpt lat="45.2005" lon="5.72426">
        <ele>483.606</ele>
        <time>2021-08-08T04:01:34Z</time>
      </trkpt>
      <trkpt lat="45.20059" lon="5.72428">
        <ele>484.635</ele>
        <time>2021-08-08T04:01:41Z</time>
      </trkpt>
      <trkpt lat="45.20069" lon="5.72438">
        <ele>486.075</ele>
        <time>2021-08-08T04:01:47Z</time>
      </trkpt>
      <trkpt lat="45.20071" lon="5.72443">
        <ele>487.285</ele>
        <time>2021-08-08T04:01:49Z</time>
      </trkpt>
      <trkpt lat="45.20073" lon="5.72454">
        <ele>488.148</ele>
        <time>2021-08-08T04:01:53Z</time>
      </trkpt>
      <trkpt lat="45.20074" lon="5.72475">
        <ele>490.725</ele>
        <time>2021-08-08T04:02:00Z</time>
      </trkpt>
      <trkpt lat="45.20073" lon="5.72494">
        <ele>491.985</ele>
        <time>2021-08-08T04:02:06Z</time>
      </trkpt>
      <trkpt lat="45.20069" lon="5.72516">
        <ele>492.474</ele>
        <time>2021-08-08T04:02:13Z</time>
      </trkpt>
      <trkpt lat="45.20068" lon="5.72524">
        <ele>492.364</ele>
        <time>2021-08-08T04:02:16Z</time>
      </trkpt>
      <trkpt lat="45.20073" lon="5.72539">
        <ele>493.157</ele>
        <time>2021-08-08T04:02:22Z</time>
      </trkpt>
      <trkpt lat="45.20076" lon="5.72543">
        <ele>493.013</ele>
        <time>2021-08-08T04:02:24Z</time>
      </trkpt>
      <trkpt lat="45.20089" lon="5.72545">
        <ele>493.358</ele>
        <time>2021-08-08T04:02:32Z</time>
      </trkpt>
      <trkpt lat="45.201" lon="5.72542">
        <ele>495.933</ele>
        <time>2021-08-08T04:02:39Z</time>
      </trkpt>
      <trkpt lat="45.20106" lon="5.72542">
        <ele>497.929</ele>
        <time>2021-08-08T04:02:44Z</time>
      </trkpt>
      <trkpt lat="45.20114" lon="5.72543">
        <ele>499.458</ele>
        <time>2021-08-08T04:02:51Z</time>
      </trkpt>
      <trkpt lat="45.20116" lon="5.72541">
        <ele>500.508</ele>
        <time>2021-08-08T04:02:55Z</time>
      </trkpt>
      <trkpt lat="45.20114" lon="5.72534">
        <ele>502.378</ele>
        <time>2021-08-08T04:03:00Z</time>
      </trkpt>
      <trkpt lat="45.20112" lon="5.72528">
        <ele>502.814</ele>
        <time>2021-08-08T04:03:03Z</time>
      </trkpt>
      <trkpt lat="45.20113" lon="5.72522">
        <ele>503.738</ele>
        <time>2021-08-08T04:03:07Z</time>
      </trkpt>
      <trkpt lat="45.20114" lon="5.72512">
        <ele>505.753</ele>
        <time>2021-08-08T04:03:14Z</time>
      </trkpt>
      <trkpt lat="45.20119" lon="5.72506">
        <ele>506.698</ele>
        <time>2021-08-08T04:03:20Z</time>
      </trkpt>
      <trkpt lat="45.20126" lon="5.72495">
        <ele>508.677</ele>
        <time>2021-08-08T04:03:30Z</time>
      </trkpt>
      <trkpt lat="45.20131" lon="5.72488">
        <ele>511.104</ele>
        <time>2021-08-08T04:03:37Z</time>
      </trkpt>
      <trkpt lat="45.20133" lon="5.72477">
        <ele>513.106</ele>
        <time>2021-08-08T04:03:46Z</time>
      </trkpt>
      <trkpt lat="45.20134" lon="5.72474">
        <ele>513.661</ele>
        <time>2021-08-08T04:03:48Z</time>
      </trkpt>
      <trkpt lat="45.20137" lon="5.72468">
        <ele>515.524</ele>
        <time>2021-08-08T04:03:56Z</time>
      </trkpt>
      <trkpt lat="45.20141" lon="5.72464">
        <ele>516.962</ele>
        <time>2021-08-08T04:04:03Z</time>
      </trkpt>
      <trkpt lat="45.20142" lon="5.72455">
        <ele>518.018</ele>
        <time>2021-08-08T04:04:11Z</time>
      </trkpt>
      <trkpt lat="45.20147" lon="5.72458">
        <ele>519.827</ele>
        <time>2021-08-08T04:04:18Z</time>
      </trkpt>
      <trkpt lat="45.20152" lon="5.72462">
        <ele>521.523</ele>
        <time>2021-08-08T04:04:25Z</time>
      </trkpt>
      <trkpt lat="45.20156" lon="5.72467">
        <ele>524.521</ele>
        <time>2021-08-08T04:04:34Z</time>
      </trkpt>
      <trkpt lat="45.20158" lon="5.72471">
        <ele>525.621</ele>
        <time>2021-08-08T04:04:39Z</time>
      </trkpt>
      <trkpt lat="45.20161" lon="5.72472">
        <ele>527.479</ele>
        <time>2021-08-08T04:04:46Z</time>
      </trkpt>
      <trkpt lat="45.20166" lon="5.72477">
        <ele>528.698</ele>
        <time>2021-08-08T04:04:53Z</time>
      </trkpt>
      <trkpt lat="45.20166" lon="5.72478">
        <ele>528.94</ele>
        <time>2021-08-08T04:04:54Z</time>
      </trkpt>
      <trkpt lat="45.2017" lon="5.72485">
        <ele>530.857</ele>
        <time>2021-08-08T04:05:02Z</time>
      </trkpt>
      <trkpt lat="45.20172" lon="5.72486">
        <ele>531.649</ele>
        <time>2021-08-08T04:05:04Z</time>
      </trkpt>
      <trkpt lat="45.20177" lon="5.72493">
        <ele>534.129</ele>
        <time>2021-08-08T04:05:11Z</time>
      </trkpt>
      <trkpt lat="45.20182" lon="5.72495">
        <ele>535.651</ele>
        <time>2021-08-08T04:05:17Z</time>
      </trkpt>
      <trkpt lat="45.20187" lon="5.72502">
        <ele>536.754</ele>
        <time>2021-08-08T04:05:24Z</time>
      </trkpt>
      <trkpt lat="45.2019" lon="5.72505">
        <ele>537.574</ele>
        <time>2021-08-08T04:05:29Z</time>
      </trkpt>
      <trkpt lat="45.20198" lon="5.72514">
        <ele>539.247</ele>
        <time>2021-08-08T04:05:38Z</time>
      </trkpt>
      <trkpt lat="45.20205" lon="5.72521">
        <ele>541.023</ele>
        <time>2021-08-08T04:05:45Z</time>
      </trkpt>
      <trkpt lat="45.2021" lon="5.72523">
        <ele>542.582</ele>
        <time>2021-08-08T04:05:52Z</time>
      </trkpt>
      <trkpt lat="45.20215" lon="5.72522">
        <ele>543.637</ele>
        <time>2021-08-08T04:05:58Z</time>
      </trkpt>
      <trkpt lat="45.20224" lon="5.7252">
        <ele>545.83</ele>
        <time>2021-08-08T04:06:06Z</time>
      </trkpt>
      <trkpt lat="45.20227" lon="5.7252">
        <ele>547.624</ele>
        <time>2021-08-08T04:06:09Z</time>
      </trkpt>
      <trkpt lat="45.20229" lon="5.72521">
        <ele>548.46</ele>
        <time>2021-08-08T04:06:11Z</time>
      </trkpt>
      <trkpt lat="45.20236" lon="5.72519">
        <ele>550.473</ele>
        <time>2021-08-08T04:06:20Z</time>
      </trkpt>
      <trkpt lat="45.2024" lon="5.72519">
        <ele>552.208</ele>
        <time>2021-08-08T04:06:25Z</time>
      </trkpt>
      <trkpt lat="45.20244" lon="5.72519">
        <ele>553.51</ele>
        <time>2021-08-08T04:06:31Z</time>
      </trkpt>
      <trkpt lat="45.2025" lon="5.72518">
        <ele>554.676</ele>
        <time>2021-08-08T04:06:37Z</time>
      </trkpt>
      <trkpt lat="45.20253" lon="5.72515">
        <ele>556.04</ele>
        <time>2021-08-08T04:06:41Z</time>
      </trkpt>
      <trkpt lat="45.20263" lon="5.72517">
        <ele>557.432</ele>
        <time>2021-08-08T04:06:49Z</time>
      </trkpt>
      <trkpt lat="45.20268" lon="5.72517">
        <ele>559.746</ele>
        <time>2021-08-08T04:06:54Z</time>
      </trkpt>
      <trkpt lat="45.20274" lon="5.72515">
        <ele>561.504</ele>
        <time>2021-08-08T04:07:01Z</time>
      </trkpt>
      <trkpt lat="45.20282" lon="5.72517">
        <ele>563.806</ele>
        <time>2021-08-08T04:07:08Z</time>
      </trkpt>
      <trkpt lat="45.20284" lon="5.72517">
        <ele>563.73</ele>
        <time>2021-08-08T04:07:10Z</time>
      </trkpt>
      <trkpt lat="45.20291" lon="5.72516">
        <ele>564.385</ele>
        <time>2021-08-08T04:07:17Z</time>
      </trkpt>
      <trkpt lat="45.203" lon="5.72514">
        <ele>565.362</ele>
        <time>2021-08-08T04:07:26Z</time>
      </trkpt>
      <trkpt lat="45.20304" lon="5.72518">
        <ele>566.417</ele>
        <time>2021-08-08T04:07:31Z</time>
      </trkpt>
      <trkpt lat="45.20311" lon="5.72518">
        <ele>568.967</ele>
        <time>2021-08-08T04:07:39Z</time>
      </trkpt>
      <trkpt lat="45.20319" lon="5.72515">
        <ele>571.664</ele>
        <time>2021-08-08T04:07:47Z</time>
      </trkpt>
      <trkpt lat="45.2032" lon="5.72515">
        <ele>571.729</ele>
        <time>2021-08-08T04:07:48Z</time>
      </trkpt>
      <trkpt lat="45.20326" lon="5.72516">
        <ele>573.938</ele>
        <time>2021-08-08T04:07:55Z</time>
      </trkpt>
      <trkpt lat="45.20334" lon="5.72514">
        <ele>576.571</ele>
        <time>2021-08-08T04:08:06Z</time>
      </trkpt>
      <trkpt lat="45.20338" lon="5.72516">
        <ele>578.218</ele>
        <time>2021-08-08T04:08:12Z</time>
      </trkpt>
      <trkpt lat="45.20342" lon="5.72518">
        <ele>579.866</ele>
        <time>2021-08-08T04:08:18Z</time>
      </trkpt>
      <trkpt lat="45.20349" lon="5.72519">
        <ele>582.119</ele>
        <time>2021-08-08T04:08:27Z</time>
      </trkpt>
      <trkpt lat="45.20353" lon="5.72517">
        <ele>584.679</ele>
        <time>2021-08-08T04:08:36Z</time>
      </trkpt>
      <trkpt lat="45.20358" lon="5.72518">
        <ele>586.457</ele>
        <time>2021-08-08T04:08:44Z</time>
      </trkpt>
      <trkpt lat="45.20361" lon="5.7252">
        <ele>587.79</ele>
        <time>2021-08-08T04:08:51Z</time>
      </trkpt>
      <trkpt lat="45.20368" lon="5.72523">
        <ele>589.93</ele>
        <time>2021-08-08T04:08:59Z</time>
      </trkpt>
      <trkpt lat="45.20372" lon="5.72529">
        <ele>590.897</ele>
        <time>2021-08-08T04:09:06Z</time>
      </trkpt>
      <trkpt lat="45.20377" lon="5.72531">
        <ele>592.79</ele>
        <time>2021-08-08T04:09:12Z</time>
      </trkpt>
      <trkpt lat="45.20382" lon="5.72536">
        <ele>594.036</ele>
        <time>2021-08-08T04:09:18Z</time>
      </trkpt>
      <trkpt lat="45.20386" lon="5.72539">
        <ele>595.241</ele>
        <time>2021-08-08T04:09:24Z</time>
      </trkpt>
      <trkpt lat="45.2039" lon="5.72536">
        <ele>596.509</ele>
        <time>2021-08-08T04:09:31Z</time>
      </trkpt>
      <trkpt lat="45.20395" lon="5.72533">
        <ele>599.094</ele>
        <time>2021-08-08T04:09:39Z</time>
      </trkpt>
      <trkpt lat="45.204" lon="5.72537">
        <ele>600.421</ele>
        <time>2021-08-08T04:09:47Z</time>
      </trkpt>
      <trkpt lat="45.20406" lon="5.72535">
        <ele>602.851</ele>
        <time>2021-08-08T04:09:55Z</time>
      </trkpt>
      <trkpt lat="45.20409" lon="5.72533">
        <ele>604.367</ele>
        <time>2021-08-08T04:10:00Z</time>
      </trkpt>
      <trkpt lat="45.20414" lon="5.72529">
        <ele>605.501</ele>
        <time>2021-08-08T04:10:06Z</time>
      </trkpt>
      <trkpt lat="45.20419" lon="5.72525">
        <ele>607.455</ele>
        <time>2021-08-08T04:10:12Z</time>
      </trkpt>
      <trkpt lat="45.20421" lon="5.72519">
        <ele>609.08</ele>
        <time>2021-08-08T04:10:18Z</time>
      </trkpt>
      <trkpt lat="45.20424" lon="5.72515">
        <ele>610.49</ele>
        <time>2021-08-08T04:10:25Z</time>
      </trkpt>
      <trkpt lat="45.20428" lon="5.72513">
        <ele>613.013</ele>
        <time>2021-08-08T04:10:31Z</time>
      </trkpt>
      <trkpt lat="45.2043" lon="5.72513">
        <ele>615.084</ele>
        <time>2021-08-08T04:10:37Z</time>
      </trkpt>
      <trkpt lat="45.20438" lon="5.72511">
        <ele>616.078</ele>
        <time>2021-08-08T04:10:44Z</time>
      </trkpt>
      <trkpt lat="45.20439" lon="5.7251">
        <ele>615.962</ele>
        <time>2021-08-08T04:10:45Z</time>
      </trkpt>
      <trkpt lat="45.20447" lon="5.72512">
        <ele>616.483</ele>
        <time>2021-08-08T04:10:50Z</time>
      </trkpt>
      <trkpt lat="45.20457" lon="5.72528">
        <ele>618.568</ele>
        <time>2021-08-08T04:10:59Z</time>
      </trkpt>
      <trkpt lat="45.20461" lon="5.72535">
        <ele>619.387</ele>
        <time>2021-08-08T04:11:03Z</time>
      </trkpt>
      <trkpt lat="45.20468" lon="5.72547">
        <ele>620.959</ele>
        <time>2021-08-08T04:11:10Z</time>
      </trkpt>
      <trkpt lat="45.20477" lon="5.72558">
        <ele>622.248</ele>
        <time>2021-08-08T04:11:17Z</time>
      </trkpt>
      <trkpt lat="45.20478" lon="5.72559">
        <ele>622.223</ele>
        <time>2021-08-08T04:11:18Z</time>
      </trkpt>
      <trkpt lat="45.20481" lon="5.72563">
        <ele>622.829</ele>
        <time>2021-08-08T04:11:21Z</time>
      </trkpt>
      <trkpt lat="45.20488" lon="5.72557">
        <ele>623.553</ele>
        <time>2021-08-08T04:11:27Z</time>
      </trkpt>
      <trkpt lat="45.20486" lon="5.72548">
        <ele>625.012</ele>
        <time>2021-08-08T04:11:32Z</time>
      </trkpt>
      <trkpt lat="45.20484" lon="5.72534">
        <ele>627.427</ele>
        <time>2021-08-08T04:11:40Z</time>
      </trkpt>
      <trkpt lat="45.20483" lon="5.72529">
        <ele>627.783</ele>
        <time>2021-08-08T04:11:43Z</time>
      </trkpt>
      <trkpt lat="45.20486" lon="5.72508">
        <ele>628.921</ele>
        <time>2021-08-08T04:11:51Z</time>
      </trkpt>
      <trkpt lat="45.20484" lon="5.72499">
        <ele>628.013</ele>
        <time>2021-08-08T04:11:54Z</time>
      </trkpt>
      <trkpt lat="45.2048" lon="5.72491">
        <ele>628.152</ele>
        <time>2021-08-08T04:11:58Z</time>
      </trkpt>
      <trkpt lat="45.20475" lon="5.72471">
        <ele>630.031</ele>
        <time>2021-08-08T04:12:06Z</time>
      </trkpt>
      <trkpt lat="45.20474" lon="5.72469">
        <ele>630.266</ele>
        <time>2021-08-08T04:12:07Z</time>
      </trkpt>
      <trkpt lat="45.20475" lon="5.72461">
        <ele>631.066</ele>
        <time>2021-08-08T04:12:11Z</time>
      </trkpt>
      <trkpt lat="45.20474" lon="5.72444">
        <ele>632.68</ele>
        <time>2021-08-08T04:12:19Z</time>
      </trkpt>
      <trkpt lat="45.20474" lon="5.72436">
        <ele>633.493</ele>
        <time>2021-08-08T04:12:25Z</time>
      </trkpt>
      <trkpt lat="45.20476" lon="5.72441">
        <ele>632.839</ele>
        <time>2021-08-08T04:12:31Z</time>
      </trkpt>
      <trkpt lat="45.20476" lon="5.72439">
        <ele>632.498</ele>
        <time>2021-08-08T04:12:40Z</time>
      </trkpt>
      <trkpt lat="45.20475" lon="5.7244">
        <ele>632.872</ele>
        <time>2021-08-08T04:12:55Z</time>
      </trkpt>
      <trkpt lat="45.20475" lon="5.72441">
        <ele>633.116</ele>
        <time>2021-08-08T04:12:56Z</time>
      </trkpt>
      <trkpt lat="45.20479" lon="5.72466">
        <ele>629.897</ele>
        <time>2021-08-08T04:13:09Z</time>
      </trkpt>
      <trkpt lat="45.20482" lon="5.72486">
        <ele>627.665</ele>
        <time>2021-08-08T04:13:17Z</time>
      </trkpt>
      <trkpt lat="45.20486" lon="5.72503">
        <ele>627.882</ele>
        <time>2021-08-08T04:13:23Z</time>
      </trkpt>
      <trkpt lat="45.20486" lon="5.72508">
        <ele>628.379</ele>
        <time>2021-08-08T04:13:25Z</time>
      </trkpt>
      <trkpt lat="45.20498" lon="5.72533">
        <ele>629.801</ele>
        <time>2021-08-08T04:13:35Z</time>
      </trkpt>
      <trkpt lat="45.20509" lon="5.72553">
        <ele>630.007</ele>
        <time>2021-08-08T04:13:43Z</time>
      </trkpt>
      <trkpt lat="45.20519" lon="5.72559">
        <ele>628.654</ele>
        <time>2021-08-08T04:13:49Z</time>
      </trkpt>
      <trkpt lat="45.2052" lon="5.72559">
        <ele>628.821</ele>
        <time>2021-08-08T04:13:50Z</time>
      </trkpt>
      <trkpt lat="45.20529" lon="5.7256">
        <ele>627.006</ele>
        <time>2021-08-08T04:13:56Z</time>
      </trkpt>
      <trkpt lat="45.20547" lon="5.72556">
        <ele>627.725</ele>
        <time>2021-08-08T04:14:04Z</time>
      </trkpt>
      <trkpt lat="45.20554" lon="5.72556">
        <ele>628.711</ele>
        <time>2021-08-08T04:14:09Z</time>
      </trkpt>
      <trkpt lat="45.20567" lon="5.72564">
        <ele>630.236</ele>
        <time>2021-08-08T04:14:17Z</time>
      </trkpt>
      <trkpt lat="45.20573" lon="5.72564">
        <ele>630.169</ele>
        <time>2021-08-08T04:14:20Z</time>
      </trkpt>
      <trkpt lat="45.20582" lon="5.72572">
        <ele>631.503</ele>
        <time>2021-08-08T04:14:26Z</time>
      </trkpt>
      <trkpt lat="45.20592" lon="5.72582">
        <ele>631.664</ele>
        <time>2021-08-08T04:14:34Z</time>
      </trkpt>
      <trkpt lat="45.20601" lon="5.7259">
        <ele>632.405</ele>
        <time>2021-08-08T04:14:40Z</time>
      </trkpt>
      <trkpt lat="45.20616" lon="5.72598">
        <ele>634.117</ele>
        <time>2021-08-08T04:14:48Z</time>
      </trkpt>
      <trkpt lat="45.20626" lon="5.72602">
        <ele>635.576</ele>
        <time>2021-08-08T04:14:53Z</time>
      </trkpt>
      <trkpt lat="45.20638" lon="5.726">
        <ele>636.308</ele>
        <time>2021-08-08T04:15:00Z</time>
      </trkpt>
      <trkpt lat="45.20641" lon="5.72599">
        <ele>636.304</ele>
        <time>2021-08-08T04:15:02Z</time>
      </trkpt>
      <trkpt lat="45.2065" lon="5.72594">
        <ele>637.019</ele>
        <time>2021-08-08T04:15:07Z</time>
      </trkpt>
      <trkpt lat="45.2066" lon="5.72585">
        <ele>638.029</ele>
        <time>2021-08-08T04:15:15Z</time>
      </trkpt>
      <trkpt lat="45.20662" lon="5.72582">
        <ele>638.633</ele>
        <time>2021-08-08T04:15:17Z</time>
      </trkpt>
      <trkpt lat="45.20665" lon="5.72578">
        <ele>638.885</ele>
        <time>2021-08-08T04:15:20Z</time>
      </trkpt>
      <trkpt lat="45.20671" lon="5.72574">
        <ele>640.224</ele>
        <time>2021-08-08T04:15:26Z</time>
      </trkpt>
      <trkpt lat="45.20686" lon="5.7257">
        <ele>642.44</ele>
        <time>2021-08-08T04:15:35Z</time>
      </trkpt>
      <trkpt lat="45.20689" lon="5.72568">
        <ele>642.342</ele>
        <time>2021-08-08T04:15:37Z</time>
      </trkpt>
      <trkpt lat="45.20699" lon="5.72566">
        <ele>644.166</ele>
        <time>2021-08-08T04:15:45Z</time>
      </trkpt>
      <trkpt lat="45.20705" lon="5.72574">
        <ele>645.753</ele>
        <time>2021-08-08T04:15:54Z</time>
      </trkpt>
      <trkpt lat="45.20709" lon="5.72576">
        <ele>647.863</ele>
        <time>2021-08-08T04:16:00Z</time>
      </trkpt>
      <trkpt lat="45.20712" lon="5.72575">
        <ele>649.748</ele>
        <time>2021-08-08T04:16:04Z</time>
      </trkpt>
      <trkpt lat="45.20719" lon="5.72576">
        <ele>652.255</ele>
        <time>2021-08-08T04:16:11Z</time>
      </trkpt>
      <trkpt lat="45.2072" lon="5.72577">
        <ele>652.444</ele>
        <time>2021-08-08T04:16:12Z</time>
      </trkpt>
      <trkpt lat="45.20729" lon="5.72581">
        <ele>655.117</ele>
        <time>2021-08-08T04:16:22Z</time>
      </trkpt>
      <trkpt lat="45.20734" lon="5.7259">
        <ele>656.492</ele>
        <time>2021-08-08T04:16:29Z</time>
      </trkpt>
      <trkpt lat="45.20739" lon="5.72602">
        <ele>657.957</ele>
        <time>2021-08-08T04:16:36Z</time>
      </trkpt>
      <trkpt lat="45.2074" lon="5.72605">
        <ele>657.898</ele>
        <time>2021-08-08T04:16:39Z</time>
      </trkpt>
      <trkpt lat="45.2074" lon="5.72613">
        <ele>659.241</ele>
        <time>2021-08-08T04:16:46Z</time>
      </trkpt>
      <trkpt lat="45.20743" lon="5.72612">
        <ele>660.073</ele>
        <time>2021-08-08T04:16:50Z</time>
      </trkpt>
      <trkpt lat="45.20752" lon="5.72611">
        <ele>662.626</ele>
        <time>2021-08-08T04:16:58Z</time>
      </trkpt>
      <trkpt lat="45.20755" lon="5.7261">
        <ele>663.522</ele>
        <time>2021-08-08T04:17:01Z</time>
      </trkpt>
      <trkpt lat="45.20763" lon="5.72605">
        <ele>666.405</ele>
        <time>2021-08-08T04:17:09Z</time>
      </trkpt>
      <trkpt lat="45.20769" lon="5.72608">
        <ele>668.103</ele>
        <time>2021-08-08T04:17:16Z</time>
      </trkpt>
      <trkpt lat="45.20771" lon="5.72617">
        <ele>669.25</ele>
        <time>2021-08-08T04:17:22Z</time>
      </trkpt>
      <trkpt lat="45.20768" lon="5.72627">
        <ele>671.403</ele>
        <time>2021-08-08T04:17:29Z</time>
      </trkpt>
      <trkpt lat="45.2077" lon="5.72636">
        <ele>672.785</ele>
        <time>2021-08-08T04:17:35Z</time>
      </trkpt>
      <trkpt lat="45.2077" lon="5.72638">
        <ele>673.879</ele>
        <time>2021-08-08T04:17:37Z</time>
      </trkpt>
      <trkpt lat="45.20777" lon="5.72642">
        <ele>676.172</ele>
        <time>2021-08-08T04:17:44Z</time>
      </trkpt>
      <trkpt lat="45.20783" lon="5.72639">
        <ele>679.075</ele>
        <time>2021-08-08T04:17:52Z</time>
      </trkpt>
      <trkpt lat="45.20787" lon="5.72636">
        <ele>679.38</ele>
        <time>2021-08-08T04:17:57Z</time>
      </trkpt>
      <trkpt lat="45.20791" lon="5.72635">
        <ele>680.216</ele>
        <time>2021-08-08T04:18:01Z</time>
      </trkpt>
      <trkpt lat="45.20794" lon="5.72628">
        <ele>680.761</ele>
        <time>2021-08-08T04:18:07Z</time>
      </trkpt>
      <trkpt lat="45.20797" lon="5.72624">
        <ele>682.211</ele>
        <time>2021-08-08T04:18:13Z</time>
      </trkpt>
      <trkpt lat="45.20798" lon="5.72624">
        <ele>682.463</ele>
        <time>2021-08-08T04:18:14Z</time>
      </trkpt>
      <trkpt lat="45.20801" lon="5.72633">
        <ele>683.685</ele>
        <time>2021-08-08T04:18:21Z</time>
      </trkpt>
      <trkpt lat="45.20803" lon="5.72637">
        <ele>685.165</ele>
        <time>2021-08-08T04:18:28Z</time>
      </trkpt>
      <trkpt lat="45.20805" lon="5.72643">
        <ele>686.743</ele>
        <time>2021-08-08T04:18:34Z</time>
      </trkpt>
      <trkpt lat="45.20805" lon="5.72651">
        <ele>689.04</ele>
        <time>2021-08-08T04:18:41Z</time>
      </trkpt>
      <trkpt lat="45.20806" lon="5.72658">
        <ele>690.286</ele>
        <time>2021-08-08T04:18:46Z</time>
      </trkpt>
      <trkpt lat="45.20808" lon="5.72664">
        <ele>691.944</ele>
        <time>2021-08-08T04:18:53Z</time>
      </trkpt>
      <trkpt lat="45.20814" lon="5.72661">
        <ele>693.804</ele>
        <time>2021-08-08T04:19:00Z</time>
      </trkpt>
      <trkpt lat="45.20819" lon="5.72658">
        <ele>696.024</ele>
        <time>2021-08-08T04:19:07Z</time>
      </trkpt>
      <trkpt lat="45.20826" lon="5.72653">
        <ele>697.107</ele>
        <time>2021-08-08T04:19:13Z</time>
      </trkpt>
      <trkpt lat="45.20829" lon="5.72658">
        <ele>698.853</ele>
        <time>2021-08-08T04:19:19Z</time>
      </trkpt>
      <trkpt lat="45.20832" lon="5.72666">
        <ele>700.651</ele>
        <time>2021-08-08T04:19:25Z</time>
      </trkpt>
      <trkpt lat="45.20835" lon="5.72677">
        <ele>702.854</ele>
        <time>2021-08-08T04:19:34Z</time>
      </trkpt>
      <trkpt lat="45.20836" lon="5.72689">
        <ele>704.698</ele>
        <time>2021-08-08T04:19:42Z</time>
      </trkpt>
      <trkpt lat="45.20838" lon="5.72692">
        <ele>705.858</ele>
        <time>2021-08-08T04:19:48Z</time>
      </trkpt>
      <trkpt lat="45.20839" lon="5.72691">
        <ele>707.325</ele>
        <time>2021-08-08T04:19:51Z</time>
      </trkpt>
      <trkpt lat="45.20844" lon="5.72689">
        <ele>708.761</ele>
        <time>2021-08-08T04:19:58Z</time>
      </trkpt>
      <trkpt lat="45.20849" lon="5.72688">
        <ele>710.975</ele>
        <time>2021-08-08T04:20:05Z</time>
      </trkpt>
      <trkpt lat="45.20852" lon="5.72685">
        <ele>712.06</ele>
        <time>2021-08-08T04:20:11Z</time>
      </trkpt>
      <trkpt lat="45.20854" lon="5.72684">
        <ele>712.243</ele>
        <time>2021-08-08T04:20:12Z</time>
      </trkpt>
      <trkpt lat="45.20859" lon="5.72683">
        <ele>712.76</ele>
        <time>2021-08-08T04:20:16Z</time>
      </trkpt>
      <trkpt lat="45.2087" lon="5.72682">
        <ele>714.719</ele>
        <time>2021-08-08T04:20:25Z</time>
      </trkpt>
      <trkpt lat="45.20877" lon="5.72677">
        <ele>715.16</ele>
        <time>2021-08-08T04:20:32Z</time>
      </trkpt>
      <trkpt lat="45.20886" lon="5.72672">
        <ele>715.831</ele>
        <time>2021-08-08T04:20:40Z</time>
      </trkpt>
      <trkpt lat="45.20887" lon="5.72672">
        <ele>716.545</ele>
        <time>2021-08-08T04:20:42Z</time>
      </trkpt>
      <trkpt lat="45.20893" lon="5.7267">
        <ele>718.082</ele>
        <time>2021-08-08T04:20:47Z</time>
      </trkpt>
      <trkpt lat="45.209" lon="5.72668">
        <ele>720.755</ele>
        <time>2021-08-08T04:20:55Z</time>
      </trkpt>
      <trkpt lat="45.20907" lon="5.72666">
        <ele>723.117</ele>
        <time>2021-08-08T04:21:03Z</time>
      </trkpt>
      <trkpt lat="45.20909" lon="5.72666">
        <ele>723.501</ele>
        <time>2021-08-08T04:21:05Z</time>
      </trkpt>
      <trkpt lat="45.20918" lon="5.72674">
        <ele>725.199</ele>
        <time>2021-08-08T04:21:13Z</time>
      </trkpt>
      <trkpt lat="45.20923" lon="5.72676">
        <ele>726.402</ele>
        <time>2021-08-08T04:21:19Z</time>
      </trkpt>
      <trkpt lat="45.20931" lon="5.72681">
        <ele>728.767</ele>
        <time>2021-08-08T04:21:26Z</time>
      </trkpt>
      <trkpt lat="45.2094" lon="5.72689">
        <ele>729.797</ele>
        <time>2021-08-08T04:21:34Z</time>
      </trkpt>
      <trkpt lat="45.20942" lon="5.72697">
        <ele>731.558</ele>
        <time>2021-08-08T04:21:39Z</time>
      </trkpt>
      <trkpt lat="45.20945" lon="5.72703">
        <ele>733.014</ele>
        <time>2021-08-08T04:21:43Z</time>
      </trkpt>
      <trkpt lat="45.20949" lon="5.72707">
        <ele>734.119</ele>
        <time>2021-08-08T04:21:51Z</time>
      </trkpt>
      <trkpt lat="45.20957" lon="5.72712">
        <ele>735.902</ele>
        <time>2021-08-08T04:22:00Z</time>
      </trkpt>
      <trkpt lat="45.20961" lon="5.72716">
        <ele>739.107</ele>
        <time>2021-08-08T04:22:07Z</time>
      </trkpt>
      <trkpt lat="45.20971" lon="5.72725">
        <ele>740.932</ele>
        <time>2021-08-08T04:22:15Z</time>
      </trkpt>
      <trkpt lat="45.20972" lon="5.7273">
        <ele>743.534</ele>
        <time>2021-08-08T04:22:21Z</time>
      </trkpt>
      <trkpt lat="45.20976" lon="5.72737">
        <ele>744.576</ele>
        <time>2021-08-08T04:22:28Z</time>
      </trkpt>
      <trkpt lat="45.2098" lon="5.72744">
        <ele>745.629</ele>
        <time>2021-08-08T04:22:35Z</time>
      </trkpt>
      <trkpt lat="45.20984" lon="5.72749">
        <ele>747.358</ele>
        <time>2021-08-08T04:22:41Z</time>
      </trkpt>
      <trkpt lat="45.20988" lon="5.72757">
        <ele>750.037</ele>
        <time>2021-08-08T04:22:48Z</time>
      </trkpt>
      <trkpt lat="45.20991" lon="5.72754">
        <ele>752.497</ele>
        <time>2021-08-08T04:22:59Z</time>
      </trkpt>
      <trkpt lat="45.20992" lon="5.7275">
        <ele>753.634</ele>
        <time>2021-08-08T04:23:05Z</time>
      </trkpt>
      <trkpt lat="45.20998" lon="5.72751">
        <ele>755.703</ele>
        <time>2021-08-08T04:23:11Z</time>
      </trkpt>
      <trkpt lat="45.20999" lon="5.72744">
        <ele>758.7</ele>
        <time>2021-08-08T04:23:21Z</time>
      </trkpt>
      <trkpt lat="45.21003" lon="5.72742">
        <ele>760.578</ele>
        <time>2021-08-08T04:23:29Z</time>
      </trkpt>
      <trkpt lat="45.21008" lon="5.72739">
        <ele>762.195</ele>
        <time>2021-08-08T04:23:36Z</time>
      </trkpt>
      <trkpt lat="45.21013" lon="5.72738">
        <ele>763.908</ele>
        <time>2021-08-08T04:23:43Z</time>
      </trkpt>
      <trkpt lat="45.21017" lon="5.72737">
        <ele>764.901</ele>
        <time>2021-08-08T04:23:49Z</time>
      </trkpt>
      <trkpt lat="45.21018" lon="5.72736">
        <ele>765.909</ele>
        <time>2021-08-08T04:23:51Z</time>
      </trkpt>
      <trkpt lat="45.21025" lon="5.72738">
        <ele>768.036</ele>
        <time>2021-08-08T04:24:00Z</time>
      </trkpt>
      <trkpt lat="45.21028" lon="5.72739">
        <ele>768.686</ele>
        <time>2021-08-08T04:24:02Z</time>
      </trkpt>
      <trkpt lat="45.21031" lon="5.72739">
        <ele>769.913</ele>
        <time>2021-08-08T04:24:05Z</time>
      </trkpt>
      <trkpt lat="45.21035" lon="5.72737">
        <ele>772.007</ele>
        <time>2021-08-08T04:24:11Z</time>
      </trkpt>
      <trkpt lat="45.21041" lon="5.72737">
        <ele>773.33</ele>
        <time>2021-08-08T04:24:18Z</time>
      </trkpt>
      <trkpt lat="45.21044" lon="5.72741">
        <ele>773.926</ele>
        <time>2021-08-08T04:24:22Z</time>
      </trkpt>
      <trkpt lat="45.21049" lon="5.72756">
        <ele>774.95</ele>
        <time>2021-08-08T04:24:30Z</time>
      </trkpt>
      <trkpt lat="45.21051" lon="5.72762">
        <ele>775.244</ele>
        <time>2021-08-08T04:24:33Z</time>
      </trkpt>
      <trkpt lat="45.21056" lon="5.72779">
        <ele>775.686</ele>
        <time>2021-08-08T04:24:43Z</time>
      </trkpt>
      <trkpt lat="45.21061" lon="5.72786">
        <ele>775.588</ele>
        <time>2021-08-08T04:24:48Z</time>
      </trkpt>
      <trkpt lat="45.21066" lon="5.72803">
        <ele>775.835</ele>
        <time>2021-08-08T04:24:55Z</time>
      </trkpt>
      <trkpt lat="45.21073" lon="5.72816">
        <ele>776.131</ele>
        <time>2021-08-08T04:25:01Z</time>
      </trkpt>
      <trkpt lat="45.21083" lon="5.72832">
        <ele>777.562</ele>
        <time>2021-08-08T04:25:10Z</time>
      </trkpt>
      <trkpt lat="45.2109" lon="5.7284">
        <ele>779.013</ele>
        <time>2021-08-08T04:25:17Z</time>
      </trkpt>
      <trkpt lat="45.21096" lon="5.72846">
        <ele>779.636</ele>
        <time>2021-08-08T04:25:22Z</time>
      </trkpt>
      <trkpt lat="45.21104" lon="5.72857">
        <ele>781.439</ele>
        <time>2021-08-08T04:25:30Z</time>
      </trkpt>
      <trkpt lat="45.2111" lon="5.72867">
        <ele>782.694</ele>
        <time>2021-08-08T04:25:38Z</time>
      </trkpt>
      <trkpt lat="45.21121" lon="5.72873">
        <ele>784.011</ele>
        <time>2021-08-08T04:25:46Z</time>
      </trkpt>
      <trkpt lat="45.21125" lon="5.72876">
        <ele>786.672</ele>
        <time>2021-08-08T04:25:50Z</time>
      </trkpt>
      <trkpt lat="45.21135" lon="5.72878">
        <ele>789.006</ele>
        <time>2021-08-08T04:25:57Z</time>
      </trkpt>
      <trkpt lat="45.21146" lon="5.72883">
        <ele>791.747</ele>
        <time>2021-08-08T04:26:04Z</time>
      </trkpt>
      <trkpt lat="45.21155" lon="5.72888">
        <ele>792.631</ele>
        <time>2021-08-08T04:26:12Z</time>
      </trkpt>
      <trkpt lat="45.21163" lon="5.72892">
        <ele>793.731</ele>
        <time>2021-08-08T04:26:19Z</time>
      </trkpt>
      <trkpt lat="45.21172" lon="5.72896">
        <ele>795.515</ele>
        <time>2021-08-08T04:26:25Z</time>
      </trkpt>
      <trkpt lat="45.21181" lon="5.72901">
        <ele>798.552</ele>
        <time>2021-08-08T04:26:33Z</time>
      </trkpt>
      <trkpt lat="45.21188" lon="5.7291">
        <ele>799.577</ele>
        <time>2021-08-08T04:26:39Z</time>
      </trkpt>
      <trkpt lat="45.21193" lon="5.72917">
        <ele>800.125</ele>
        <time>2021-08-08T04:26:45Z</time>
      </trkpt>
      <trkpt lat="45.212" lon="5.72926">
        <ele>801.214</ele>
        <time>2021-08-08T04:26:53Z</time>
      </trkpt>
      <trkpt lat="45.21203" lon="5.72929">
        <ele>801.492</ele>
        <time>2021-08-08T04:26:55Z</time>
      </trkpt>
      <trkpt lat="45.21211" lon="5.72939">
        <ele>803.01</ele>
        <time>2021-08-08T04:27:04Z</time>
      </trkpt>
      <trkpt lat="45.21212" lon="5.72939">
        <ele>804.843</ele>
        <time>2021-08-08T04:27:09Z</time>
      </trkpt>
      <trkpt lat="45.21211" lon="5.72933">
        <ele>806.473</ele>
        <time>2021-08-08T04:27:15Z</time>
      </trkpt>
      <trkpt lat="45.21211" lon="5.72924">
        <ele>807.496</ele>
        <time>2021-08-08T04:27:22Z</time>
      </trkpt>
      <trkpt lat="45.21211" lon="5.72923">
        <ele>808.386</ele>
        <time>2021-08-08T04:27:23Z</time>
      </trkpt>
      <trkpt lat="45.21211" lon="5.72919">
        <ele>808.346</ele>
        <time>2021-08-08T04:27:25Z</time>
      </trkpt>
      <trkpt lat="45.21215" lon="5.72916">
        <ele>810.07</ele>
        <time>2021-08-08T04:27:32Z</time>
      </trkpt>
      <trkpt lat="45.21219" lon="5.72918">
        <ele>811.728</ele>
        <time>2021-08-08T04:27:39Z</time>
      </trkpt>
      <trkpt lat="45.21223" lon="5.72919">
        <ele>812.09</ele>
        <time>2021-08-08T04:27:42Z</time>
      </trkpt>
      <trkpt lat="45.21224" lon="5.72923">
        <ele>813.501</ele>
        <time>2021-08-08T04:27:45Z</time>
      </trkpt>
      <trkpt lat="45.21225" lon="5.72926">
        <ele>813.936</ele>
        <time>2021-08-08T04:27:47Z</time>
      </trkpt>
      <trkpt lat="45.21232" lon="5.72931">
        <ele>815.223</ele>
        <time>2021-08-08T04:27:55Z</time>
      </trkpt>
      <trkpt lat="45.2124" lon="5.72933">
        <ele>816.961</ele>
        <time>2021-08-08T04:28:04Z</time>
      </trkpt>
      <trkpt lat="45.21247" lon="5.72934">
        <ele>818.566</ele>
        <time>2021-08-08T04:28:11Z</time>
      </trkpt>
      <trkpt lat="45.21254" lon="5.7294">
        <ele>819.984</ele>
        <time>2021-08-08T04:28:19Z</time>
      </trkpt>
      <trkpt lat="45.21258" lon="5.72944">
        <ele>822.267</ele>
        <time>2021-08-08T04:28:27Z</time>
      </trkpt>
      <trkpt lat="45.21265" lon="5.72946">
        <ele>823.531</ele>
        <time>2021-08-08T04:28:34Z</time>
      </trkpt>
      <trkpt lat="45.2127" lon="5.7295">
        <ele>824.444</ele>
        <time>2021-08-08T04:28:38Z</time>
      </trkpt>
      <trkpt lat="45.21277" lon="5.72957">
        <ele>827.675</ele>
        <time>2021-08-08T04:28:45Z</time>
      </trkpt>
      <trkpt lat="45.21278" lon="5.72958">
        <ele>827.923</ele>
        <time>2021-08-08T04:28:46Z</time>
      </trkpt>
      <trkpt lat="45.21285" lon="5.72964">
        <ele>828.839</ele>
        <time>2021-08-08T04:28:53Z</time>
      </trkpt>
      <trkpt lat="45.21292" lon="5.72971">
        <ele>830.541</ele>
        <time>2021-08-08T04:29:01Z</time>
      </trkpt>
      <trkpt lat="45.21299" lon="5.72977">
        <ele>832.639</ele>
        <time>2021-08-08T04:29:08Z</time>
      </trkpt>
      <trkpt lat="45.21304" lon="5.72982">
        <ele>834.262</ele>
        <time>2021-08-08T04:29:15Z</time>
      </trkpt>
      <trkpt lat="45.2131" lon="5.72992">
        <ele>835.615</ele>
        <time>2021-08-08T04:29:22Z</time>
      </trkpt>
      <trkpt lat="45.21315" lon="5.73001">
        <ele>836.5</ele>
        <time>2021-08-08T04:29:29Z</time>
      </trkpt>
      <trkpt lat="45.21316" lon="5.73003">
        <ele>836.658</ele>
        <time>2021-08-08T04:29:31Z</time>
      </trkpt>
      <trkpt lat="45.21322" lon="5.73015">
        <ele>838.926</ele>
        <time>2021-08-08T04:29:39Z</time>
      </trkpt>
      <trkpt lat="45.2133" lon="5.7302">
        <ele>840.541</ele>
        <time>2021-08-08T04:29:44Z</time>
      </trkpt>
      <trkpt lat="45.21339" lon="5.73029">
        <ele>844.108</ele>
        <time>2021-08-08T04:29:53Z</time>
      </trkpt>
      <trkpt lat="45.21346" lon="5.73039">
        <ele>846.281</ele>
        <time>2021-08-08T04:30:02Z</time>
      </trkpt>
      <trkpt lat="45.2135" lon="5.73044">
        <ele>847.099</ele>
        <time>2021-08-08T04:30:08Z</time>
      </trkpt>
      <trkpt lat="45.21355" lon="5.73051">
        <ele>849.026</ele>
        <time>2021-08-08T04:30:15Z</time>
      </trkpt>
      <trkpt lat="45.21356" lon="5.73053">
        <ele>850.357</ele>
        <time>2021-08-08T04:30:16Z</time>
      </trkpt>
      <trkpt lat="45.2136" lon="5.73058">
        <ele>851.55</ele>
        <time>2021-08-08T04:30:20Z</time>
      </trkpt>
      <trkpt lat="45.21366" lon="5.73065">
        <ele>852.714</ele>
        <time>2021-08-08T04:30:26Z</time>
      </trkpt>
      <trkpt lat="45.21374" lon="5.73077">
        <ele>853.031</ele>
        <time>2021-08-08T04:30:34Z</time>
      </trkpt>
      <trkpt lat="45.21382" lon="5.73086">
        <ele>853.492</ele>
        <time>2021-08-08T04:30:39Z</time>
      </trkpt>
      <trkpt lat="45.21385" lon="5.7309">
        <ele>853.883</ele>
        <time>2021-08-08T04:30:42Z</time>
      </trkpt>
      <trkpt lat="45.21396" lon="5.73105">
        <ele>855.087</ele>
        <time>2021-08-08T04:30:51Z</time>
      </trkpt>
      <trkpt lat="45.21405" lon="5.73118">
        <ele>855.506</ele>
        <time>2021-08-08T04:30:58Z</time>
      </trkpt>
      <trkpt lat="45.21413" lon="5.73133">
        <ele>857.858</ele>
        <time>2021-08-08T04:31:06Z</time>
      </trkpt>
      <trkpt lat="45.2142" lon="5.73141">
        <ele>858.694</ele>
        <time>2021-08-08T04:31:12Z</time>
      </trkpt>
      <trkpt lat="45.21426" lon="5.73145">
        <ele>860.336</ele>
        <time>2021-08-08T04:31:18Z</time>
      </trkpt>
      <trkpt lat="45.21436" lon="5.7315">
        <ele>861.915</ele>
        <time>2021-08-08T04:31:26Z</time>
      </trkpt>
      <trkpt lat="45.21447" lon="5.73153">
        <ele>863.562</ele>
        <time>2021-08-08T04:31:33Z</time>
      </trkpt>
      <trkpt lat="45.21455" lon="5.73158">
        <ele>864.307</ele>
        <time>2021-08-08T04:31:38Z</time>
      </trkpt>
      <trkpt lat="45.21463" lon="5.73168">
        <ele>867.401</ele>
        <time>2021-08-08T04:31:46Z</time>
      </trkpt>
      <trkpt lat="45.21468" lon="5.73177">
        <ele>869.739</ele>
        <time>2021-08-08T04:31:52Z</time>
      </trkpt>
      <trkpt lat="45.21472" lon="5.73185">
        <ele>871.508</ele>
        <time>2021-08-08T04:31:59Z</time>
      </trkpt>
      <trkpt lat="45.21474" lon="5.73191">
        <ele>873.819</ele>
        <time>2021-08-08T04:32:03Z</time>
      </trkpt>
      <trkpt lat="45.21475" lon="5.73193">
        <ele>873.872</ele>
        <time>2021-08-08T04:32:04Z</time>
      </trkpt>
      <trkpt lat="45.21474" lon="5.73211">
        <ele>874.268</ele>
        <time>2021-08-08T04:32:11Z</time>
      </trkpt>
      <trkpt lat="45.2148" lon="5.73224">
        <ele>874.561</ele>
        <time>2021-08-08T04:32:17Z</time>
      </trkpt>
      <trkpt lat="45.21483" lon="5.73228">
        <ele>874.932</ele>
        <time>2021-08-08T04:32:20Z</time>
      </trkpt>
      <trkpt lat="45.21489" lon="5.73232">
        <ele>876.419</ele>
        <time>2021-08-08T04:32:24Z</time>
      </trkpt>
      <trkpt lat="45.21494" lon="5.73238">
        <ele>877.558</ele>
        <time>2021-08-08T04:32:31Z</time>
      </trkpt>
      <trkpt lat="45.215" lon="5.73244">
        <ele>878.766</ele>
        <time>2021-08-08T04:32:37Z</time>
      </trkpt>
      <trkpt lat="45.2151" lon="5.73258">
        <ele>880.259</ele>
        <time>2021-08-08T04:32:45Z</time>
      </trkpt>
      <trkpt lat="45.21512" lon="5.73271">
        <ele>880.453</ele>
        <time>2021-08-08T04:32:51Z</time>
      </trkpt>
      <trkpt lat="45.21511" lon="5.73283">
        <ele>880.707</ele>
        <time>2021-08-08T04:32:57Z</time>
      </trkpt>
      <trkpt lat="45.2151" lon="5.73287">
        <ele>880.626</ele>
        <time>2021-08-08T04:33:00Z</time>
      </trkpt>
      <trkpt lat="45.21511" lon="5.7329">
        <ele>880.661</ele>
        <time>2021-08-08T04:33:02Z</time>
      </trkpt>
      <trkpt lat="45.21513" lon="5.73303">
        <ele>881.47</ele>
        <time>2021-08-08T04:33:10Z</time>
      </trkpt>
      <trkpt lat="45.21513" lon="5.73311">
        <ele>882.072</ele>
        <time>2021-08-08T04:33:15Z</time>
      </trkpt>
      <trkpt lat="45.21525" lon="5.73314">
        <ele>883.066</ele>
        <time>2021-08-08T04:33:22Z</time>
      </trkpt>
      <trkpt lat="45.21535" lon="5.73318">
        <ele>886.213</ele>
        <time>2021-08-08T04:33:29Z</time>
      </trkpt>
      <trkpt lat="45.21539" lon="5.73317">
        <ele>886.566</ele>
        <time>2021-08-08T04:33:32Z</time>
      </trkpt>
      <trkpt lat="45.21543" lon="5.73318">
        <ele>887.256</ele>
        <time>2021-08-08T04:33:35Z</time>
      </trkpt>
      <trkpt lat="45.21549" lon="5.7332">
        <ele>888.698</ele>
        <time>2021-08-08T04:33:41Z</time>
      </trkpt>
      <trkpt lat="45.21557" lon="5.73324">
        <ele>889.777</ele>
        <time>2021-08-08T04:33:48Z</time>
      </trkpt>
      <trkpt lat="45.21562" lon="5.73325">
        <ele>890.757</ele>
        <time>2021-08-08T04:33:51Z</time>
      </trkpt>
      <trkpt lat="45.21572" lon="5.73334">
        <ele>891.767</ele>
        <time>2021-08-08T04:33:57Z</time>
      </trkpt>
      <trkpt lat="45.21582" lon="5.73338">
        <ele>893.287</ele>
        <time>2021-08-08T04:34:03Z</time>
      </trkpt>
      <trkpt lat="45.21588" lon="5.73341">
        <ele>893.529</ele>
        <time>2021-08-08T04:34:07Z</time>
      </trkpt>
      <trkpt lat="45.2159" lon="5.73346">
        <ele>893.916</ele>
        <time>2021-08-08T04:34:09Z</time>
      </trkpt>
      <trkpt lat="45.21593" lon="5.73354">
        <ele>895.638</ele>
        <time>2021-08-08T04:34:13Z</time>
      </trkpt>
      <trkpt lat="45.21597" lon="5.73357">
        <ele>895.907</ele>
        <time>2021-08-08T04:34:15Z</time>
      </trkpt>
      <trkpt lat="45.21609" lon="5.7337">
        <ele>898.79</ele>
        <time>2021-08-08T04:34:25Z</time>
      </trkpt>
      <trkpt lat="45.21618" lon="5.73378">
        <ele>901.255</ele>
        <time>2021-08-08T04:34:33Z</time>
      </trkpt>
      <trkpt lat="45.21624" lon="5.73381">
        <ele>902.399</ele>
        <time>2021-08-08T04:34:37Z</time>
      </trkpt>
      <trkpt lat="45.21631" lon="5.73388">
        <ele>904.053</ele>
        <time>2021-08-08T04:34:44Z</time>
      </trkpt>
      <trkpt lat="45.21641" lon="5.73398">
        <ele>904.747</ele>
        <time>2021-08-08T04:34:52Z</time>
      </trkpt>
      <trkpt lat="45.21648" lon="5.73411">
        <ele>906.152</ele>
        <time>2021-08-08T04:34:59Z</time>
      </trkpt>
      <trkpt lat="45.2165" lon="5.73416">
        <ele>905.39</ele>
        <time>2021-08-08T04:35:02Z</time>
      </trkpt>
      <trkpt lat="45.21658" lon="5.73439">
        <ele>908.455</ele>
        <time>2021-08-08T04:35:12Z</time>
      </trkpt>
      <trkpt lat="45.21663" lon="5.73457">
        <ele>909.193</ele>
        <time>2021-08-08T04:35:19Z</time>
      </trkpt>
      <trkpt lat="45.21664" lon="5.73462">
        <ele>909.983</ele>
        <time>2021-08-08T04:35:21Z</time>
      </trkpt>
      <trkpt lat="45.21668" lon="5.73475">
        <ele>910.421</ele>
        <time>2021-08-08T04:35:28Z</time>
      </trkpt>
      <trkpt lat="45.21668" lon="5.73479">
        <ele>910.864</ele>
        <time>2021-08-08T04:35:51Z</time>
      </trkpt>
      <trkpt lat="45.21671" lon="5.73485">
        <ele>911.002</ele>
        <time>2021-08-08T04:35:55Z</time>
      </trkpt>
      <trkpt lat="45.21672" lon="5.7349">
        <ele>911.768</ele>
        <time>2021-08-08T04:36:02Z</time>
      </trkpt>
      <trkpt lat="45.21674" lon="5.73483">
        <ele>911.84</ele>
        <time>2021-08-08T04:36:32Z</time>
      </trkpt>
      <trkpt lat="45.21676" lon="5.7348">
        <ele>912.601</ele>
        <time>2021-08-08T04:36:39Z</time>
      </trkpt>
      <trkpt lat="45.21676" lon="5.73484">
        <ele>911.625</ele>
        <time>2021-08-08T04:36:45Z</time>
      </trkpt>
      <trkpt lat="45.21674" lon="5.7348">
        <ele>911.993</ele>
        <time>2021-08-08T04:37:01Z</time>
      </trkpt>
      <trkpt lat="45.21675" lon="5.73475">
        <ele>912.339</ele>
        <time>2021-08-08T04:37:15Z</time>
      </trkpt>
      <trkpt lat="45.21675" lon="5.73471">
        <ele>914.087</ele>
        <time>2021-08-08T04:37:22Z</time>
      </trkpt>
      <trkpt lat="45.21672" lon="5.73474">
        <ele>913.446</ele>
        <time>2021-08-08T04:37:43Z</time>
      </trkpt>
      <trkpt lat="45.21672" lon="5.7347">
        <ele>913.972</ele>
        <time>2021-08-08T04:38:04Z</time>
      </trkpt>
      <trkpt lat="45.21671" lon="5.73467">
        <ele>913.913</ele>
        <time>2021-08-08T04:38:06Z</time>
      </trkpt>
      <trkpt lat="45.2167" lon="5.7346">
        <ele>914.557</ele>
        <time>2021-08-08T04:38:10Z</time>
      </trkpt>
      <trkpt lat="45.21672" lon="5.73445">
        <ele>915.44</ele>
        <time>2021-08-08T04:38:19Z</time>
      </trkpt>
      <trkpt lat="45.21676" lon="5.73432">
        <ele>917.328</ele>
        <time>2021-08-08T04:38:28Z</time>
      </trkpt>
      <trkpt lat="45.21674" lon="5.73419">
        <ele>920.343</ele>
        <time>2021-08-08T04:38:36Z</time>
      </trkpt>
      <trkpt lat="45.21674" lon="5.73416">
        <ele>921.93</ele>
        <time>2021-08-08T04:38:39Z</time>
      </trkpt>
      <trkpt lat="45.2167" lon="5.7341">
        <ele>922.947</ele>
        <time>2021-08-08T04:38:46Z</time>
      </trkpt>
      <trkpt lat="45.21669" lon="5.73404">
        <ele>923.829</ele>
        <time>2021-08-08T04:38:50Z</time>
      </trkpt>
      <trkpt lat="45.2167" lon="5.73393">
        <ele>924.805</ele>
        <time>2021-08-08T04:38:56Z</time>
      </trkpt>
      <trkpt lat="45.21667" lon="5.73384">
        <ele>926.571</ele>
        <time>2021-08-08T04:39:01Z</time>
      </trkpt>
      <trkpt lat="45.21665" lon="5.73373">
        <ele>928.317</ele>
        <time>2021-08-08T04:39:07Z</time>
      </trkpt>
      <trkpt lat="45.21661" lon="5.73361">
        <ele>930</ele>
        <time>2021-08-08T04:39:16Z</time>
      </trkpt>
      <trkpt lat="45.21653" lon="5.73362">
        <ele>932.142</ele>
        <time>2021-08-08T04:39:21Z</time>
      </trkpt>
      <trkpt lat="45.21647" lon="5.73361">
        <ele>932.891</ele>
        <time>2021-08-08T04:39:27Z</time>
      </trkpt>
      <trkpt lat="45.21642" lon="5.73361">
        <ele>934.222</ele>
        <time>2021-08-08T04:39:30Z</time>
      </trkpt>
      <trkpt lat="45.21643" lon="5.73341">
        <ele>936.346</ele>
        <time>2021-08-08T04:39:38Z</time>
      </trkpt>
      <trkpt lat="45.21643" lon="5.73333">
        <ele>937.154</ele>
        <time>2021-08-08T04:39:44Z</time>
      </trkpt>
      <trkpt lat="45.2164" lon="5.73326">
        <ele>939.267</ele>
        <time>2021-08-08T04:39:50Z</time>
      </trkpt>
      <trkpt lat="45.2164" lon="5.73317">
        <ele>940.876</ele>
        <time>2021-08-08T04:39:54Z</time>
      </trkpt>
      <trkpt lat="45.21641" lon="5.73303">
        <ele>942.486</ele>
        <time>2021-08-08T04:40:00Z</time>
      </trkpt>
      <trkpt lat="45.21639" lon="5.7329">
        <ele>943.32</ele>
        <time>2021-08-08T04:40:08Z</time>
      </trkpt>
      <trkpt lat="45.21632" lon="5.73275">
        <ele>944.381</ele>
        <time>2021-08-08T04:40:17Z</time>
      </trkpt>
      <trkpt lat="45.21625" lon="5.7326">
        <ele>947.059</ele>
        <time>2021-08-08T04:40:26Z</time>
      </trkpt>
      <trkpt lat="45.21624" lon="5.73258">
        <ele>948.305</ele>
        <time>2021-08-08T04:40:27Z</time>
      </trkpt>
      <trkpt lat="45.21614" lon="5.73245">
        <ele>950.453</ele>
        <time>2021-08-08T04:40:38Z</time>
      </trkpt>
      <trkpt lat="45.21614" lon="5.73242">
        <ele>951.343</ele>
        <time>2021-08-08T04:40:40Z</time>
      </trkpt>
      <trkpt lat="45.2161" lon="5.73235">
        <ele>953.149</ele>
        <time>2021-08-08T04:40:48Z</time>
      </trkpt>
      <trkpt lat="45.21607" lon="5.7323">
        <ele>954.185</ele>
        <time>2021-08-08T04:40:54Z</time>
      </trkpt>
      <trkpt lat="45.21605" lon="5.73224">
        <ele>955.655</ele>
        <time>2021-08-08T04:41:00Z</time>
      </trkpt>
      <trkpt lat="45.21602" lon="5.73218">
        <ele>957.45</ele>
        <time>2021-08-08T04:41:06Z</time>
      </trkpt>
      <trkpt lat="45.21592" lon="5.73207">
        <ele>959.352</ele>
        <time>2021-08-08T04:41:15Z</time>
      </trkpt>
      <trkpt lat="45.21582" lon="5.73199">
        <ele>961.015</ele>
        <time>2021-08-08T04:41:23Z</time>
      </trkpt>
      <trkpt lat="45.21575" lon="5.73192">
        <ele>962.143</ele>
        <time>2021-08-08T04:41:30Z</time>
      </trkpt>
      <trkpt lat="45.21569" lon="5.73185">
        <ele>963.82</ele>
        <time>2021-08-08T04:41:37Z</time>
      </trkpt>
      <trkpt lat="45.21567" lon="5.73178">
        <ele>965.596</ele>
        <time>2021-08-08T04:41:43Z</time>
      </trkpt>
      <trkpt lat="45.21567" lon="5.73176">
        <ele>966.301</ele>
        <time>2021-08-08T04:41:45Z</time>
      </trkpt>
      <trkpt lat="45.21567" lon="5.73173">
        <ele>967.594</ele>
        <time>2021-08-08T04:41:47Z</time>
      </trkpt>
      <trkpt lat="45.21569" lon="5.7316">
        <ele>969.563</ele>
        <time>2021-08-08T04:41:55Z</time>
      </trkpt>
      <trkpt lat="45.21575" lon="5.73157">
        <ele>971.602</ele>
        <time>2021-08-08T04:42:02Z</time>
      </trkpt>
      <trkpt lat="45.21572" lon="5.73153">
        <ele>972.555</ele>
        <time>2021-08-08T04:42:09Z</time>
      </trkpt>
      <trkpt lat="45.21574" lon="5.73148">
        <ele>974.446</ele>
        <time>2021-08-08T04:42:14Z</time>
      </trkpt>
      <trkpt lat="45.21575" lon="5.73144">
        <ele>976.093</ele>
        <time>2021-08-08T04:42:20Z</time>
      </trkpt>
      <trkpt lat="45.21579" lon="5.73138">
        <ele>978.629</ele>
        <time>2021-08-08T04:42:27Z</time>
      </trkpt>
      <trkpt lat="45.2158" lon="5.73136">
        <ele>979.29</ele>
        <time>2021-08-08T04:42:29Z</time>
      </trkpt>
      <trkpt lat="45.21578" lon="5.73132">
        <ele>981.451</ele>
        <time>2021-08-08T04:42:37Z</time>
      </trkpt>
      <trkpt lat="45.21578" lon="5.73131">
        <ele>981.213</ele>
        <time>2021-08-08T04:42:38Z</time>
      </trkpt>
      <trkpt lat="45.2158" lon="5.7312">
        <ele>982.902</ele>
        <time>2021-08-08T04:42:46Z</time>
      </trkpt>
      <trkpt lat="45.21583" lon="5.73118">
        <ele>983.864</ele>
        <time>2021-08-08T04:42:49Z</time>
      </trkpt>
      <trkpt lat="45.21588" lon="5.73113">
        <ele>984.666</ele>
        <time>2021-08-08T04:42:53Z</time>
      </trkpt>
      <trkpt lat="45.21595" lon="5.73117">
        <ele>985.699</ele>
        <time>2021-08-08T04:43:00Z</time>
      </trkpt>
      <trkpt lat="45.216" lon="5.7312">
        <ele>987.397</ele>
        <time>2021-08-08T04:43:06Z</time>
      </trkpt>
      <trkpt lat="45.21608" lon="5.73122">
        <ele>989.027</ele>
        <time>2021-08-08T04:43:12Z</time>
      </trkpt>
      <trkpt lat="45.21614" lon="5.73126">
        <ele>989.985</ele>
        <time>2021-08-08T04:43:18Z</time>
      </trkpt>
      <trkpt lat="45.2162" lon="5.73131">
        <ele>991.314</ele>
        <time>2021-08-08T04:43:25Z</time>
      </trkpt>
      <trkpt lat="45.21627" lon="5.73132">
        <ele>993.814</ele>
        <time>2021-08-08T04:43:33Z</time>
      </trkpt>
      <trkpt lat="45.21629" lon="5.73132">
        <ele>993.829</ele>
        <time>2021-08-08T04:43:35Z</time>
      </trkpt>
      <trkpt lat="45.21634" lon="5.7313">
        <ele>995.393</ele>
        <time>2021-08-08T04:43:39Z</time>
      </trkpt>
      <trkpt lat="45.21642" lon="5.7313">
        <ele>998.361</ele>
        <time>2021-08-08T04:43:48Z</time>
      </trkpt>
      <trkpt lat="45.21645" lon="5.7313">
        <ele>999.56</ele>
        <time>2021-08-08T04:43:52Z</time>
      </trkpt>
      <trkpt lat="45.21652" lon="5.73131">
        <ele>1000.132</ele>
        <time>2021-08-08T04:43:58Z</time>
      </trkpt>
      <trkpt lat="45.21658" lon="5.73129">
        <ele>1002.08</ele>
        <time>2021-08-08T04:44:06Z</time>
      </trkpt>
      <trkpt lat="45.2166" lon="5.73132">
        <ele>1003.361</ele>
        <time>2021-08-08T04:44:09Z</time>
      </trkpt>
      <trkpt lat="45.21667" lon="5.73135">
        <ele>1005.086</ele>
        <time>2021-08-08T04:44:15Z</time>
      </trkpt>
      <trkpt lat="45.21671" lon="5.73137">
        <ele>1006.614</ele>
        <time>2021-08-08T04:44:21Z</time>
      </trkpt>
      <trkpt lat="45.21673" lon="5.73141">
        <ele>1007.001</ele>
        <time>2021-08-08T04:44:25Z</time>
      </trkpt>
      <trkpt lat="45.21676" lon="5.73152">
        <ele>1008.852</ele>
        <time>2021-08-08T04:44:34Z</time>
      </trkpt>
      <trkpt lat="45.21677" lon="5.73154">
        <ele>1008.939</ele>
        <time>2021-08-08T04:44:36Z</time>
      </trkpt>
      <trkpt lat="45.21682" lon="5.73163">
        <ele>1011.063</ele>
        <time>2021-08-08T04:44:44Z</time>
      </trkpt>
      <trkpt lat="45.21684" lon="5.73167">
        <ele>1014.205</ele>
        <time>2021-08-08T04:44:50Z</time>
      </trkpt>
      <trkpt lat="45.21688" lon="5.73173">
        <ele>1015.577</ele>
        <time>2021-08-08T04:44:56Z</time>
      </trkpt>
      <trkpt lat="45.21693" lon="5.73181">
        <ele>1016.241</ele>
        <time>2021-08-08T04:45:02Z</time>
      </trkpt>
      <trkpt lat="45.21695" lon="5.73183">
        <ele>1017.233</ele>
        <time>2021-08-08T04:45:04Z</time>
      </trkpt>
      <trkpt lat="45.21701" lon="5.73193">
        <ele>1017.869</ele>
        <time>2021-08-08T04:45:12Z</time>
      </trkpt>
      <trkpt lat="45.21707" lon="5.73205">
        <ele>1018.338</ele>
        <time>2021-08-08T04:45:19Z</time>
      </trkpt>
      <trkpt lat="45.21712" lon="5.73213">
        <ele>1018.63</ele>
        <time>2021-08-08T04:45:26Z</time>
      </trkpt>
      <trkpt lat="45.21714" lon="5.73219">
        <ele>1018.63</ele>
        <time>2021-08-08T04:45:35Z</time>
      </trkpt>
      <trkpt lat="45.21716" lon="5.73221">
        <ele>1018.917</ele>
        <time>2021-08-08T04:45:47Z</time>
      </trkpt>
      <trkpt lat="45.21717" lon="5.73222">
        <ele>1018.924</ele>
        <time>2021-08-08T04:45:59Z</time>
      </trkpt>
      <trkpt lat="45.21718" lon="5.73225">
        <ele>1018.489</ele>
        <time>2021-08-08T04:46:10Z</time>
      </trkpt>
      <trkpt lat="45.21714" lon="5.73225">
        <ele>1018.573</ele>
        <time>2021-08-08T04:46:18Z</time>
      </trkpt>
      <trkpt lat="45.21715" lon="5.73223">
        <ele>1018.813</ele>
        <time>2021-08-08T04:46:26Z</time>
      </trkpt>
      <trkpt lat="45.21717" lon="5.73222">
        <ele>1018.348</ele>
        <time>2021-08-08T04:46:36Z</time>
      </trkpt>
      <trkpt lat="45.21715" lon="5.7322">
        <ele>1018.688</ele>
        <time>2021-08-08T04:46:54Z</time>
      </trkpt>
      <trkpt lat="45.21713" lon="5.73217">
        <ele>1018.563</ele>
        <time>2021-08-08T04:47:20Z</time>
      </trkpt>
      <trkpt lat="45.21717" lon="5.73215">
        <ele>1018.293</ele>
        <time>2021-08-08T04:47:30Z</time>
      </trkpt>
      <trkpt lat="45.2172" lon="5.73217">
        <ele>1019.832</ele>
        <time>2021-08-08T04:47:35Z</time>
      </trkpt>
      <trkpt lat="45.21725" lon="5.73218">
        <ele>1021.16</ele>
        <time>2021-08-08T04:47:41Z</time>
      </trkpt>
      <trkpt lat="45.21726" lon="5.73219">
        <ele>1021.309</ele>
        <time>2021-08-08T04:47:42Z</time>
      </trkpt>
      <trkpt lat="45.21731" lon="5.73215">
        <ele>1022.665</ele>
        <time>2021-08-08T04:47:49Z</time>
      </trkpt>
      <trkpt lat="45.21734" lon="5.7321">
        <ele>1024.366</ele>
        <time>2021-08-08T04:47:55Z</time>
      </trkpt>
      <trkpt lat="45.21735" lon="5.73207">
        <ele>1025.418</ele>
        <time>2021-08-08T04:47:57Z</time>
      </trkpt>
      <trkpt lat="45.21741" lon="5.73201">
        <ele>1025.016</ele>
        <time>2021-08-08T04:48:04Z</time>
      </trkpt>
      <trkpt lat="45.21748" lon="5.73199">
        <ele>1022.579</ele>
        <time>2021-08-08T04:48:12Z</time>
      </trkpt>
      <trkpt lat="45.21753" lon="5.73204">
        <ele>1023.58</ele>
        <time>2021-08-08T04:48:17Z</time>
      </trkpt>
      <trkpt lat="45.21756" lon="5.73209">
        <ele>1025.852</ele>
        <time>2021-08-08T04:48:22Z</time>
      </trkpt>
      <trkpt lat="45.21757" lon="5.73214">
        <ele>1026.002</ele>
        <time>2021-08-08T04:48:31Z</time>
      </trkpt>
      <trkpt lat="45.21761" lon="5.73219">
        <ele>1027.187</ele>
        <time>2021-08-08T04:48:37Z</time>
      </trkpt>
      <trkpt lat="45.21763" lon="5.73221">
        <ele>1027.187</ele>
        <time>2021-08-08T04:48:40Z</time>
      </trkpt>
      <trkpt lat="45.21769" lon="5.73228">
        <ele>1026.684</ele>
        <time>2021-08-08T04:48:49Z</time>
      </trkpt>
      <trkpt lat="45.21777" lon="5.7324">
        <ele>1027.9</ele>
        <time>2021-08-08T04:48:57Z</time>
      </trkpt>
      <trkpt lat="45.21782" lon="5.7325">
        <ele>1029.496</ele>
        <time>2021-08-08T04:49:06Z</time>
      </trkpt>
      <trkpt lat="45.21782" lon="5.73257">
        <ele>1030.832</ele>
        <time>2021-08-08T04:49:10Z</time>
      </trkpt>
      <trkpt lat="45.2178" lon="5.73271">
        <ele>1031.616</ele>
        <time>2021-08-08T04:49:18Z</time>
      </trkpt>
      <trkpt lat="45.21783" lon="5.73272">
        <ele>1033.168</ele>
        <time>2021-08-08T04:49:23Z</time>
      </trkpt>
      <trkpt lat="45.21788" lon="5.73276">
        <ele>1034.217</ele>
        <time>2021-08-08T04:49:29Z</time>
      </trkpt>
      <trkpt lat="45.21799" lon="5.73288">
        <ele>1037.393</ele>
        <time>2021-08-08T04:49:39Z</time>
      </trkpt>
      <trkpt lat="45.21808" lon="5.73297">
        <ele>1038.359</ele>
        <time>2021-08-08T04:49:45Z</time>
      </trkpt>
      <trkpt lat="45.21816" lon="5.73306">
        <ele>1040.093</ele>
        <time>2021-08-08T04:49:52Z</time>
      </trkpt>
      <trkpt lat="45.21823" lon="5.73315">
        <ele>1042.171</ele>
        <time>2021-08-08T04:49:59Z</time>
      </trkpt>
      <trkpt lat="45.21831" lon="5.73323">
        <ele>1043.816</ele>
        <time>2021-08-08T04:50:06Z</time>
      </trkpt>
      <trkpt lat="45.21842" lon="5.73335">
        <ele>1044.719</ele>
        <time>2021-08-08T04:50:14Z</time>
      </trkpt>
      <trkpt lat="45.21845" lon="5.7334">
        <ele>1044.693</ele>
        <time>2021-08-08T04:50:21Z</time>
      </trkpt>
      <trkpt lat="45.21844" lon="5.73344">
        <ele>1044.877</ele>
        <time>2021-08-08T04:50:24Z</time>
      </trkpt>
      <trkpt lat="45.21842" lon="5.73352">
        <ele>1044.441</ele>
        <time>2021-08-08T04:50:32Z</time>
      </trkpt>
      <trkpt lat="45.21842" lon="5.73355">
        <ele>1044.704</ele>
        <time>2021-08-08T04:50:41Z</time>
      </trkpt>
      <trkpt lat="45.21844" lon="5.73357">
        <ele>1044.796</ele>
        <time>2021-08-08T04:51:22Z</time>
      </trkpt>
      <trkpt lat="45.21843" lon="5.7336">
        <ele>1044.643</ele>
        <time>2021-08-08T04:52:01Z</time>
      </trkpt>
      <trkpt lat="45.21841" lon="5.73351">
        <ele>1044.993</ele>
        <time>2021-08-08T04:52:27Z</time>
      </trkpt>
      <trkpt lat="45.21847" lon="5.73355">
        <ele>1044.691</ele>
        <time>2021-08-08T04:52:50Z</time>
      </trkpt>
      <trkpt lat="45.21846" lon="5.73353">
        <ele>1044.866</ele>
        <time>2021-08-08T04:53:01Z</time>
      </trkpt>
      <trkpt lat="45.21848" lon="5.73346">
        <ele>1045.417</ele>
        <time>2021-08-08T04:53:08Z</time>
      </trkpt>
      <trkpt lat="45.21849" lon="5.73345">
        <ele>1045.416</ele>
        <time>2021-08-08T04:53:09Z</time>
      </trkpt>
      <trkpt lat="45.21849" lon="5.73346">
        <ele>1044.855</ele>
        <time>2021-08-08T04:53:19Z</time>
      </trkpt>
      <trkpt lat="45.21849" lon="5.73345">
        <ele>1045.011</ele>
        <time>2021-08-08T04:53:38Z</time>
      </trkpt>
      <trkpt lat="45.21845" lon="5.73347">
        <ele>1044.997</ele>
        <time>2021-08-08T04:53:54Z</time>
      </trkpt>
      <trkpt lat="45.21843" lon="5.73356">
        <ele>1045.021</ele>
        <time>2021-08-08T04:54:04Z</time>
      </trkpt>
      <trkpt lat="45.21842" lon="5.73357">
        <ele>1044.722</ele>
        <time>2021-08-08T04:54:33Z</time>
      </trkpt>
      <trkpt lat="45.21842" lon="5.73356">
        <ele>1044.473</ele>
        <time>2021-08-08T04:54:50Z</time>
      </trkpt>
      <trkpt lat="45.21844" lon="5.73349">
        <ele>1044.604</ele>
        <time>2021-08-08T04:54:57Z</time>
      </trkpt>
      <trkpt lat="45.21848" lon="5.73343">
        <ele>1045.556</ele>
        <time>2021-08-08T04:55:05Z</time>
      </trkpt>
      <trkpt lat="45.21854" lon="5.73349">
        <ele>1043.763</ele>
        <time>2021-08-08T04:55:15Z</time>
      </trkpt>
      <trkpt lat="45.21856" lon="5.7335">
        <ele>1042.452</ele>
        <time>2021-08-08T04:55:17Z</time>
      </trkpt>
      <trkpt lat="45.21862" lon="5.73351">
        <ele>1040.805</ele>
        <time>2021-08-08T04:55:22Z</time>
      </trkpt>
      <trkpt lat="45.21866" lon="5.73353">
        <ele>1040.205</ele>
        <time>2021-08-08T04:55:29Z</time>
      </trkpt>
      <trkpt lat="45.2187" lon="5.73356">
        <ele>1039.611</ele>
        <time>2021-08-08T04:55:33Z</time>
      </trkpt>
      <trkpt lat="45.21877" lon="5.7336">
        <ele>1038.909</ele>
        <time>2021-08-08T04:55:39Z</time>
      </trkpt>
      <trkpt lat="45.21882" lon="5.73363">
        <ele>1037.666</ele>
        <time>2021-08-08T04:55:45Z</time>
      </trkpt>
      <trkpt lat="45.21888" lon="5.7337">
        <ele>1038.018</ele>
        <time>2021-08-08T04:55:52Z</time>
      </trkpt>
      <trkpt lat="45.21889" lon="5.73371">
        <ele>1038.833</ele>
        <time>2021-08-08T04:55:54Z</time>
      </trkpt>
      <trkpt lat="45.21893" lon="5.73376">
        <ele>1038.85</ele>
        <time>2021-08-08T04:55:57Z</time>
      </trkpt>
      <trkpt lat="45.21901" lon="5.73375">
        <ele>1039.079</ele>
        <time>2021-08-08T04:56:04Z</time>
      </trkpt>
      <trkpt lat="45.21903" lon="5.73377">
        <ele>1038.948</ele>
        <time>2021-08-08T04:56:06Z</time>
      </trkpt>
      <trkpt lat="45.21912" lon="5.73382">
        <ele>1038.597</ele>
        <time>2021-08-08T04:56:13Z</time>
      </trkpt>
      <trkpt lat="45.2192" lon="5.73385">
        <ele>1038.175</ele>
        <time>2021-08-08T04:56:16Z</time>
      </trkpt>
      <trkpt lat="45.21923" lon="5.73393">
        <ele>1037.589</ele>
        <time>2021-08-08T04:56:21Z</time>
      </trkpt>
      <trkpt lat="45.21935" lon="5.73408">
        <ele>1038.761</ele>
        <time>2021-08-08T04:56:29Z</time>
      </trkpt>
      <trkpt lat="45.21939" lon="5.73419">
        <ele>1039.398</ele>
        <time>2021-08-08T04:56:37Z</time>
      </trkpt>
      <trkpt lat="45.2194" lon="5.7342">
        <ele>1039.691</ele>
        <time>2021-08-08T04:56:38Z</time>
      </trkpt>
      <trkpt lat="45.21942" lon="5.73423">
        <ele>1040.169</ele>
        <time>2021-08-08T04:56:40Z</time>
      </trkpt>
      <trkpt lat="45.21952" lon="5.73423">
        <ele>1041.823</ele>
        <time>2021-08-08T04:56:48Z</time>
      </trkpt>
      <trkpt lat="45.2196" lon="5.73421">
        <ele>1041.921</ele>
        <time>2021-08-08T04:56:52Z</time>
      </trkpt>
      <trkpt lat="45.21974" lon="5.73428">
        <ele>1043.19</ele>
        <time>2021-08-08T04:57:00Z</time>
      </trkpt>
      <trkpt lat="45.21985" lon="5.73433">
        <ele>1044.815</ele>
        <time>2021-08-08T04:57:06Z</time>
      </trkpt>
      <trkpt lat="45.21991" lon="5.73435">
        <ele>1045.17</ele>
        <time>2021-08-08T04:57:10Z</time>
      </trkpt>
      <trkpt lat="45.22008" lon="5.73436">
        <ele>1046.164</ele>
        <time>2021-08-08T04:57:20Z</time>
      </trkpt>
      <trkpt lat="45.22023" lon="5.73446">
        <ele>1045</ele>
        <time>2021-08-08T04:57:27Z</time>
      </trkpt>
      <trkpt lat="45.2203" lon="5.73453">
        <ele>1043.61</ele>
        <time>2021-08-08T04:57:31Z</time>
      </trkpt>
      <trkpt lat="45.22035" lon="5.73458">
        <ele>1041.387</ele>
        <time>2021-08-08T04:57:38Z</time>
      </trkpt>
      <trkpt lat="45.22039" lon="5.73462">
        <ele>1040.359</ele>
        <time>2021-08-08T04:57:42Z</time>
      </trkpt>
      <trkpt lat="45.22044" lon="5.73464">
        <ele>1039.005</ele>
        <time>2021-08-08T04:57:45Z</time>
      </trkpt>
      <trkpt lat="45.22055" lon="5.73471">
        <ele>1038.951</ele>
        <time>2021-08-08T04:57:51Z</time>
      </trkpt>
      <trkpt lat="45.22056" lon="5.73473">
        <ele>1038.617</ele>
        <time>2021-08-08T04:57:52Z</time>
      </trkpt>
      <trkpt lat="45.22067" lon="5.73482">
        <ele>1037.026</ele>
        <time>2021-08-08T04:58:00Z</time>
      </trkpt>
      <trkpt lat="45.22067" lon="5.73483">
        <ele>1036.886</ele>
        <time>2021-08-08T04:58:01Z</time>
      </trkpt>
      <trkpt lat="45.22074" lon="5.73489">
        <ele>1035.756</ele>
        <time>2021-08-08T04:58:06Z</time>
      </trkpt>
      <trkpt lat="45.22085" lon="5.73494">
        <ele>1034.23</ele>
        <time>2021-08-08T04:58:14Z</time>
      </trkpt>
      <trkpt lat="45.22093" lon="5.73499">
        <ele>1032.13</ele>
        <time>2021-08-08T04:58:20Z</time>
      </trkpt>
      <trkpt lat="45.22103" lon="5.73507">
        <ele>1030.651</ele>
        <time>2021-08-08T04:58:27Z</time>
      </trkpt>
      <trkpt lat="45.22108" lon="5.73509">
        <ele>1029.343</ele>
        <time>2021-08-08T04:58:30Z</time>
      </trkpt>
      <trkpt lat="45.22113" lon="5.73511">
        <ele>1027.747</ele>
        <time>2021-08-08T04:58:35Z</time>
      </trkpt>
      <trkpt lat="45.22117" lon="5.73514">
        <ele>1025.782</ele>
        <time>2021-08-08T04:58:39Z</time>
      </trkpt>
      <trkpt lat="45.2212" lon="5.73512">
        <ele>1024.796</ele>
        <time>2021-08-08T04:58:44Z</time>
      </trkpt>
      <trkpt lat="45.2212" lon="5.73528">
        <ele>1023.912</ele>
        <time>2021-08-08T04:58:51Z</time>
      </trkpt>
      <trkpt lat="45.22121" lon="5.73531">
        <ele>1023.343</ele>
        <time>2021-08-08T04:58:52Z</time>
      </trkpt>
      <trkpt lat="45.22128" lon="5.73535">
        <ele>1021.777</ele>
        <time>2021-08-08T04:58:58Z</time>
      </trkpt>
      <trkpt lat="45.22133" lon="5.73537">
        <ele>1019.61</ele>
        <time>2021-08-08T04:59:02Z</time>
      </trkpt>
      <trkpt lat="45.22138" lon="5.73539">
        <ele>1018.219</ele>
        <time>2021-08-08T04:59:05Z</time>
      </trkpt>
      <trkpt lat="45.22145" lon="5.73539">
        <ele>1016.905</ele>
        <time>2021-08-08T04:59:12Z</time>
      </trkpt>
      <trkpt lat="45.22148" lon="5.7354">
        <ele>1016.21</ele>
        <time>2021-08-08T04:59:14Z</time>
      </trkpt>
      <trkpt lat="45.2215" lon="5.73542">
        <ele>1015.664</ele>
        <time>2021-08-08T04:59:16Z</time>
      </trkpt>
      <trkpt lat="45.22153" lon="5.73542">
        <ele>1015.113</ele>
        <time>2021-08-08T04:59:19Z</time>
      </trkpt>
      <trkpt lat="45.22158" lon="5.73547">
        <ele>1013.479</ele>
        <time>2021-08-08T04:59:24Z</time>
      </trkpt>
      <trkpt lat="45.2216" lon="5.73547">
        <ele>1011.226</ele>
        <time>2021-08-08T04:59:28Z</time>
      </trkpt>
      <trkpt lat="45.22162" lon="5.73549">
        <ele>1010.851</ele>
        <time>2021-08-08T04:59:31Z</time>
      </trkpt>
      <trkpt lat="45.22172" lon="5.73564">
        <ele>1010.552</ele>
        <time>2021-08-08T04:59:38Z</time>
      </trkpt>
      <trkpt lat="45.22176" lon="5.73572">
        <ele>1009.675</ele>
        <time>2021-08-08T04:59:45Z</time>
      </trkpt>
      <trkpt lat="45.22193" lon="5.73582">
        <ele>1007.363</ele>
        <time>2021-08-08T04:59:52Z</time>
      </trkpt>
      <trkpt lat="45.22197" lon="5.73591">
        <ele>1006.458</ele>
        <time>2021-08-08T04:59:58Z</time>
      </trkpt>
      <trkpt lat="45.22207" lon="5.73603">
        <ele>1005.133</ele>
        <time>2021-08-08T05:00:05Z</time>
      </trkpt>
      <trkpt lat="45.22207" lon="5.73604">
        <ele>1005.135</ele>
        <time>2021-08-08T05:00:06Z</time>
      </trkpt>
      <trkpt lat="45.2222" lon="5.73618">
        <ele>1004.352</ele>
        <time>2021-08-08T05:00:15Z</time>
      </trkpt>
      <trkpt lat="45.22234" lon="5.7363">
        <ele>1003.326</ele>
        <time>2021-08-08T05:00:23Z</time>
      </trkpt>
      <trkpt lat="45.22241" lon="5.73635">
        <ele>1002.065</ele>
        <time>2021-08-08T05:00:27Z</time>
      </trkpt>
      <trkpt lat="45.22245" lon="5.73638">
        <ele>1001.094</ele>
        <time>2021-08-08T05:00:30Z</time>
      </trkpt>
      <trkpt lat="45.22259" lon="5.73645">
        <ele>999.34</ele>
        <time>2021-08-08T05:00:38Z</time>
      </trkpt>
      <trkpt lat="45.22266" lon="5.73648">
        <ele>998.041</ele>
        <time>2021-08-08T05:00:43Z</time>
      </trkpt>
      <trkpt lat="45.22273" lon="5.73646">
        <ele>996.936</ele>
        <time>2021-08-08T05:00:49Z</time>
      </trkpt>
      <trkpt lat="45.22284" lon="5.73648">
        <ele>994.828</ele>
        <time>2021-08-08T05:00:57Z</time>
      </trkpt>
      <trkpt lat="45.22293" lon="5.73649">
        <ele>992.199</ele>
        <time>2021-08-08T05:01:04Z</time>
      </trkpt>
      <trkpt lat="45.22295" lon="5.73649">
        <ele>991.978</ele>
        <time>2021-08-08T05:01:05Z</time>
      </trkpt>
      <trkpt lat="45.223" lon="5.73651">
        <ele>991.391</ele>
        <time>2021-08-08T05:01:08Z</time>
      </trkpt>
      <trkpt lat="45.22308" lon="5.73652">
        <ele>989.168</ele>
        <time>2021-08-08T05:01:14Z</time>
      </trkpt>
      <trkpt lat="45.2232" lon="5.73658">
        <ele>987.932</ele>
        <time>2021-08-08T05:01:20Z</time>
      </trkpt>
      <trkpt lat="45.22328" lon="5.73659">
        <ele>986.024</ele>
        <time>2021-08-08T05:01:28Z</time>
      </trkpt>
      <trkpt lat="45.22334" lon="5.7366">
        <ele>984.48</ele>
        <time>2021-08-08T05:01:31Z</time>
      </trkpt>
      <trkpt lat="45.22345" lon="5.73661">
        <ele>983.974</ele>
        <time>2021-08-08T05:01:36Z</time>
      </trkpt>
      <trkpt lat="45.22358" lon="5.73667">
        <ele>984.232</ele>
        <time>2021-08-08T05:01:42Z</time>
      </trkpt>
      <trkpt lat="45.22372" lon="5.73673">
        <ele>982.601</ele>
        <time>2021-08-08T05:01:49Z</time>
      </trkpt>
      <trkpt lat="45.22374" lon="5.7368">
        <ele>982.109</ele>
        <time>2021-08-08T05:01:55Z</time>
      </trkpt>
      <trkpt lat="45.22378" lon="5.73681">
        <ele>982.665</ele>
        <time>2021-08-08T05:02:17Z</time>
      </trkpt>
      <trkpt lat="45.22384" lon="5.73681">
        <ele>982.624</ele>
        <time>2021-08-08T05:02:42Z</time>
      </trkpt>
      <trkpt lat="45.22383" lon="5.73674">
        <ele>981.736</ele>
        <time>2021-08-08T05:02:48Z</time>
      </trkpt>
      <trkpt lat="45.22382" lon="5.73666">
        <ele>979.919</ele>
        <time>2021-08-08T05:02:54Z</time>
      </trkpt>
      <trkpt lat="45.22385" lon="5.73655">
        <ele>977.863</ele>
        <time>2021-08-08T05:03:03Z</time>
      </trkpt>
      <trkpt lat="45.22387" lon="5.73653">
        <ele>977.863</ele>
        <time>2021-08-08T05:03:05Z</time>
      </trkpt>
      <trkpt lat="45.22385" lon="5.73646">
        <ele>975.988</ele>
        <time>2021-08-08T05:03:09Z</time>
      </trkpt>
      <trkpt lat="45.22383" lon="5.73636">
        <ele>975.232</ele>
        <time>2021-08-08T05:03:13Z</time>
      </trkpt>
      <trkpt lat="45.22379" lon="5.73628">
        <ele>973.088</ele>
        <time>2021-08-08T05:03:19Z</time>
      </trkpt>
      <trkpt lat="45.2238" lon="5.73618">
        <ele>970.345</ele>
        <time>2021-08-08T05:03:27Z</time>
      </trkpt>
      <trkpt lat="45.22379" lon="5.73609">
        <ele>968.346</ele>
        <time>2021-08-08T05:03:32Z</time>
      </trkpt>
      <trkpt lat="45.22379" lon="5.73607">
        <ele>968.314</ele>
        <time>2021-08-08T05:03:33Z</time>
      </trkpt>
      <trkpt lat="45.22379" lon="5.73598">
        <ele>965.004</ele>
        <time>2021-08-08T05:03:40Z</time>
      </trkpt>
      <trkpt lat="45.2238" lon="5.73593">
        <ele>963.31</ele>
        <time>2021-08-08T05:03:43Z</time>
      </trkpt>
      <trkpt lat="45.2238" lon="5.73584">
        <ele>961.197</ele>
        <time>2021-08-08T05:03:49Z</time>
      </trkpt>
      <trkpt lat="45.22378" lon="5.73573">
        <ele>958.969</ele>
        <time>2021-08-08T05:03:58Z</time>
      </trkpt>
      <trkpt lat="45.2238" lon="5.73567">
        <ele>956.059</ele>
        <time>2021-08-08T05:04:04Z</time>
      </trkpt>
      <trkpt lat="45.2238" lon="5.73561">
        <ele>954.811</ele>
        <time>2021-08-08T05:04:09Z</time>
      </trkpt>
      <trkpt lat="45.2238" lon="5.7355">
        <ele>951.79</ele>
        <time>2021-08-08T05:04:15Z</time>
      </trkpt>
      <trkpt lat="45.22386" lon="5.7354">
        <ele>950.222</ele>
        <time>2021-08-08T05:04:21Z</time>
      </trkpt>
      <trkpt lat="45.22389" lon="5.73535">
        <ele>947.743</ele>
        <time>2021-08-08T05:04:26Z</time>
      </trkpt>
      <trkpt lat="45.22389" lon="5.73527">
        <ele>946.9</ele>
        <time>2021-08-08T05:04:30Z</time>
      </trkpt>
      <trkpt lat="45.224" lon="5.73517">
        <ele>943.849</ele>
        <time>2021-08-08T05:04:37Z</time>
      </trkpt>
      <trkpt lat="45.22407" lon="5.73511">
        <ele>942.135</ele>
        <time>2021-08-08T05:04:44Z</time>
      </trkpt>
      <trkpt lat="45.22413" lon="5.73503">
        <ele>940.066</ele>
        <time>2021-08-08T05:04:51Z</time>
      </trkpt>
      <trkpt lat="45.2242" lon="5.73499">
        <ele>937.662</ele>
        <time>2021-08-08T05:04:59Z</time>
      </trkpt>
      <trkpt lat="45.22426" lon="5.73493">
        <ele>935.841</ele>
        <time>2021-08-08T05:05:05Z</time>
      </trkpt>
      <trkpt lat="45.22429" lon="5.73491">
        <ele>934.773</ele>
        <time>2021-08-08T05:05:07Z</time>
      </trkpt>
      <trkpt lat="45.22431" lon="5.7349">
        <ele>934.277</ele>
        <time>2021-08-08T05:05:09Z</time>
      </trkpt>
      <trkpt lat="45.22441" lon="5.73482">
        <ele>932.187</ele>
        <time>2021-08-08T05:05:16Z</time>
      </trkpt>
      <trkpt lat="45.22443" lon="5.73481">
        <ele>931.984</ele>
        <time>2021-08-08T05:05:17Z</time>
      </trkpt>
      <trkpt lat="45.22451" lon="5.73477">
        <ele>931.198</ele>
        <time>2021-08-08T05:05:22Z</time>
      </trkpt>
      <trkpt lat="45.22457" lon="5.73465">
        <ele>928.495</ele>
        <time>2021-08-08T05:05:30Z</time>
      </trkpt>
      <trkpt lat="45.22461" lon="5.73457">
        <ele>926.237</ele>
        <time>2021-08-08T05:05:37Z</time>
      </trkpt>
      <trkpt lat="45.22462" lon="5.73455">
        <ele>925.954</ele>
        <time>2021-08-08T05:05:38Z</time>
      </trkpt>
      <trkpt lat="45.22465" lon="5.73448">
        <ele>923.061</ele>
        <time>2021-08-08T05:05:44Z</time>
      </trkpt>
      <trkpt lat="45.2247" lon="5.73442">
        <ele>921.089</ele>
        <time>2021-08-08T05:05:50Z</time>
      </trkpt>
      <trkpt lat="45.22473" lon="5.73436">
        <ele>919.147</ele>
        <time>2021-08-08T05:05:54Z</time>
      </trkpt>
      <trkpt lat="45.22475" lon="5.73431">
        <ele>917.693</ele>
        <time>2021-08-08T05:05:59Z</time>
      </trkpt>
      <trkpt lat="45.22481" lon="5.73423">
        <ele>914.218</ele>
        <time>2021-08-08T05:06:07Z</time>
      </trkpt>
      <trkpt lat="45.22482" lon="5.73422">
        <ele>913.925</ele>
        <time>2021-08-08T05:06:08Z</time>
      </trkpt>
      <trkpt lat="45.22486" lon="5.73416">
        <ele>912.117</ele>
        <time>2021-08-08T05:06:14Z</time>
      </trkpt>
      <trkpt lat="45.2249" lon="5.73413">
        <ele>910.779</ele>
        <time>2021-08-08T05:06:18Z</time>
      </trkpt>
      <trkpt lat="45.22496" lon="5.73409">
        <ele>908.946</ele>
        <time>2021-08-08T05:06:24Z</time>
      </trkpt>
      <trkpt lat="45.22504" lon="5.73405">
        <ele>907.148</ele>
        <time>2021-08-08T05:06:31Z</time>
      </trkpt>
      <trkpt lat="45.22511" lon="5.73402">
        <ele>904.898</ele>
        <time>2021-08-08T05:06:36Z</time>
      </trkpt>
      <trkpt lat="45.22518" lon="5.73396">
        <ele>902.078</ele>
        <time>2021-08-08T05:06:43Z</time>
      </trkpt>
      <trkpt lat="45.22523" lon="5.73394">
        <ele>899.57</ele>
        <time>2021-08-08T05:06:48Z</time>
      </trkpt>
      <trkpt lat="45.2253" lon="5.73392">
        <ele>897.989</ele>
        <time>2021-08-08T05:06:54Z</time>
      </trkpt>
      <trkpt lat="45.22537" lon="5.73394">
        <ele>897.096</ele>
        <time>2021-08-08T05:06:58Z</time>
      </trkpt>
      <trkpt lat="45.22546" lon="5.73392">
        <ele>895.33</ele>
        <time>2021-08-08T05:07:05Z</time>
      </trkpt>
      <trkpt lat="45.22546" lon="5.7339">
        <ele>895.205</ele>
        <time>2021-08-08T05:07:06Z</time>
      </trkpt>
      <trkpt lat="45.22553" lon="5.73385">
        <ele>893.442</ele>
        <time>2021-08-08T05:07:13Z</time>
      </trkpt>
      <trkpt lat="45.22563" lon="5.73382">
        <ele>890.59</ele>
        <time>2021-08-08T05:07:21Z</time>
      </trkpt>
      <trkpt lat="45.22572" lon="5.7338">
        <ele>888.739</ele>
        <time>2021-08-08T05:07:27Z</time>
      </trkpt>
      <trkpt lat="45.2258" lon="5.73379">
        <ele>886.937</ele>
        <time>2021-08-08T05:07:32Z</time>
      </trkpt>
      <trkpt lat="45.22588" lon="5.73376">
        <ele>884.597</ele>
        <time>2021-08-08T05:07:38Z</time>
      </trkpt>
      <trkpt lat="45.22595" lon="5.73374">
        <ele>884.362</ele>
        <time>2021-08-08T05:07:44Z</time>
      </trkpt>
      <trkpt lat="45.22603" lon="5.73374">
        <ele>883.042</ele>
        <time>2021-08-08T05:07:49Z</time>
      </trkpt>
      <trkpt lat="45.22608" lon="5.73372">
        <ele>881.346</ele>
        <time>2021-08-08T05:07:52Z</time>
      </trkpt>
      <trkpt lat="45.22617" lon="5.73369">
        <ele>879.231</ele>
        <time>2021-08-08T05:07:58Z</time>
      </trkpt>
      <trkpt lat="45.22622" lon="5.73367">
        <ele>877.363</ele>
        <time>2021-08-08T05:08:02Z</time>
      </trkpt>
      <trkpt lat="45.22631" lon="5.73367">
        <ele>875.933</ele>
        <time>2021-08-08T05:08:10Z</time>
      </trkpt>
      <trkpt lat="45.22642" lon="5.73367">
        <ele>874.267</ele>
        <time>2021-08-08T05:08:18Z</time>
      </trkpt>
      <trkpt lat="45.2265" lon="5.73366">
        <ele>872.972</ele>
        <time>2021-08-08T05:08:23Z</time>
      </trkpt>
      <trkpt lat="45.22657" lon="5.73367">
        <ele>870.397</ele>
        <time>2021-08-08T05:08:30Z</time>
      </trkpt>
      <trkpt lat="45.22658" lon="5.73368">
        <ele>870.391</ele>
        <time>2021-08-08T05:08:31Z</time>
      </trkpt>
      <trkpt lat="45.22663" lon="5.73371">
        <ele>869.743</ele>
        <time>2021-08-08T05:08:36Z</time>
      </trkpt>
      <trkpt lat="45.22668" lon="5.73372">
        <ele>868.315</ele>
        <time>2021-08-08T05:08:41Z</time>
      </trkpt>
      <trkpt lat="45.22675" lon="5.73372">
        <ele>866.295</ele>
        <time>2021-08-08T05:08:46Z</time>
      </trkpt>
      <trkpt lat="45.2268" lon="5.73373">
        <ele>864.677</ele>
        <time>2021-08-08T05:08:52Z</time>
      </trkpt>
      <trkpt lat="45.2269" lon="5.73378">
        <ele>863.562</ele>
        <time>2021-08-08T05:08:59Z</time>
      </trkpt>
      <trkpt lat="45.22699" lon="5.73379">
        <ele>862.15</ele>
        <time>2021-08-08T05:09:04Z</time>
      </trkpt>
      <trkpt lat="45.22714" lon="5.73382">
        <ele>860.598</ele>
        <time>2021-08-08T05:09:12Z</time>
      </trkpt>
      <trkpt lat="45.22715" lon="5.73383">
        <ele>860.36</ele>
        <time>2021-08-08T05:09:13Z</time>
      </trkpt>
      <trkpt lat="45.2272" lon="5.73387">
        <ele>858.831</ele>
        <time>2021-08-08T05:09:17Z</time>
      </trkpt>
      <trkpt lat="45.2273" lon="5.73391">
        <ele>857.973</ele>
        <time>2021-08-08T05:09:24Z</time>
      </trkpt>
      <trkpt lat="45.22735" lon="5.73391">
        <ele>857.692</ele>
        <time>2021-08-08T05:09:26Z</time>
      </trkpt>
      <trkpt lat="45.22749" lon="5.73396">
        <ele>856.396</ele>
        <time>2021-08-08T05:09:33Z</time>
      </trkpt>
      <trkpt lat="45.22756" lon="5.73397">
        <ele>855.205</ele>
        <time>2021-08-08T05:09:38Z</time>
      </trkpt>
      <trkpt lat="45.22766" lon="5.73399">
        <ele>854.174</ele>
        <time>2021-08-08T05:09:45Z</time>
      </trkpt>
      <trkpt lat="45.22773" lon="5.73399">
        <ele>853.172</ele>
        <time>2021-08-08T05:09:49Z</time>
      </trkpt>
      <trkpt lat="45.22786" lon="5.73406">
        <ele>851.834</ele>
        <time>2021-08-08T05:09:57Z</time>
      </trkpt>
      <trkpt lat="45.22795" lon="5.73407">
        <ele>850.435</ele>
        <time>2021-08-08T05:10:03Z</time>
      </trkpt>
      <trkpt lat="45.22809" lon="5.7341">
        <ele>849.943</ele>
        <time>2021-08-08T05:10:09Z</time>
      </trkpt>
      <trkpt lat="45.22819" lon="5.73414">
        <ele>848.492</ele>
        <time>2021-08-08T05:10:15Z</time>
      </trkpt>
      <trkpt lat="45.2283" lon="5.73415">
        <ele>846.702</ele>
        <time>2021-08-08T05:10:22Z</time>
      </trkpt>
      <trkpt lat="45.22845" lon="5.7342">
        <ele>846.507</ele>
        <time>2021-08-08T05:10:29Z</time>
      </trkpt>
      <trkpt lat="45.22852" lon="5.73421">
        <ele>845.493</ele>
        <time>2021-08-08T05:10:33Z</time>
      </trkpt>
      <trkpt lat="45.22865" lon="5.73423">
        <ele>844.687</ele>
        <time>2021-08-08T05:10:40Z</time>
      </trkpt>
      <trkpt lat="45.22875" lon="5.73423">
        <ele>842.43</ele>
        <time>2021-08-08T05:10:47Z</time>
      </trkpt>
      <trkpt lat="45.22884" lon="5.73424">
        <ele>840.73</ele>
        <time>2021-08-08T05:10:53Z</time>
      </trkpt>
      <trkpt lat="45.22889" lon="5.73425">
        <ele>840.59</ele>
        <time>2021-08-08T05:10:55Z</time>
      </trkpt>
      <trkpt lat="45.22895" lon="5.73425">
        <ele>839.329</ele>
        <time>2021-08-08T05:10:58Z</time>
      </trkpt>
      <trkpt lat="45.22907" lon="5.73427">
        <ele>838.875</ele>
        <time>2021-08-08T05:11:05Z</time>
      </trkpt>
      <trkpt lat="45.22915" lon="5.73429">
        <ele>838.362</ele>
        <time>2021-08-08T05:11:09Z</time>
      </trkpt>
      <trkpt lat="45.2292" lon="5.73428">
        <ele>837.261</ele>
        <time>2021-08-08T05:11:13Z</time>
      </trkpt>
      <trkpt lat="45.22923" lon="5.73428">
        <ele>836.159</ele>
        <time>2021-08-08T05:11:16Z</time>
      </trkpt>
      <trkpt lat="45.22926" lon="5.73428">
        <ele>834.827</ele>
        <time>2021-08-08T05:11:19Z</time>
      </trkpt>
      <trkpt lat="45.22939" lon="5.73429">
        <ele>832.836</ele>
        <time>2021-08-08T05:11:26Z</time>
      </trkpt>
      <trkpt lat="45.22953" lon="5.73432">
        <ele>831.645</ele>
        <time>2021-08-08T05:11:32Z</time>
      </trkpt>
      <trkpt lat="45.22961" lon="5.73435">
        <ele>829.92</ele>
        <time>2021-08-08T05:11:38Z</time>
      </trkpt>
      <trkpt lat="45.22971" lon="5.73434">
        <ele>828.071</ele>
        <time>2021-08-08T05:11:43Z</time>
      </trkpt>
      <trkpt lat="45.22975" lon="5.73433">
        <ele>827.498</ele>
        <time>2021-08-08T05:11:48Z</time>
      </trkpt>
      <trkpt lat="45.22986" lon="5.73438">
        <ele>826.163</ele>
        <time>2021-08-08T05:11:54Z</time>
      </trkpt>
      <trkpt lat="45.22992" lon="5.73441">
        <ele>826.046</ele>
        <time>2021-08-08T05:11:56Z</time>
      </trkpt>
      <trkpt lat="45.23009" lon="5.73447">
        <ele>824.223</ele>
        <time>2021-08-08T05:12:05Z</time>
      </trkpt>
      <trkpt lat="45.23015" lon="5.73445">
        <ele>823.373</ele>
        <time>2021-08-08T05:12:09Z</time>
      </trkpt>
      <trkpt lat="45.23021" lon="5.73444">
        <ele>821.957</ele>
        <time>2021-08-08T05:12:14Z</time>
      </trkpt>
      <trkpt lat="45.23023" lon="5.73445">
        <ele>820.968</ele>
        <time>2021-08-08T05:12:19Z</time>
      </trkpt>
      <trkpt lat="45.23026" lon="5.73447">
        <ele>817.568</ele>
        <time>2021-08-08T05:12:26Z</time>
      </trkpt>
      <trkpt lat="45.2303" lon="5.73447">
        <ele>816.977</ele>
        <time>2021-08-08T05:12:28Z</time>
      </trkpt>
      <trkpt lat="45.23034" lon="5.73444">
        <ele>815.811</ele>
        <time>2021-08-08T05:12:34Z</time>
      </trkpt>
      <trkpt lat="45.23035" lon="5.73444">
        <ele>815.38</ele>
        <time>2021-08-08T05:12:35Z</time>
      </trkpt>
      <trkpt lat="45.23045" lon="5.73447">
        <ele>813.561</ele>
        <time>2021-08-08T05:12:41Z</time>
      </trkpt>
      <trkpt lat="45.23059" lon="5.73449">
        <ele>812.695</ele>
        <time>2021-08-08T05:12:47Z</time>
      </trkpt>
      <trkpt lat="45.2306" lon="5.73449">
        <ele>812.177</ele>
        <time>2021-08-08T05:12:48Z</time>
      </trkpt>
      <trkpt lat="45.23067" lon="5.73449">
        <ele>812.016</ele>
        <time>2021-08-08T05:12:51Z</time>
      </trkpt>
      <trkpt lat="45.23076" lon="5.73453">
        <ele>811.052</ele>
        <time>2021-08-08T05:12:56Z</time>
      </trkpt>
      <trkpt lat="45.23088" lon="5.73454">
        <ele>810.219</ele>
        <time>2021-08-08T05:13:02Z</time>
      </trkpt>
      <trkpt lat="45.23091" lon="5.73455">
        <ele>810.106</ele>
        <time>2021-08-08T05:13:03Z</time>
      </trkpt>
      <trkpt lat="45.23101" lon="5.73451">
        <ele>808.604</ele>
        <time>2021-08-08T05:13:07Z</time>
      </trkpt>
      <trkpt lat="45.23111" lon="5.73452">
        <ele>807.71</ele>
        <time>2021-08-08T05:13:14Z</time>
      </trkpt>
      <trkpt lat="45.23117" lon="5.73451">
        <ele>806.146</ele>
        <time>2021-08-08T05:13:19Z</time>
      </trkpt>
      <trkpt lat="45.23118" lon="5.73451">
        <ele>805.77</ele>
        <time>2021-08-08T05:13:20Z</time>
      </trkpt>
      <trkpt lat="45.23127" lon="5.73446">
        <ele>803.975</ele>
        <time>2021-08-08T05:13:27Z</time>
      </trkpt>
      <trkpt lat="45.23132" lon="5.73444">
        <ele>803.161</ele>
        <time>2021-08-08T05:13:30Z</time>
      </trkpt>
      <trkpt lat="45.23135" lon="5.73443">
        <ele>802.5</ele>
        <time>2021-08-08T05:13:32Z</time>
      </trkpt>
      <trkpt lat="45.23147" lon="5.7344">
        <ele>798.978</ele>
        <time>2021-08-08T05:13:40Z</time>
      </trkpt>
      <trkpt lat="45.23148" lon="5.73439">
        <ele>798.985</ele>
        <time>2021-08-08T05:13:41Z</time>
      </trkpt>
      <trkpt lat="45.23151" lon="5.73439">
        <ele>798.241</ele>
        <time>2021-08-08T05:13:43Z</time>
      </trkpt>
      <trkpt lat="45.23153" lon="5.73434">
        <ele>797.068</ele>
        <time>2021-08-08T05:13:46Z</time>
      </trkpt>
      <trkpt lat="45.23164" lon="5.7343">
        <ele>795.263</ele>
        <time>2021-08-08T05:13:53Z</time>
      </trkpt>
      <trkpt lat="45.23176" lon="5.73423">
        <ele>793.014</ele>
        <time>2021-08-08T05:14:00Z</time>
      </trkpt>
      <trkpt lat="45.23179" lon="5.73418">
        <ele>791.658</ele>
        <time>2021-08-08T05:14:04Z</time>
      </trkpt>
      <trkpt lat="45.23179" lon="5.73411">
        <ele>790.289</ele>
        <time>2021-08-08T05:14:07Z</time>
      </trkpt>
      <trkpt lat="45.23178" lon="5.73406">
        <ele>789.094</ele>
        <time>2021-08-08T05:14:10Z</time>
      </trkpt>
      <trkpt lat="45.23174" lon="5.73402">
        <ele>787.266</ele>
        <time>2021-08-08T05:14:13Z</time>
      </trkpt>
      <trkpt lat="45.23164" lon="5.73399">
        <ele>785.516</ele>
        <time>2021-08-08T05:14:20Z</time>
      </trkpt>
      <trkpt lat="45.23151" lon="5.73402">
        <ele>782.253</ele>
        <time>2021-08-08T05:14:28Z</time>
      </trkpt>
      <trkpt lat="45.23143" lon="5.73405">
        <ele>779.145</ele>
        <time>2021-08-08T05:14:35Z</time>
      </trkpt>
      <trkpt lat="45.2314" lon="5.73404">
        <ele>778.424</ele>
        <time>2021-08-08T05:14:37Z</time>
      </trkpt>
      <trkpt lat="45.23137" lon="5.73402">
        <ele>777.738</ele>
        <time>2021-08-08T05:14:40Z</time>
      </trkpt>
      <trkpt lat="45.23138" lon="5.73393">
        <ele>776.705</ele>
        <time>2021-08-08T05:14:43Z</time>
      </trkpt>
      <trkpt lat="45.23145" lon="5.73382">
        <ele>775.176</ele>
        <time>2021-08-08T05:14:49Z</time>
      </trkpt>
      <trkpt lat="45.23148" lon="5.73374">
        <ele>773.716</ele>
        <time>2021-08-08T05:14:53Z</time>
      </trkpt>
      <trkpt lat="45.23155" lon="5.73355">
        <ele>771.469</ele>
        <time>2021-08-08T05:15:01Z</time>
      </trkpt>
      <trkpt lat="45.23163" lon="5.73348">
        <ele>769.147</ele>
        <time>2021-08-08T05:15:07Z</time>
      </trkpt>
      <trkpt lat="45.23177" lon="5.73341">
        <ele>767.993</ele>
        <time>2021-08-08T05:15:16Z</time>
      </trkpt>
      <trkpt lat="45.23179" lon="5.73339">
        <ele>766.978</ele>
        <time>2021-08-08T05:15:18Z</time>
      </trkpt>
      <trkpt lat="45.23184" lon="5.73332">
        <ele>765.329</ele>
        <time>2021-08-08T05:15:22Z</time>
      </trkpt>
      <trkpt lat="45.23198" lon="5.73324">
        <ele>762.369</ele>
        <time>2021-08-08T05:15:30Z</time>
      </trkpt>
      <trkpt lat="45.23206" lon="5.73316">
        <ele>760.145</ele>
        <time>2021-08-08T05:15:35Z</time>
      </trkpt>
      <trkpt lat="45.23215" lon="5.73311">
        <ele>759.146</ele>
        <time>2021-08-08T05:15:40Z</time>
      </trkpt>
      <trkpt lat="45.23219" lon="5.73308">
        <ele>757.897</ele>
        <time>2021-08-08T05:15:44Z</time>
      </trkpt>
      <trkpt lat="45.23227" lon="5.73307">
        <ele>756.979</ele>
        <time>2021-08-08T05:15:48Z</time>
      </trkpt>
      <trkpt lat="45.23237" lon="5.73306">
        <ele>754.252</ele>
        <time>2021-08-08T05:15:54Z</time>
      </trkpt>
      <trkpt lat="45.23246" lon="5.73303">
        <ele>753.222</ele>
        <time>2021-08-08T05:16:00Z</time>
      </trkpt>
      <trkpt lat="45.23253" lon="5.73294">
        <ele>752.448</ele>
        <time>2021-08-08T05:16:06Z</time>
      </trkpt>
      <trkpt lat="45.23251" lon="5.73291">
        <ele>751.122</ele>
        <time>2021-08-08T05:16:43Z</time>
      </trkpt>
      <trkpt lat="45.23251" lon="5.73293">
        <ele>751.987</ele>
        <time>2021-08-08T05:17:09Z</time>
      </trkpt>
      <trkpt lat="45.23255" lon="5.73299">
        <ele>754.497</ele>
        <time>2021-08-08T05:17:30Z</time>
      </trkpt>
      <trkpt lat="45.23244" lon="5.73302">
        <ele>754.604</ele>
        <time>2021-08-08T05:17:37Z</time>
      </trkpt>
      <trkpt lat="45.23239" lon="5.73305">
        <ele>755.593</ele>
        <time>2021-08-08T05:17:40Z</time>
      </trkpt>
      <trkpt lat="45.23231" lon="5.73312">
        <ele>756.423</ele>
        <time>2021-08-08T05:17:47Z</time>
      </trkpt>
      <trkpt lat="45.23228" lon="5.73315">
        <ele>757.225</ele>
        <time>2021-08-08T05:17:54Z</time>
      </trkpt>
      <trkpt lat="45.23226" lon="5.73314">
        <ele>757.767</ele>
        <time>2021-08-08T05:17:56Z</time>
      </trkpt>
      <trkpt lat="45.23219" lon="5.73319">
        <ele>759.215</ele>
        <time>2021-08-08T05:18:02Z</time>
      </trkpt>
      <trkpt lat="45.23211" lon="5.73325">
        <ele>760.595</ele>
        <time>2021-08-08T05:18:08Z</time>
      </trkpt>
      <trkpt lat="45.232" lon="5.73328">
        <ele>762.067</ele>
        <time>2021-08-08T05:18:15Z</time>
      </trkpt>
      <trkpt lat="45.23195" lon="5.73336">
        <ele>763.873</ele>
        <time>2021-08-08T05:18:23Z</time>
      </trkpt>
      <trkpt lat="45.2319" lon="5.73343">
        <ele>766.347</ele>
        <time>2021-08-08T05:18:30Z</time>
      </trkpt>
      <trkpt lat="45.2319" lon="5.73344">
        <ele>766.652</ele>
        <time>2021-08-08T05:18:31Z</time>
      </trkpt>
      <trkpt lat="45.23181" lon="5.73349">
        <ele>768.053</ele>
        <time>2021-08-08T05:18:36Z</time>
      </trkpt>
      <trkpt lat="45.23176" lon="5.73351">
        <ele>769.318</ele>
        <time>2021-08-08T05:18:41Z</time>
      </trkpt>
      <trkpt lat="45.23166" lon="5.73352">
        <ele>769.347</ele>
        <time>2021-08-08T05:18:48Z</time>
      </trkpt>
      <trkpt lat="45.23163" lon="5.73357">
        <ele>770.683</ele>
        <time>2021-08-08T05:18:53Z</time>
      </trkpt>
      <trkpt lat="45.23161" lon="5.7336">
        <ele>772.296</ele>
        <time>2021-08-08T05:18:58Z</time>
      </trkpt>
      <trkpt lat="45.23159" lon="5.73367">
        <ele>774.094</ele>
        <time>2021-08-08T05:19:04Z</time>
      </trkpt>
      <trkpt lat="45.23155" lon="5.73371">
        <ele>774.724</ele>
        <time>2021-08-08T05:19:08Z</time>
      </trkpt>
      <trkpt lat="45.2315" lon="5.7338">
        <ele>775.849</ele>
        <time>2021-08-08T05:19:15Z</time>
      </trkpt>
      <trkpt lat="45.2315" lon="5.73388">
        <ele>777.891</ele>
        <time>2021-08-08T05:19:25Z</time>
      </trkpt>
      <trkpt lat="45.23148" lon="5.7339">
        <ele>778.666</ele>
        <time>2021-08-08T05:19:27Z</time>
      </trkpt>
      <trkpt lat="45.23149" lon="5.73391">
        <ele>780.042</ele>
        <time>2021-08-08T05:19:32Z</time>
      </trkpt>
      <trkpt lat="45.2315" lon="5.73391">
        <ele>781.208</ele>
        <time>2021-08-08T05:19:34Z</time>
      </trkpt>
      <trkpt lat="45.23153" lon="5.73388">
        <ele>783.016</ele>
        <time>2021-08-08T05:19:42Z</time>
      </trkpt>
      <trkpt lat="45.23159" lon="5.73387">
        <ele>784.415</ele>
        <time>2021-08-08T05:19:47Z</time>
      </trkpt>
      <trkpt lat="45.23166" lon="5.73385">
        <ele>785.305</ele>
        <time>2021-08-08T05:19:53Z</time>
      </trkpt>
      <trkpt lat="45.23172" lon="5.73382">
        <ele>786.794</ele>
        <time>2021-08-08T05:20:00Z</time>
      </trkpt>
      <trkpt lat="45.23175" lon="5.73383">
        <ele>787.589</ele>
        <time>2021-08-08T05:20:03Z</time>
      </trkpt>
      <trkpt lat="45.23183" lon="5.73389">
        <ele>789.575</ele>
        <time>2021-08-08T05:20:08Z</time>
      </trkpt>
      <trkpt lat="45.23184" lon="5.73406">
        <ele>792.372</ele>
        <time>2021-08-08T05:20:17Z</time>
      </trkpt>
      <trkpt lat="45.23182" lon="5.73418">
        <ele>793.628</ele>
        <time>2021-08-08T05:20:23Z</time>
      </trkpt>
      <trkpt lat="45.23178" lon="5.73425">
        <ele>794.135</ele>
        <time>2021-08-08T05:20:27Z</time>
      </trkpt>
      <trkpt lat="45.23168" lon="5.73436">
        <ele>795.443</ele>
        <time>2021-08-08T05:20:35Z</time>
      </trkpt>
      <trkpt lat="45.23163" lon="5.7344">
        <ele>796.835</ele>
        <time>2021-08-08T05:20:41Z</time>
      </trkpt>
      <trkpt lat="45.23155" lon="5.73446">
        <ele>798.51</ele>
        <time>2021-08-08T05:20:48Z</time>
      </trkpt>
      <trkpt lat="45.23148" lon="5.73452">
        <ele>801.043</ele>
        <time>2021-08-08T05:20:55Z</time>
      </trkpt>
      <trkpt lat="45.23143" lon="5.73454">
        <ele>802.16</ele>
        <time>2021-08-08T05:21:01Z</time>
      </trkpt>
      <trkpt lat="45.23139" lon="5.73456">
        <ele>803.525</ele>
        <time>2021-08-08T05:21:05Z</time>
      </trkpt>
      <trkpt lat="45.23133" lon="5.73462">
        <ele>804.175</ele>
        <time>2021-08-08T05:21:09Z</time>
      </trkpt>
      <trkpt lat="45.23128" lon="5.73464">
        <ele>805.337</ele>
        <time>2021-08-08T05:21:12Z</time>
      </trkpt>
      <trkpt lat="45.23119" lon="5.73471">
        <ele>806.532</ele>
        <time>2021-08-08T05:21:19Z</time>
      </trkpt>
      <trkpt lat="45.23115" lon="5.73474">
        <ele>807.405</ele>
        <time>2021-08-08T05:21:23Z</time>
      </trkpt>
      <trkpt lat="45.23106" lon="5.73473">
        <ele>808.133</ele>
        <time>2021-08-08T05:21:30Z</time>
      </trkpt>
      <trkpt lat="45.23105" lon="5.73474">
        <ele>809.138</ele>
        <time>2021-08-08T05:21:33Z</time>
      </trkpt>
      <trkpt lat="45.23101" lon="5.73473">
        <ele>809.425</ele>
        <time>2021-08-08T05:21:35Z</time>
      </trkpt>
      <trkpt lat="45.23088" lon="5.73474">
        <ele>809.696</ele>
        <time>2021-08-08T05:21:41Z</time>
      </trkpt>
      <trkpt lat="45.23085" lon="5.73471">
        <ele>810.298</ele>
        <time>2021-08-08T05:21:44Z</time>
      </trkpt>
      <trkpt lat="45.23081" lon="5.73466">
        <ele>810.516</ele>
        <time>2021-08-08T05:21:46Z</time>
      </trkpt>
      <trkpt lat="45.23067" lon="5.73467">
        <ele>811.076</ele>
        <time>2021-08-08T05:21:52Z</time>
      </trkpt>
      <trkpt lat="45.23056" lon="5.73465">
        <ele>812.967</ele>
        <time>2021-08-08T05:21:59Z</time>
      </trkpt>
      <trkpt lat="45.23045" lon="5.73462">
        <ele>814.443</ele>
        <time>2021-08-08T05:22:04Z</time>
      </trkpt>
      <trkpt lat="45.23036" lon="5.73459">
        <ele>816.464</ele>
        <time>2021-08-08T05:22:11Z</time>
      </trkpt>
      <trkpt lat="45.23026" lon="5.73459">
        <ele>818.343</ele>
        <time>2021-08-08T05:22:18Z</time>
      </trkpt>
      <trkpt lat="45.23026" lon="5.7346">
        <ele>818.402</ele>
        <time>2021-08-08T05:22:19Z</time>
      </trkpt>
      <trkpt lat="45.23021" lon="5.73463">
        <ele>819.586</ele>
        <time>2021-08-08T05:22:25Z</time>
      </trkpt>
      <trkpt lat="45.23016" lon="5.73461">
        <ele>822.166</ele>
        <time>2021-08-08T05:22:36Z</time>
      </trkpt>
      <trkpt lat="45.23011" lon="5.73458">
        <ele>823.055</ele>
        <time>2021-08-08T05:22:41Z</time>
      </trkpt>
      <trkpt lat="45.22999" lon="5.73455">
        <ele>825.121</ele>
        <time>2021-08-08T05:22:48Z</time>
      </trkpt>
      <trkpt lat="45.22989" lon="5.73448">
        <ele>825.924</ele>
        <time>2021-08-08T05:22:56Z</time>
      </trkpt>
      <trkpt lat="45.22979" lon="5.73444">
        <ele>826.713</ele>
        <time>2021-08-08T05:23:02Z</time>
      </trkpt>
      <trkpt lat="45.2297" lon="5.73445">
        <ele>827.85</ele>
        <time>2021-08-08T05:23:07Z</time>
      </trkpt>
      <trkpt lat="45.22963" lon="5.73448">
        <ele>828.213</ele>
        <time>2021-08-08T05:23:12Z</time>
      </trkpt>
      <trkpt lat="45.22955" lon="5.73448">
        <ele>830.765</ele>
        <time>2021-08-08T05:23:19Z</time>
      </trkpt>
      <trkpt lat="45.22951" lon="5.73446">
        <ele>831.631</ele>
        <time>2021-08-08T05:23:22Z</time>
      </trkpt>
      <trkpt lat="45.22941" lon="5.73444">
        <ele>834.021</ele>
        <time>2021-08-08T05:23:30Z</time>
      </trkpt>
      <trkpt lat="45.22935" lon="5.73445">
        <ele>834.799</ele>
        <time>2021-08-08T05:23:35Z</time>
      </trkpt>
      <trkpt lat="45.22928" lon="5.73446">
        <ele>836.081</ele>
        <time>2021-08-08T05:23:41Z</time>
      </trkpt>
      <trkpt lat="45.22926" lon="5.73446">
        <ele>836.189</ele>
        <time>2021-08-08T05:23:42Z</time>
      </trkpt>
      <trkpt lat="45.22912" lon="5.73447">
        <ele>837.719</ele>
        <time>2021-08-08T05:23:49Z</time>
      </trkpt>
      <trkpt lat="45.22903" lon="5.73445">
        <ele>838.407</ele>
        <time>2021-08-08T05:23:56Z</time>
      </trkpt>
      <trkpt lat="45.22894" lon="5.73443">
        <ele>839.891</ele>
        <time>2021-08-08T05:24:04Z</time>
      </trkpt>
      <trkpt lat="45.22885" lon="5.73443">
        <ele>840.965</ele>
        <time>2021-08-08T05:24:10Z</time>
      </trkpt>
      <trkpt lat="45.22881" lon="5.7344">
        <ele>841.495</ele>
        <time>2021-08-08T05:24:13Z</time>
      </trkpt>
      <trkpt lat="45.22876" lon="5.73442">
        <ele>843.098</ele>
        <time>2021-08-08T05:24:17Z</time>
      </trkpt>
      <trkpt lat="45.22867" lon="5.73441">
        <ele>843.905</ele>
        <time>2021-08-08T05:24:22Z</time>
      </trkpt>
      <trkpt lat="45.22864" lon="5.73439">
        <ele>844.634</ele>
        <time>2021-08-08T05:24:25Z</time>
      </trkpt>
      <trkpt lat="45.22851" lon="5.73437">
        <ele>845.865</ele>
        <time>2021-08-08T05:24:32Z</time>
      </trkpt>
      <trkpt lat="45.22849" lon="5.73436">
        <ele>845.645</ele>
        <time>2021-08-08T05:24:33Z</time>
      </trkpt>
      <trkpt lat="45.22834" lon="5.73432">
        <ele>846.343</ele>
        <time>2021-08-08T05:24:41Z</time>
      </trkpt>
      <trkpt lat="45.22826" lon="5.73431">
        <ele>847.352</ele>
        <time>2021-08-08T05:24:45Z</time>
      </trkpt>
      <trkpt lat="45.22819" lon="5.73429">
        <ele>848.361</ele>
        <time>2021-08-08T05:24:49Z</time>
      </trkpt>
      <trkpt lat="45.22806" lon="5.73432">
        <ele>850.335</ele>
        <time>2021-08-08T05:24:56Z</time>
      </trkpt>
      <trkpt lat="45.22799" lon="5.73428">
        <ele>850.295</ele>
        <time>2021-08-08T05:25:01Z</time>
      </trkpt>
      <trkpt lat="45.22787" lon="5.73426">
        <ele>851.71</ele>
        <time>2021-08-08T05:25:09Z</time>
      </trkpt>
      <trkpt lat="45.22784" lon="5.73425">
        <ele>852.034</ele>
        <time>2021-08-08T05:25:11Z</time>
      </trkpt>
      <trkpt lat="45.22769" lon="5.73417">
        <ele>853.866</ele>
        <time>2021-08-08T05:25:20Z</time>
      </trkpt>
      <trkpt lat="45.22759" lon="5.73414">
        <ele>854.724</ele>
        <time>2021-08-08T05:25:27Z</time>
      </trkpt>
      <trkpt lat="45.2275" lon="5.73411">
        <ele>856.159</ele>
        <time>2021-08-08T05:25:33Z</time>
      </trkpt>
      <trkpt lat="45.22741" lon="5.73409">
        <ele>857.39</ele>
        <time>2021-08-08T05:25:39Z</time>
      </trkpt>
      <trkpt lat="45.22737" lon="5.73407">
        <ele>857.897</ele>
        <time>2021-08-08T05:25:43Z</time>
      </trkpt>
      <trkpt lat="45.22731" lon="5.73404">
        <ele>858.727</ele>
        <time>2021-08-08T05:25:46Z</time>
      </trkpt>
      <trkpt lat="45.22726" lon="5.73403">
        <ele>858.941</ele>
        <time>2021-08-08T05:25:49Z</time>
      </trkpt>
      <trkpt lat="45.2272" lon="5.73398">
        <ele>859.467</ele>
        <time>2021-08-08T05:25:53Z</time>
      </trkpt>
      <trkpt lat="45.22709" lon="5.73396">
        <ele>860.858</ele>
        <time>2021-08-08T05:26:00Z</time>
      </trkpt>
      <trkpt lat="45.22696" lon="5.73392">
        <ele>862.571</ele>
        <time>2021-08-08T05:26:08Z</time>
      </trkpt>
      <trkpt lat="45.22688" lon="5.7339">
        <ele>863.624</ele>
        <time>2021-08-08T05:26:14Z</time>
      </trkpt>
      <trkpt lat="45.22681" lon="5.73391">
        <ele>865.596</ele>
        <time>2021-08-08T05:26:20Z</time>
      </trkpt>
      <trkpt lat="45.22671" lon="5.73385">
        <ele>866.675</ele>
        <time>2021-08-08T05:26:26Z</time>
      </trkpt>
      <trkpt lat="45.22665" lon="5.73385">
        <ele>867.663</ele>
        <time>2021-08-08T05:26:33Z</time>
      </trkpt>
      <trkpt lat="45.22662" lon="5.73384">
        <ele>869.048</ele>
        <time>2021-08-08T05:26:35Z</time>
      </trkpt>
      <trkpt lat="45.22658" lon="5.73383">
        <ele>870.526</ele>
        <time>2021-08-08T05:26:39Z</time>
      </trkpt>
      <trkpt lat="45.22651" lon="5.73382">
        <ele>871.862</ele>
        <time>2021-08-08T05:26:45Z</time>
      </trkpt>
      <trkpt lat="45.22646" lon="5.73379">
        <ele>872.182</ele>
        <time>2021-08-08T05:26:51Z</time>
      </trkpt>
      <trkpt lat="45.2264" lon="5.73378">
        <ele>873.527</ele>
        <time>2021-08-08T05:26:57Z</time>
      </trkpt>
      <trkpt lat="45.22633" lon="5.7338">
        <ele>875.569</ele>
        <time>2021-08-08T05:27:04Z</time>
      </trkpt>
      <trkpt lat="45.22625" lon="5.73379">
        <ele>877.472</ele>
        <time>2021-08-08T05:27:12Z</time>
      </trkpt>
      <trkpt lat="45.22619" lon="5.73379">
        <ele>879.474</ele>
        <time>2021-08-08T05:27:19Z</time>
      </trkpt>
      <trkpt lat="45.22617" lon="5.73381">
        <ele>879.976</ele>
        <time>2021-08-08T05:27:24Z</time>
      </trkpt>
      <trkpt lat="45.22611" lon="5.73385">
        <ele>880.496</ele>
        <time>2021-08-08T05:27:31Z</time>
      </trkpt>
      <trkpt lat="45.226" lon="5.73384">
        <ele>882.821</ele>
        <time>2021-08-08T05:27:39Z</time>
      </trkpt>
      <trkpt lat="45.2259" lon="5.73386">
        <ele>884.628</ele>
        <time>2021-08-08T05:27:46Z</time>
      </trkpt>
      <trkpt lat="45.22584" lon="5.73388">
        <ele>888.025</ele>
        <time>2021-08-08T05:27:53Z</time>
      </trkpt>
      <trkpt lat="45.22578" lon="5.73392">
        <ele>888.575</ele>
        <time>2021-08-08T05:27:59Z</time>
      </trkpt>
      <trkpt lat="45.22572" lon="5.73392">
        <ele>889.336</ele>
        <time>2021-08-08T05:28:05Z</time>
      </trkpt>
      <trkpt lat="45.22568" lon="5.73394">
        <ele>890.713</ele>
        <time>2021-08-08T05:28:08Z</time>
      </trkpt>
      <trkpt lat="45.22567" lon="5.73395">
        <ele>891.26</ele>
        <time>2021-08-08T05:28:09Z</time>
      </trkpt>
      <trkpt lat="45.22563" lon="5.73396">
        <ele>892.741</ele>
        <time>2021-08-08T05:28:12Z</time>
      </trkpt>
      <trkpt lat="45.22558" lon="5.73396">
        <ele>893.237</ele>
        <time>2021-08-08T05:28:18Z</time>
      </trkpt>
      <trkpt lat="45.22552" lon="5.73398">
        <ele>894.079</ele>
        <time>2021-08-08T05:28:22Z</time>
      </trkpt>
      <trkpt lat="45.22547" lon="5.73396">
        <ele>894.619</ele>
        <time>2021-08-08T05:28:26Z</time>
      </trkpt>
      <trkpt lat="45.22538" lon="5.734">
        <ele>896.12</ele>
        <time>2021-08-08T05:28:33Z</time>
      </trkpt>
      <trkpt lat="45.2253" lon="5.73403">
        <ele>898.369</ele>
        <time>2021-08-08T05:28:39Z</time>
      </trkpt>
      <trkpt lat="45.22524" lon="5.73405">
        <ele>900.168</ele>
        <time>2021-08-08T05:28:44Z</time>
      </trkpt>
      <trkpt lat="45.22516" lon="5.73408">
        <ele>901.933</ele>
        <time>2021-08-08T05:28:51Z</time>
      </trkpt>
      <trkpt lat="45.22514" lon="5.73409">
        <ele>903.665</ele>
        <time>2021-08-08T05:28:55Z</time>
      </trkpt>
      <trkpt lat="45.22508" lon="5.73413">
        <ele>905.834</ele>
        <time>2021-08-08T05:29:07Z</time>
      </trkpt>
      <trkpt lat="45.22501" lon="5.73419">
        <ele>908.473</ele>
        <time>2021-08-08T05:29:14Z</time>
      </trkpt>
      <trkpt lat="45.225" lon="5.7342">
        <ele>908.692</ele>
        <time>2021-08-08T05:29:15Z</time>
      </trkpt>
      <trkpt lat="45.22496" lon="5.73419">
        <ele>910.61</ele>
        <time>2021-08-08T05:29:21Z</time>
      </trkpt>
      <trkpt lat="45.22493" lon="5.73423">
        <ele>912.96</ele>
        <time>2021-08-08T05:29:28Z</time>
      </trkpt>
      <trkpt lat="45.2249" lon="5.73426">
        <ele>914.4</ele>
        <time>2021-08-08T05:29:32Z</time>
      </trkpt>
      <trkpt lat="45.22488" lon="5.73435">
        <ele>916.412</ele>
        <time>2021-08-08T05:29:40Z</time>
      </trkpt>
      <trkpt lat="45.22483" lon="5.73436">
        <ele>917.201</ele>
        <time>2021-08-08T05:29:45Z</time>
      </trkpt>
      <trkpt lat="45.22468" lon="5.73434">
        <ele>918.194</ele>
        <time>2021-08-08T05:29:54Z</time>
      </trkpt>
      <trkpt lat="45.22462" lon="5.73436">
        <ele>919.389</ele>
        <time>2021-08-08T05:29:59Z</time>
      </trkpt>
      <trkpt lat="45.22459" lon="5.73436">
        <ele>919.39</ele>
        <time>2021-08-08T05:30:01Z</time>
      </trkpt>
      <trkpt lat="45.22452" lon="5.73437">
        <ele>919.809</ele>
        <time>2021-08-08T05:30:05Z</time>
      </trkpt>
      <trkpt lat="45.22448" lon="5.73437">
        <ele>920.283</ele>
        <time>2021-08-08T05:30:07Z</time>
      </trkpt>
      <trkpt lat="45.22436" lon="5.73436">
        <ele>922.154</ele>
        <time>2021-08-08T05:30:14Z</time>
      </trkpt>
      <trkpt lat="45.22418" lon="5.73439">
        <ele>923.77</ele>
        <time>2021-08-08T05:30:24Z</time>
      </trkpt>
      <trkpt lat="45.22409" lon="5.73438">
        <ele>924.467</ele>
        <time>2021-08-08T05:30:30Z</time>
      </trkpt>
      <trkpt lat="45.22399" lon="5.73434">
        <ele>925.722</ele>
        <time>2021-08-08T05:30:36Z</time>
      </trkpt>
      <trkpt lat="45.22392" lon="5.73431">
        <ele>925.384</ele>
        <time>2021-08-08T05:30:41Z</time>
      </trkpt>
      <trkpt lat="45.22387" lon="5.73429">
        <ele>926.281</ele>
        <time>2021-08-08T05:30:44Z</time>
      </trkpt>
      <trkpt lat="45.22375" lon="5.73428">
        <ele>926.766</ele>
        <time>2021-08-08T05:30:51Z</time>
      </trkpt>
      <trkpt lat="45.22366" lon="5.73426">
        <ele>927.953</ele>
        <time>2021-08-08T05:30:56Z</time>
      </trkpt>
      <trkpt lat="45.22363" lon="5.73426">
        <ele>928.051</ele>
        <time>2021-08-08T05:30:58Z</time>
      </trkpt>
      <trkpt lat="45.22351" lon="5.73422">
        <ele>929.543</ele>
        <time>2021-08-08T05:31:07Z</time>
      </trkpt>
      <trkpt lat="45.22342" lon="5.73423">
        <ele>932.109</ele>
        <time>2021-08-08T05:31:16Z</time>
      </trkpt>
      <trkpt lat="45.22337" lon="5.73423">
        <ele>934.062</ele>
        <time>2021-08-08T05:31:20Z</time>
      </trkpt>
      <trkpt lat="45.22327" lon="5.7342">
        <ele>936.781</ele>
        <time>2021-08-08T05:31:28Z</time>
      </trkpt>
      <trkpt lat="45.22323" lon="5.7342">
        <ele>937.699</ele>
        <time>2021-08-08T05:31:32Z</time>
      </trkpt>
      <trkpt lat="45.22311" lon="5.73416">
        <ele>940.579</ele>
        <time>2021-08-08T05:31:42Z</time>
      </trkpt>
      <trkpt lat="45.223" lon="5.73414">
        <ele>942.991</ele>
        <time>2021-08-08T05:31:51Z</time>
      </trkpt>
      <trkpt lat="45.22293" lon="5.73416">
        <ele>944.641</ele>
        <time>2021-08-08T05:31:59Z</time>
      </trkpt>
      <trkpt lat="45.2229" lon="5.73416">
        <ele>944.485</ele>
        <time>2021-08-08T05:32:01Z</time>
      </trkpt>
      <trkpt lat="45.2228" lon="5.73413">
        <ele>946.953</ele>
        <time>2021-08-08T05:32:09Z</time>
      </trkpt>
      <trkpt lat="45.22274" lon="5.73409">
        <ele>948.511</ele>
        <time>2021-08-08T05:32:15Z</time>
      </trkpt>
      <trkpt lat="45.22269" lon="5.73405">
        <ele>950.304</ele>
        <time>2021-08-08T05:32:19Z</time>
      </trkpt>
      <trkpt lat="45.22259" lon="5.73404">
        <ele>952.929</ele>
        <time>2021-08-08T05:32:29Z</time>
      </trkpt>
      <trkpt lat="45.22252" lon="5.73406">
        <ele>953.493</ele>
        <time>2021-08-08T05:32:36Z</time>
      </trkpt>
      <trkpt lat="45.22248" lon="5.7341">
        <ele>955.785</ele>
        <time>2021-08-08T05:32:43Z</time>
      </trkpt>
      <trkpt lat="45.22247" lon="5.73411">
        <ele>956.982</ele>
        <time>2021-08-08T05:32:45Z</time>
      </trkpt>
      <trkpt lat="45.22245" lon="5.73411">
        <ele>957.517</ele>
        <time>2021-08-08T05:32:46Z</time>
      </trkpt>
      <trkpt lat="45.22243" lon="5.73411">
        <ele>958.276</ele>
        <time>2021-08-08T05:32:48Z</time>
      </trkpt>
      <trkpt lat="45.22236" lon="5.73409">
        <ele>959.516</ele>
        <time>2021-08-08T05:32:54Z</time>
      </trkpt>
      <trkpt lat="45.22233" lon="5.73408">
        <ele>961.09</ele>
        <time>2021-08-08T05:32:58Z</time>
      </trkpt>
      <trkpt lat="45.22227" lon="5.73406">
        <ele>964.137</ele>
        <time>2021-08-08T05:33:09Z</time>
      </trkpt>
      <trkpt lat="45.22219" lon="5.73403">
        <ele>965.772</ele>
        <time>2021-08-08T05:33:16Z</time>
      </trkpt>
      <trkpt lat="45.22212" lon="5.73401">
        <ele>968.1</ele>
        <time>2021-08-08T05:33:23Z</time>
      </trkpt>
      <trkpt lat="45.22205" lon="5.73401">
        <ele>969.572</ele>
        <time>2021-08-08T05:33:29Z</time>
      </trkpt>
      <trkpt lat="45.22201" lon="5.73402">
        <ele>972.928</ele>
        <time>2021-08-08T05:33:36Z</time>
      </trkpt>
      <trkpt lat="45.22196" lon="5.73401">
        <ele>974.305</ele>
        <time>2021-08-08T05:33:42Z</time>
      </trkpt>
      <trkpt lat="45.22189" lon="5.73398">
        <ele>975.486</ele>
        <time>2021-08-08T05:33:49Z</time>
      </trkpt>
      <trkpt lat="45.22185" lon="5.73398">
        <ele>977.468</ele>
        <time>2021-08-08T05:33:54Z</time>
      </trkpt>
      <trkpt lat="45.22183" lon="5.734">
        <ele>979.963</ele>
        <time>2021-08-08T05:33:58Z</time>
      </trkpt>
      <trkpt lat="45.2218" lon="5.73401">
        <ele>981.218</ele>
        <time>2021-08-08T05:34:04Z</time>
      </trkpt>
      <trkpt lat="45.22176" lon="5.73401">
        <ele>982.586</ele>
        <time>2021-08-08T05:34:08Z</time>
      </trkpt>
      <trkpt lat="45.22174" lon="5.73404">
        <ele>984.582</ele>
        <time>2021-08-08T05:34:14Z</time>
      </trkpt>
      <trkpt lat="45.22169" lon="5.73402">
        <ele>985.758</ele>
        <time>2021-08-08T05:34:20Z</time>
      </trkpt>
      <trkpt lat="45.22162" lon="5.73404">
        <ele>988.76</ele>
        <time>2021-08-08T05:34:29Z</time>
      </trkpt>
      <trkpt lat="45.22158" lon="5.73403">
        <ele>990.287</ele>
        <time>2021-08-08T05:34:33Z</time>
      </trkpt>
      <trkpt lat="45.22155" lon="5.73405">
        <ele>991.675</ele>
        <time>2021-08-08T05:34:35Z</time>
      </trkpt>
      <trkpt lat="45.2215" lon="5.73403">
        <ele>992.389</ele>
        <time>2021-08-08T05:34:39Z</time>
      </trkpt>
      <trkpt lat="45.22144" lon="5.73401">
        <ele>993.949</ele>
        <time>2021-08-08T05:34:46Z</time>
      </trkpt>
      <trkpt lat="45.2214" lon="5.734">
        <ele>994.984</ele>
        <time>2021-08-08T05:34:52Z</time>
      </trkpt>
      <trkpt lat="45.22134" lon="5.73399">
        <ele>997.683</ele>
        <time>2021-08-08T05:34:59Z</time>
      </trkpt>
      <trkpt lat="45.22132" lon="5.73398">
        <ele>998.326</ele>
        <time>2021-08-08T05:35:00Z</time>
      </trkpt>
      <trkpt lat="45.22121" lon="5.73396">
        <ele>1000.549</ele>
        <time>2021-08-08T05:35:08Z</time>
      </trkpt>
      <trkpt lat="45.22117" lon="5.73395">
        <ele>1002.022</ele>
        <time>2021-08-08T05:35:13Z</time>
      </trkpt>
      <trkpt lat="45.22114" lon="5.73396">
        <ele>1002.984</ele>
        <time>2021-08-08T05:35:17Z</time>
      </trkpt>
      <trkpt lat="45.22108" lon="5.73396">
        <ele>1004.179</ele>
        <time>2021-08-08T05:35:22Z</time>
      </trkpt>
      <trkpt lat="45.22102" lon="5.73398">
        <ele>1005.645</ele>
        <time>2021-08-08T05:35:29Z</time>
      </trkpt>
      <trkpt lat="45.22097" lon="5.73398">
        <ele>1007.373</ele>
        <time>2021-08-08T05:35:33Z</time>
      </trkpt>
      <trkpt lat="45.22091" lon="5.7339">
        <ele>1010.064</ele>
        <time>2021-08-08T05:35:40Z</time>
      </trkpt>
      <trkpt lat="45.22086" lon="5.73383">
        <ele>1012.733</ele>
        <time>2021-08-08T05:35:47Z</time>
      </trkpt>
      <trkpt lat="45.22084" lon="5.73383">
        <ele>1014.039</ele>
        <time>2021-08-08T05:35:50Z</time>
      </trkpt>
      <trkpt lat="45.22083" lon="5.73391">
        <ele>1013.971</ele>
        <time>2021-08-08T05:35:56Z</time>
      </trkpt>
      <trkpt lat="45.22084" lon="5.73396">
        <ele>1014.535</ele>
        <time>2021-08-08T05:36:01Z</time>
      </trkpt>
      <trkpt lat="45.22085" lon="5.73397">
        <ele>1014.957</ele>
        <time>2021-08-08T05:36:02Z</time>
      </trkpt>
      <trkpt lat="45.22091" lon="5.73411">
        <ele>1016.273</ele>
        <time>2021-08-08T05:36:10Z</time>
      </trkpt>
      <trkpt lat="45.2209" lon="5.73412">
        <ele>1016.275</ele>
        <time>2021-08-08T05:36:11Z</time>
      </trkpt>
      <trkpt lat="45.22092" lon="5.73419">
        <ele>1017.936</ele>
        <time>2021-08-08T05:36:17Z</time>
      </trkpt>
      <trkpt lat="45.22094" lon="5.73429">
        <ele>1021.109</ele>
        <time>2021-08-08T05:36:26Z</time>
      </trkpt>
      <trkpt lat="45.22096" lon="5.73442">
        <ele>1023.186</ele>
        <time>2021-08-08T05:36:38Z</time>
      </trkpt>
      <trkpt lat="45.22096" lon="5.73446">
        <ele>1026.429</ele>
        <time>2021-08-08T05:36:41Z</time>
      </trkpt>
      <trkpt lat="45.22094" lon="5.73452">
        <ele>1028.968</ele>
        <time>2021-08-08T05:36:48Z</time>
      </trkpt>
      <trkpt lat="45.22093" lon="5.73453">
        <ele>1029.107</ele>
        <time>2021-08-08T05:36:49Z</time>
      </trkpt>
      <trkpt lat="45.22085" lon="5.73453">
        <ele>1031.299</ele>
        <time>2021-08-08T05:36:56Z</time>
      </trkpt>
      <trkpt lat="45.22078" lon="5.73459">
        <ele>1032.77</ele>
        <time>2021-08-08T05:37:03Z</time>
      </trkpt>
      <trkpt lat="45.22076" lon="5.73466">
        <ele>1034.841</ele>
        <time>2021-08-08T05:37:08Z</time>
      </trkpt>
      <trkpt lat="45.22075" lon="5.73471">
        <ele>1036.941</ele>
        <time>2021-08-08T05:37:15Z</time>
      </trkpt>
      <trkpt lat="45.22071" lon="5.73478">
        <ele>1038.549</ele>
        <time>2021-08-08T05:37:23Z</time>
      </trkpt>
      <trkpt lat="45.22068" lon="5.73482">
        <ele>1038.854</ele>
        <time>2021-08-08T05:37:27Z</time>
      </trkpt>
      <trkpt lat="45.22065" lon="5.73484">
        <ele>1039.639</ele>
        <time>2021-08-08T05:37:29Z</time>
      </trkpt>
      <trkpt lat="45.22051" lon="5.73476">
        <ele>1040.199</ele>
        <time>2021-08-08T05:37:38Z</time>
      </trkpt>
      <trkpt lat="45.22049" lon="5.73474">
        <ele>1039.934</ele>
        <time>2021-08-08T05:37:40Z</time>
      </trkpt>
      <trkpt lat="45.22042" lon="5.73471">
        <ele>1042.578</ele>
        <time>2021-08-08T05:37:45Z</time>
      </trkpt>
      <trkpt lat="45.22032" lon="5.73464">
        <ele>1045.294</ele>
        <time>2021-08-08T05:37:54Z</time>
      </trkpt>
      <trkpt lat="45.22023" lon="5.73454">
        <ele>1046.436</ele>
        <time>2021-08-08T05:38:02Z</time>
      </trkpt>
      <trkpt lat="45.22011" lon="5.73443">
        <ele>1048.62</ele>
        <time>2021-08-08T05:38:10Z</time>
      </trkpt>
      <trkpt lat="45.2201" lon="5.73442">
        <ele>1048.698</ele>
        <time>2021-08-08T05:38:11Z</time>
      </trkpt>
      <trkpt lat="45.21998" lon="5.73443">
        <ele>1049.108</ele>
        <time>2021-08-08T05:38:18Z</time>
      </trkpt>
      <trkpt lat="45.21988" lon="5.7344">
        <ele>1047.97</ele>
        <time>2021-08-08T05:38:25Z</time>
      </trkpt>
      <trkpt lat="45.21983" lon="5.73438">
        <ele>1046.393</ele>
        <time>2021-08-08T05:38:29Z</time>
      </trkpt>
      <trkpt lat="45.21978" lon="5.73435">
        <ele>1046.071</ele>
        <time>2021-08-08T05:38:32Z</time>
      </trkpt>
      <trkpt lat="45.21975" lon="5.73433">
        <ele>1045.737</ele>
        <time>2021-08-08T05:38:34Z</time>
      </trkpt>
      <trkpt lat="45.21962" lon="5.7343">
        <ele>1045.039</ele>
        <time>2021-08-08T05:38:40Z</time>
      </trkpt>
      <trkpt lat="45.2195" lon="5.73431">
        <ele>1044.431</ele>
        <time>2021-08-08T05:38:46Z</time>
      </trkpt>
      <trkpt lat="45.21941" lon="5.73426">
        <ele>1042.847</ele>
        <time>2021-08-08T05:38:52Z</time>
      </trkpt>
      <trkpt lat="45.2194" lon="5.73426">
        <ele>1042.174</ele>
        <time>2021-08-08T05:38:54Z</time>
      </trkpt>
      <trkpt lat="45.21936" lon="5.73424">
        <ele>1041.135</ele>
        <time>2021-08-08T05:38:57Z</time>
      </trkpt>
      <trkpt lat="45.21931" lon="5.73415">
        <ele>1040.39</ele>
        <time>2021-08-08T05:39:03Z</time>
      </trkpt>
      <trkpt lat="45.2193" lon="5.73413">
        <ele>1039.871</ele>
        <time>2021-08-08T05:39:05Z</time>
      </trkpt>
      <trkpt lat="45.21924" lon="5.73403">
        <ele>1039.874</ele>
        <time>2021-08-08T05:39:09Z</time>
      </trkpt>
      <trkpt lat="45.21913" lon="5.73393">
        <ele>1040.594</ele>
        <time>2021-08-08T05:39:15Z</time>
      </trkpt>
      <trkpt lat="45.21911" lon="5.73391">
        <ele>1040.56</ele>
        <time>2021-08-08T05:39:17Z</time>
      </trkpt>
      <trkpt lat="45.21903" lon="5.73386">
        <ele>1041.044</ele>
        <time>2021-08-08T05:39:23Z</time>
      </trkpt>
      <trkpt lat="45.21897" lon="5.73385">
        <ele>1040.854</ele>
        <time>2021-08-08T05:39:27Z</time>
      </trkpt>
      <trkpt lat="45.21892" lon="5.73379">
        <ele>1039.966</ele>
        <time>2021-08-08T05:39:32Z</time>
      </trkpt>
      <trkpt lat="45.21886" lon="5.73371">
        <ele>1039.246</ele>
        <time>2021-08-08T05:39:39Z</time>
      </trkpt>
      <trkpt lat="45.2188" lon="5.73369">
        <ele>1040.527</ele>
        <time>2021-08-08T05:39:43Z</time>
      </trkpt>
      <trkpt lat="45.21879" lon="5.73369">
        <ele>1041.114</ele>
        <time>2021-08-08T05:39:44Z</time>
      </trkpt>
      <trkpt lat="45.21869" lon="5.73361">
        <ele>1043.088</ele>
        <time>2021-08-08T05:39:50Z</time>
      </trkpt>
      <trkpt lat="45.21863" lon="5.73359">
        <ele>1044.876</ele>
        <time>2021-08-08T05:39:56Z</time>
      </trkpt>
      <trkpt lat="45.21859" lon="5.73358">
        <ele>1045.402</ele>
        <time>2021-08-08T05:39:59Z</time>
      </trkpt>
      <trkpt lat="45.21851" lon="5.7335">
        <ele>1048.018</ele>
        <time>2021-08-08T05:40:06Z</time>
      </trkpt>
      <trkpt lat="45.21846" lon="5.73344">
        <ele>1048.964</ele>
        <time>2021-08-08T05:40:14Z</time>
      </trkpt>
      <trkpt lat="45.21846" lon="5.73347">
        <ele>1048.701</ele>
        <time>2021-08-08T05:40:42Z</time>
      </trkpt>
      <trkpt lat="45.21844" lon="5.73354">
        <ele>1048.166</ele>
        <time>2021-08-08T05:40:49Z</time>
      </trkpt>
      <trkpt lat="45.21843" lon="5.73358">
        <ele>1048.406</ele>
        <time>2021-08-08T05:40:55Z</time>
      </trkpt>
      <trkpt lat="45.21844" lon="5.73361">
        <ele>1048.642</ele>
        <time>2021-08-08T05:41:05Z</time>
      </trkpt>
      <trkpt lat="45.21842" lon="5.73363">
        <ele>1048.496</ele>
        <time>2021-08-08T05:41:25Z</time>
      </trkpt>
      <trkpt lat="45.21841" lon="5.73361">
        <ele>1048.657</ele>
        <time>2021-08-08T05:41:47Z</time>
      </trkpt>
      <trkpt lat="45.21844" lon="5.7335">
        <ele>1048.284</ele>
        <time>2021-08-08T05:43:03Z</time>
      </trkpt>
      <trkpt lat="45.21844" lon="5.73344">
        <ele>1047.76</ele>
        <time>2021-08-08T05:43:11Z</time>
      </trkpt>
      <trkpt lat="45.21846" lon="5.73343">
        <ele>1048.146</ele>
        <time>2021-08-08T05:43:22Z</time>
      </trkpt>
      <trkpt lat="45.21848" lon="5.73345">
        <ele>1048.008</ele>
        <time>2021-08-08T05:43:36Z</time>
      </trkpt>
      <trkpt lat="45.21849" lon="5.73345">
        <ele>1047.46</ele>
        <time>2021-08-08T05:44:01Z</time>
      </trkpt>
      <trkpt lat="45.21846" lon="5.73341">
        <ele>1047.914</ele>
        <time>2021-08-08T05:44:19Z</time>
      </trkpt>
      <trkpt lat="45.21838" lon="5.73334">
        <ele>1047.158</ele>
        <time>2021-08-08T05:44:27Z</time>
      </trkpt>
      <trkpt lat="45.2183" lon="5.73326">
        <ele>1045.313</ele>
        <time>2021-08-08T05:44:35Z</time>
      </trkpt>
      <trkpt lat="45.21827" lon="5.73324">
        <ele>1045.303</ele>
        <time>2021-08-08T05:44:37Z</time>
      </trkpt>
      <trkpt lat="45.2182" lon="5.73315">
        <ele>1043.922</ele>
        <time>2021-08-08T05:44:46Z</time>
      </trkpt>
      <trkpt lat="45.21816" lon="5.7331">
        <ele>1042.975</ele>
        <time>2021-08-08T05:44:52Z</time>
      </trkpt>
      <trkpt lat="45.21815" lon="5.7331">
        <ele>1043.167</ele>
        <time>2021-08-08T05:44:53Z</time>
      </trkpt>
      <trkpt lat="45.21812" lon="5.73306">
        <ele>1042.279</ele>
        <time>2021-08-08T05:44:56Z</time>
      </trkpt>
      <trkpt lat="45.21807" lon="5.73297">
        <ele>1041.087</ele>
        <time>2021-08-08T05:45:01Z</time>
      </trkpt>
      <trkpt lat="45.21801" lon="5.73293">
        <ele>1040.441</ele>
        <time>2021-08-08T05:45:07Z</time>
      </trkpt>
      <trkpt lat="45.21795" lon="5.73286">
        <ele>1039.827</ele>
        <time>2021-08-08T05:45:13Z</time>
      </trkpt>
      <trkpt lat="45.21787" lon="5.73278">
        <ele>1038.518</ele>
        <time>2021-08-08T05:45:20Z</time>
      </trkpt>
      <trkpt lat="45.21785" lon="5.73275">
        <ele>1036.99</ele>
        <time>2021-08-08T05:45:23Z</time>
      </trkpt>
      <trkpt lat="45.21779" lon="5.73269">
        <ele>1036.192</ele>
        <time>2021-08-08T05:45:28Z</time>
      </trkpt>
      <trkpt lat="45.21783" lon="5.73259">
        <ele>1034.383</ele>
        <time>2021-08-08T05:45:35Z</time>
      </trkpt>
      <trkpt lat="45.21783" lon="5.73257">
        <ele>1034.155</ele>
        <time>2021-08-08T05:45:36Z</time>
      </trkpt>
      <trkpt lat="45.21778" lon="5.73249">
        <ele>1033.27</ele>
        <time>2021-08-08T05:45:42Z</time>
      </trkpt>
      <trkpt lat="45.21775" lon="5.7324">
        <ele>1031.036</ele>
        <time>2021-08-08T05:45:49Z</time>
      </trkpt>
      <trkpt lat="45.21768" lon="5.73233">
        <ele>1030.785</ele>
        <time>2021-08-08T05:45:56Z</time>
      </trkpt>
      <trkpt lat="45.21766" lon="5.7323">
        <ele>1030.456</ele>
        <time>2021-08-08T05:45:59Z</time>
      </trkpt>
      <trkpt lat="45.21758" lon="5.73221">
        <ele>1030.099</ele>
        <time>2021-08-08T05:46:09Z</time>
      </trkpt>
      <trkpt lat="45.21757" lon="5.73213">
        <ele>1028.657</ele>
        <time>2021-08-08T05:46:18Z</time>
      </trkpt>
      <trkpt lat="45.21753" lon="5.73207">
        <ele>1027.118</ele>
        <time>2021-08-08T05:46:24Z</time>
      </trkpt>
      <trkpt lat="45.21746" lon="5.73201">
        <ele>1027.671</ele>
        <time>2021-08-08T05:46:30Z</time>
      </trkpt>
      <trkpt lat="45.21744" lon="5.73203">
        <ele>1028.251</ele>
        <time>2021-08-08T05:46:33Z</time>
      </trkpt>
      <trkpt lat="45.2174" lon="5.73203">
        <ele>1028.083</ele>
        <time>2021-08-08T05:46:36Z</time>
      </trkpt>
      <trkpt lat="45.21732" lon="5.7321">
        <ele>1027.464</ele>
        <time>2021-08-08T05:46:44Z</time>
      </trkpt>
      <trkpt lat="45.21729" lon="5.73214">
        <ele>1025.375</ele>
        <time>2021-08-08T05:46:50Z</time>
      </trkpt>
      <trkpt lat="45.21726" lon="5.73217">
        <ele>1023.431</ele>
        <time>2021-08-08T05:46:56Z</time>
      </trkpt>
      <trkpt lat="45.21724" lon="5.73219">
        <ele>1022.825</ele>
        <time>2021-08-08T05:46:59Z</time>
      </trkpt>
      <trkpt lat="45.21719" lon="5.73216">
        <ele>1022.245</ele>
        <time>2021-08-08T05:47:05Z</time>
      </trkpt>
      <trkpt lat="45.21716" lon="5.73219">
        <ele>1021.879</ele>
        <time>2021-08-08T05:47:13Z</time>
      </trkpt>
      <trkpt lat="45.21713" lon="5.73222">
        <ele>1021.483</ele>
        <time>2021-08-08T05:47:30Z</time>
      </trkpt>
      <trkpt lat="45.21714" lon="5.73214">
        <ele>1021.332</ele>
        <time>2021-08-08T05:47:34Z</time>
      </trkpt>
      <trkpt lat="45.21708" lon="5.73202">
        <ele>1021.408</ele>
        <time>2021-08-08T05:47:42Z</time>
      </trkpt>
      <trkpt lat="45.217" lon="5.73192">
        <ele>1020.616</ele>
        <time>2021-08-08T05:47:49Z</time>
      </trkpt>
      <trkpt lat="45.217" lon="5.73191">
        <ele>1020.463</ele>
        <time>2021-08-08T05:47:50Z</time>
      </trkpt>
      <trkpt lat="45.21692" lon="5.73181">
        <ele>1019.763</ele>
        <time>2021-08-08T05:47:59Z</time>
      </trkpt>
      <trkpt lat="45.21687" lon="5.73171">
        <ele>1017.675</ele>
        <time>2021-08-08T05:48:06Z</time>
      </trkpt>
      <trkpt lat="45.21682" lon="5.73163">
        <ele>1015.312</ele>
        <time>2021-08-08T05:48:14Z</time>
      </trkpt>
      <trkpt lat="45.21679" lon="5.73156">
        <ele>1013.97</ele>
        <time>2021-08-08T05:48:20Z</time>
      </trkpt>
      <trkpt lat="45.21676" lon="5.73148">
        <ele>1012.226</ele>
        <time>2021-08-08T05:48:28Z</time>
      </trkpt>
      <trkpt lat="45.21673" lon="5.73142">
        <ele>1009.153</ele>
        <time>2021-08-08T05:48:34Z</time>
      </trkpt>
      <trkpt lat="45.21668" lon="5.73139">
        <ele>1007.976</ele>
        <time>2021-08-08T05:48:41Z</time>
      </trkpt>
      <trkpt lat="45.21666" lon="5.73139">
        <ele>1006.756</ele>
        <time>2021-08-08T05:48:43Z</time>
      </trkpt>
      <trkpt lat="45.21662" lon="5.73136">
        <ele>1004.767</ele>
        <time>2021-08-08T05:48:48Z</time>
      </trkpt>
      <trkpt lat="45.21657" lon="5.73137">
        <ele>1002.953</ele>
        <time>2021-08-08T05:48:54Z</time>
      </trkpt>
      <trkpt lat="45.21653" lon="5.73135">
        <ele>1002.274</ele>
        <time>2021-08-08T05:48:57Z</time>
      </trkpt>
      <trkpt lat="45.21647" lon="5.73136">
        <ele>1001.083</ele>
        <time>2021-08-08T05:49:04Z</time>
      </trkpt>
      <trkpt lat="45.21638" lon="5.73138">
        <ele>997.627</ele>
        <time>2021-08-08T05:49:11Z</time>
      </trkpt>
      <trkpt lat="45.21637" lon="5.73138">
        <ele>997.594</ele>
        <time>2021-08-08T05:49:12Z</time>
      </trkpt>
      <trkpt lat="45.21629" lon="5.73139">
        <ele>995.871</ele>
        <time>2021-08-08T05:49:19Z</time>
      </trkpt>
      <trkpt lat="45.21627" lon="5.73136">
        <ele>995.426</ele>
        <time>2021-08-08T05:49:21Z</time>
      </trkpt>
      <trkpt lat="45.21623" lon="5.73134">
        <ele>995.058</ele>
        <time>2021-08-08T05:49:24Z</time>
      </trkpt>
      <trkpt lat="45.21617" lon="5.73129">
        <ele>993.172</ele>
        <time>2021-08-08T05:49:28Z</time>
      </trkpt>
      <trkpt lat="45.21607" lon="5.73124">
        <ele>990.888</ele>
        <time>2021-08-08T05:49:34Z</time>
      </trkpt>
      <trkpt lat="45.21603" lon="5.73121">
        <ele>989.856</ele>
        <time>2021-08-08T05:49:36Z</time>
      </trkpt>
      <trkpt lat="45.21594" lon="5.73115">
        <ele>988.007</ele>
        <time>2021-08-08T05:49:41Z</time>
      </trkpt>
      <trkpt lat="45.21585" lon="5.7312">
        <ele>986.109</ele>
        <time>2021-08-08T05:49:49Z</time>
      </trkpt>
      <trkpt lat="45.21583" lon="5.73126">
        <ele>984.796</ele>
        <time>2021-08-08T05:49:54Z</time>
      </trkpt>
      <trkpt lat="45.21584" lon="5.7313">
        <ele>983.902</ele>
        <time>2021-08-08T05:49:57Z</time>
      </trkpt>
      <trkpt lat="45.21583" lon="5.73138">
        <ele>982.493</ele>
        <time>2021-08-08T05:50:02Z</time>
      </trkpt>
      <trkpt lat="45.21577" lon="5.73142">
        <ele>979.217</ele>
        <time>2021-08-08T05:50:10Z</time>
      </trkpt>
      <trkpt lat="45.21576" lon="5.73143">
        <ele>977.908</ele>
        <time>2021-08-08T05:50:12Z</time>
      </trkpt>
      <trkpt lat="45.21575" lon="5.73147">
        <ele>976.8</ele>
        <time>2021-08-08T05:50:16Z</time>
      </trkpt>
      <trkpt lat="45.21575" lon="5.73151">
        <ele>975.875</ele>
        <time>2021-08-08T05:50:20Z</time>
      </trkpt>
      <trkpt lat="45.21571" lon="5.73159">
        <ele>973.75</ele>
        <time>2021-08-08T05:50:26Z</time>
      </trkpt>
      <trkpt lat="45.21568" lon="5.73165">
        <ele>970.769</ele>
        <time>2021-08-08T05:50:32Z</time>
      </trkpt>
      <trkpt lat="45.21569" lon="5.73168">
        <ele>969.544</ele>
        <time>2021-08-08T05:50:34Z</time>
      </trkpt>
      <trkpt lat="45.2157" lon="5.73176">
        <ele>968.238</ele>
        <time>2021-08-08T05:50:41Z</time>
      </trkpt>
      <trkpt lat="45.21573" lon="5.73183">
        <ele>966.181</ele>
        <time>2021-08-08T05:50:46Z</time>
      </trkpt>
      <trkpt lat="45.21576" lon="5.73187">
        <ele>964.82</ele>
        <time>2021-08-08T05:50:49Z</time>
      </trkpt>
      <trkpt lat="45.21578" lon="5.73192">
        <ele>964.061</ele>
        <time>2021-08-08T05:50:52Z</time>
      </trkpt>
      <trkpt lat="45.21586" lon="5.73199">
        <ele>963.09</ele>
        <time>2021-08-08T05:50:56Z</time>
      </trkpt>
      <trkpt lat="45.21597" lon="5.73209">
        <ele>961.16</ele>
        <time>2021-08-08T05:51:02Z</time>
      </trkpt>
      <trkpt lat="45.21599" lon="5.73213">
        <ele>960.076</ele>
        <time>2021-08-08T05:51:04Z</time>
      </trkpt>
      <trkpt lat="45.21608" lon="5.73225">
        <ele>957.673</ele>
        <time>2021-08-08T05:51:12Z</time>
      </trkpt>
      <trkpt lat="45.21609" lon="5.73228">
        <ele>957.616</ele>
        <time>2021-08-08T05:51:14Z</time>
      </trkpt>
      <trkpt lat="45.21615" lon="5.73235">
        <ele>956.162</ele>
        <time>2021-08-08T05:51:21Z</time>
      </trkpt>
      <trkpt lat="45.21616" lon="5.73236">
        <ele>954.921</ele>
        <time>2021-08-08T05:51:22Z</time>
      </trkpt>
      <trkpt lat="45.2162" lon="5.73246">
        <ele>951.844</ele>
        <time>2021-08-08T05:51:29Z</time>
      </trkpt>
      <trkpt lat="45.21629" lon="5.73264">
        <ele>949.456</ele>
        <time>2021-08-08T05:51:38Z</time>
      </trkpt>
      <trkpt lat="45.21638" lon="5.73283">
        <ele>947.78</ele>
        <time>2021-08-08T05:51:45Z</time>
      </trkpt>
      <trkpt lat="45.21643" lon="5.73296">
        <ele>946.037</ele>
        <time>2021-08-08T05:51:51Z</time>
      </trkpt>
      <trkpt lat="45.21646" lon="5.73308">
        <ele>944.518</ele>
        <time>2021-08-08T05:51:57Z</time>
      </trkpt>
      <trkpt lat="45.21647" lon="5.73314">
        <ele>943.552</ele>
        <time>2021-08-08T05:52:00Z</time>
      </trkpt>
      <trkpt lat="45.21652" lon="5.73326">
        <ele>940.917</ele>
        <time>2021-08-08T05:52:08Z</time>
      </trkpt>
      <trkpt lat="45.21653" lon="5.73332">
        <ele>939.054</ele>
        <time>2021-08-08T05:52:13Z</time>
      </trkpt>
      <trkpt lat="45.21658" lon="5.73344">
        <ele>938.072</ele>
        <time>2021-08-08T05:52:20Z</time>
      </trkpt>
      <trkpt lat="45.21662" lon="5.73355">
        <ele>934.888</ele>
        <time>2021-08-08T05:52:27Z</time>
      </trkpt>
      <trkpt lat="45.21663" lon="5.73358">
        <ele>934.053</ele>
        <time>2021-08-08T05:52:29Z</time>
      </trkpt>
      <trkpt lat="45.21666" lon="5.73369">
        <ele>931.189</ele>
        <time>2021-08-08T05:52:37Z</time>
      </trkpt>
      <trkpt lat="45.21668" lon="5.73378">
        <ele>929.818</ele>
        <time>2021-08-08T05:52:44Z</time>
      </trkpt>
      <trkpt lat="45.2167" lon="5.73391">
        <ele>927.127</ele>
        <time>2021-08-08T05:52:50Z</time>
      </trkpt>
      <trkpt lat="45.21675" lon="5.73406">
        <ele>925.347</ele>
        <time>2021-08-08T05:52:57Z</time>
      </trkpt>
      <trkpt lat="45.21677" lon="5.73414">
        <ele>923.783</ele>
        <time>2021-08-08T05:53:01Z</time>
      </trkpt>
      <trkpt lat="45.21676" lon="5.7343">
        <ele>921.917</ele>
        <time>2021-08-08T05:53:06Z</time>
      </trkpt>
      <trkpt lat="45.21674" lon="5.73445">
        <ele>919.553</ele>
        <time>2021-08-08T05:53:11Z</time>
      </trkpt>
      <trkpt lat="45.21673" lon="5.73464">
        <ele>917.428</ele>
        <time>2021-08-08T05:53:18Z</time>
      </trkpt>
      <trkpt lat="45.21675" lon="5.73478">
        <ele>915.576</ele>
        <time>2021-08-08T05:53:26Z</time>
      </trkpt>
      <trkpt lat="45.21675" lon="5.73483">
        <ele>915.118</ele>
        <time>2021-08-08T05:53:29Z</time>
      </trkpt>
      <trkpt lat="45.21684" lon="5.73492">
        <ele>915.328</ele>
        <time>2021-08-08T05:53:35Z</time>
      </trkpt>
      <trkpt lat="45.21697" lon="5.73492">
        <ele>915.664</ele>
        <time>2021-08-08T05:53:42Z</time>
      </trkpt>
      <trkpt lat="45.21699" lon="5.73492">
        <ele>915.656</ele>
        <time>2021-08-08T05:53:43Z</time>
      </trkpt>
      <trkpt lat="45.21713" lon="5.73494">
        <ele>917.098</ele>
        <time>2021-08-08T05:53:49Z</time>
      </trkpt>
      <trkpt lat="45.21724" lon="5.73506">
        <ele>917.257</ele>
        <time>2021-08-08T05:53:55Z</time>
      </trkpt>
      <trkpt lat="45.21728" lon="5.73508">
        <ele>917.329</ele>
        <time>2021-08-08T05:53:57Z</time>
      </trkpt>
      <trkpt lat="45.21731" lon="5.73514">
        <ele>917.442</ele>
        <time>2021-08-08T05:54:00Z</time>
      </trkpt>
      <trkpt lat="45.21745" lon="5.73518">
        <ele>917.139</ele>
        <time>2021-08-08T05:54:06Z</time>
      </trkpt>
      <trkpt lat="45.21757" lon="5.73518">
        <ele>917.278</ele>
        <time>2021-08-08T05:54:12Z</time>
      </trkpt>
      <trkpt lat="45.21759" lon="5.73519">
        <ele>917.751</ele>
        <time>2021-08-08T05:54:13Z</time>
      </trkpt>
      <trkpt lat="45.21774" lon="5.73527">
        <ele>917.751</ele>
        <time>2021-08-08T05:54:20Z</time>
      </trkpt>
      <trkpt lat="45.21781" lon="5.73534">
        <ele>916.247</ele>
        <time>2021-08-08T05:54:26Z</time>
      </trkpt>
      <trkpt lat="45.2179" lon="5.73546">
        <ele>913.547</ele>
        <time>2021-08-08T05:54:33Z</time>
      </trkpt>
      <trkpt lat="45.21794" lon="5.73555">
        <ele>911.395</ele>
        <time>2021-08-08T05:54:38Z</time>
      </trkpt>
      <trkpt lat="45.21795" lon="5.73558">
        <ele>910.927</ele>
        <time>2021-08-08T05:54:40Z</time>
      </trkpt>
      <trkpt lat="45.21799" lon="5.73564">
        <ele>910.025</ele>
        <time>2021-08-08T05:54:44Z</time>
      </trkpt>
      <trkpt lat="45.21804" lon="5.7357">
        <ele>909.211</ele>
        <time>2021-08-08T05:54:48Z</time>
      </trkpt>
      <trkpt lat="45.21812" lon="5.73578">
        <ele>907.98</ele>
        <time>2021-08-08T05:54:54Z</time>
      </trkpt>
      <trkpt lat="45.21822" lon="5.73589">
        <ele>906.199</ele>
        <time>2021-08-08T05:55:01Z</time>
      </trkpt>
      <trkpt lat="45.21824" lon="5.73593">
        <ele>905.57</ele>
        <time>2021-08-08T05:55:03Z</time>
      </trkpt>
      <trkpt lat="45.21833" lon="5.73608">
        <ele>904.081</ele>
        <time>2021-08-08T05:55:10Z</time>
      </trkpt>
      <trkpt lat="45.2184" lon="5.73615">
        <ele>903.729</ele>
        <time>2021-08-08T05:55:15Z</time>
      </trkpt>
      <trkpt lat="45.21837" lon="5.73625">
        <ele>903.049</ele>
        <time>2021-08-08T05:55:22Z</time>
      </trkpt>
      <trkpt lat="45.21832" lon="5.73624">
        <ele>903.505</ele>
        <time>2021-08-08T05:56:00Z</time>
      </trkpt>
      <trkpt lat="45.21829" lon="5.73622">
        <ele>901.554</ele>
        <time>2021-08-08T05:56:04Z</time>
      </trkpt>
      <trkpt lat="45.21822" lon="5.7361">
        <ele>899.33</ele>
        <time>2021-08-08T05:56:11Z</time>
      </trkpt>
      <trkpt lat="45.21816" lon="5.73602">
        <ele>898.819</ele>
        <time>2021-08-08T05:56:15Z</time>
      </trkpt>
      <trkpt lat="45.21809" lon="5.73597">
        <ele>898.813</ele>
        <time>2021-08-08T05:56:19Z</time>
      </trkpt>
      <trkpt lat="45.21796" lon="5.73589">
        <ele>897.946</ele>
        <time>2021-08-08T05:56:26Z</time>
      </trkpt>
      <trkpt lat="45.21795" lon="5.73587">
        <ele>898.044</ele>
        <time>2021-08-08T05:56:27Z</time>
      </trkpt>
      <trkpt lat="45.2178" lon="5.7357">
        <ele>898.221</ele>
        <time>2021-08-08T05:56:35Z</time>
      </trkpt>
      <trkpt lat="45.21773" lon="5.73558">
        <ele>898.716</ele>
        <time>2021-08-08T05:56:43Z</time>
      </trkpt>
      <trkpt lat="45.21773" lon="5.73548">
        <ele>899.307</ele>
        <time>2021-08-08T05:57:19Z</time>
      </trkpt>
      <trkpt lat="45.21776" lon="5.73554">
        <ele>899.876</ele>
        <time>2021-08-08T05:57:36Z</time>
      </trkpt>
      <trkpt lat="45.21776" lon="5.73554">
        <ele>903.026</ele>
        <time>2021-08-08T05:58:00Z</time>
      </trkpt>
      <trkpt lat="45.21776" lon="5.73554">
        <ele>899.362</ele>
        <time>2021-08-08T05:58:01Z</time>
      </trkpt>
      <trkpt lat="45.21771" lon="5.73548">
        <ele>899.01</ele>
        <time>2021-08-08T05:58:17Z</time>
      </trkpt>
      <trkpt lat="45.21766" lon="5.73549">
        <ele>900.23</ele>
        <time>2021-08-08T05:58:21Z</time>
      </trkpt>
      <trkpt lat="45.21759" lon="5.73552">
        <ele>901.896</ele>
        <time>2021-08-08T05:58:28Z</time>
      </trkpt>
      <trkpt lat="45.21747" lon="5.73555">
        <ele>903.759</ele>
        <time>2021-08-08T05:58:56Z</time>
      </trkpt>
      <trkpt lat="45.21743" lon="5.73553">
        <ele>903.881</ele>
        <time>2021-08-08T05:59:01Z</time>
      </trkpt>
      <trkpt lat="45.21739" lon="5.73554">
        <ele>904.213</ele>
        <time>2021-08-08T05:59:04Z</time>
      </trkpt>
      <trkpt lat="45.21728" lon="5.73552">
        <ele>904.234</ele>
        <time>2021-08-08T05:59:10Z</time>
      </trkpt>
      <trkpt lat="45.21722" lon="5.73537">
        <ele>903.616</ele>
        <time>2021-08-08T05:59:17Z</time>
      </trkpt>
      <trkpt lat="45.21721" lon="5.73534">
        <ele>903.148</ele>
        <time>2021-08-08T05:59:18Z</time>
      </trkpt>
      <trkpt lat="45.21716" lon="5.73529">
        <ele>903.848</ele>
        <time>2021-08-08T05:59:22Z</time>
      </trkpt>
      <trkpt lat="45.21706" lon="5.73521">
        <ele>905.048</ele>
        <time>2021-08-08T05:59:30Z</time>
      </trkpt>
      <trkpt lat="45.21704" lon="5.73518">
        <ele>905.455</ele>
        <time>2021-08-08T05:59:32Z</time>
      </trkpt>
      <trkpt lat="45.21699" lon="5.73517">
        <ele>906.856</ele>
        <time>2021-08-08T05:59:35Z</time>
      </trkpt>
      <trkpt lat="45.21691" lon="5.73511">
        <ele>908.229</ele>
        <time>2021-08-08T05:59:44Z</time>
      </trkpt>
      <trkpt lat="45.21684" lon="5.73506">
        <ele>909.859</ele>
        <time>2021-08-08T05:59:51Z</time>
      </trkpt>
      <trkpt lat="45.21676" lon="5.735">
        <ele>911.303</ele>
        <time>2021-08-08T05:59:59Z</time>
      </trkpt>
      <trkpt lat="45.21673" lon="5.73492">
        <ele>913.591</ele>
        <time>2021-08-08T06:00:04Z</time>
      </trkpt>
      <trkpt lat="45.21673" lon="5.73487">
        <ele>913.959</ele>
        <time>2021-08-08T06:00:07Z</time>
      </trkpt>
      <trkpt lat="45.21669" lon="5.73479">
        <ele>914.406</ele>
        <time>2021-08-08T06:00:11Z</time>
      </trkpt>
      <trkpt lat="45.21665" lon="5.73459">
        <ele>912.153</ele>
        <time>2021-08-08T06:00:18Z</time>
      </trkpt>
      <trkpt lat="45.21665" lon="5.7345">
        <ele>910.824</ele>
        <time>2021-08-08T06:00:21Z</time>
      </trkpt>
      <trkpt lat="45.2166" lon="5.73431">
        <ele>908.839</ele>
        <time>2021-08-08T06:00:27Z</time>
      </trkpt>
      <trkpt lat="45.21648" lon="5.73414">
        <ele>908.35</ele>
        <time>2021-08-08T06:00:33Z</time>
      </trkpt>
      <trkpt lat="45.21636" lon="5.73397">
        <ele>907.172</ele>
        <time>2021-08-08T06:00:40Z</time>
      </trkpt>
      <trkpt lat="45.21622" lon="5.73385">
        <ele>906.099</ele>
        <time>2021-08-08T06:00:49Z</time>
      </trkpt>
      <trkpt lat="45.21611" lon="5.73377">
        <ele>904.565</ele>
        <time>2021-08-08T06:00:56Z</time>
      </trkpt>
      <trkpt lat="45.21607" lon="5.73373">
        <ele>903.189</ele>
        <time>2021-08-08T06:00:59Z</time>
      </trkpt>
      <trkpt lat="45.21598" lon="5.7336">
        <ele>901.126</ele>
        <time>2021-08-08T06:01:06Z</time>
      </trkpt>
      <trkpt lat="45.21594" lon="5.73354">
        <ele>899.981</ele>
        <time>2021-08-08T06:01:09Z</time>
      </trkpt>
      <trkpt lat="45.21586" lon="5.73346">
        <ele>897.411</ele>
        <time>2021-08-08T06:01:16Z</time>
      </trkpt>
      <trkpt lat="45.21596" lon="5.73359">
        <ele>895.735</ele>
        <time>2021-08-08T06:01:23Z</time>
      </trkpt>
      <trkpt lat="45.21601" lon="5.73382">
        <ele>894.834</ele>
        <time>2021-08-08T06:01:30Z</time>
      </trkpt>
      <trkpt lat="45.21607" lon="5.73387">
        <ele>895.011</ele>
        <time>2021-08-08T06:01:38Z</time>
      </trkpt>
      <trkpt lat="45.21608" lon="5.73387">
        <ele>897.73</ele>
        <time>2021-08-08T06:01:44Z</time>
      </trkpt>
      <trkpt lat="45.21605" lon="5.73386">
        <ele>899.184</ele>
        <time>2021-08-08T06:01:52Z</time>
      </trkpt>
      <trkpt lat="45.21602" lon="5.73386">
        <ele>898.868</ele>
        <time>2021-08-08T06:02:21Z</time>
      </trkpt>
      <trkpt lat="45.21602" lon="5.73387">
        <ele>898.341</ele>
        <time>2021-08-08T06:02:38Z</time>
      </trkpt>
      <trkpt lat="45.21604" lon="5.73389">
        <ele>899.62</ele>
        <time>2021-08-08T06:02:42Z</time>
      </trkpt>
      <trkpt lat="45.21607" lon="5.73387">
        <ele>896.856</ele>
        <time>2021-08-08T06:02:48Z</time>
      </trkpt>
      <trkpt lat="45.21605" lon="5.73391">
        <ele>895.236</ele>
        <time>2021-08-08T06:02:52Z</time>
      </trkpt>
      <trkpt lat="45.21603" lon="5.73387">
        <ele>894.534</ele>
        <time>2021-08-08T06:02:56Z</time>
      </trkpt>
      <trkpt lat="45.21596" lon="5.73369">
        <ele>894.465</ele>
        <time>2021-08-08T06:03:06Z</time>
      </trkpt>
      <trkpt lat="45.21588" lon="5.73352">
        <ele>896.359</ele>
        <time>2021-08-08T06:03:13Z</time>
      </trkpt>
      <trkpt lat="45.21584" lon="5.73345">
        <ele>896.519</ele>
        <time>2021-08-08T06:03:16Z</time>
      </trkpt>
      <trkpt lat="45.21572" lon="5.73334">
        <ele>894.161</ele>
        <time>2021-08-08T06:03:24Z</time>
      </trkpt>
      <trkpt lat="45.21557" lon="5.73332">
        <ele>892.718</ele>
        <time>2021-08-08T06:03:32Z</time>
      </trkpt>
      <trkpt lat="45.21548" lon="5.73327">
        <ele>891.379</ele>
        <time>2021-08-08T06:03:38Z</time>
      </trkpt>
      <trkpt lat="45.21532" lon="5.73324">
        <ele>888.874</ele>
        <time>2021-08-08T06:03:47Z</time>
      </trkpt>
      <trkpt lat="45.21527" lon="5.73322">
        <ele>888.653</ele>
        <time>2021-08-08T06:03:50Z</time>
      </trkpt>
      <trkpt lat="45.21518" lon="5.73314">
        <ele>887.017</ele>
        <time>2021-08-08T06:03:55Z</time>
      </trkpt>
      <trkpt lat="45.21515" lon="5.733">
        <ele>885.515</ele>
        <time>2021-08-08T06:04:02Z</time>
      </trkpt>
      <trkpt lat="45.21511" lon="5.73286">
        <ele>884.422</ele>
        <time>2021-08-08T06:04:08Z</time>
      </trkpt>
      <trkpt lat="45.21511" lon="5.73285">
        <ele>884.57</ele>
        <time>2021-08-08T06:04:09Z</time>
      </trkpt>
      <trkpt lat="45.2151" lon="5.7328">
        <ele>884.65</ele>
        <time>2021-08-08T06:04:15Z</time>
      </trkpt>
      <trkpt lat="45.21508" lon="5.73281">
        <ele>884.152</ele>
        <time>2021-08-08T06:04:28Z</time>
      </trkpt>
      <trkpt lat="45.21508" lon="5.7328">
        <ele>884.246</ele>
        <time>2021-08-08T06:04:36Z</time>
      </trkpt>
      <trkpt lat="45.21509" lon="5.73267">
        <ele>884.93</ele>
        <time>2021-08-08T06:04:42Z</time>
      </trkpt>
      <trkpt lat="45.21505" lon="5.7326">
        <ele>884.555</ele>
        <time>2021-08-08T06:04:45Z</time>
      </trkpt>
      <trkpt lat="45.21493" lon="5.73242">
        <ele>882.103</ele>
        <time>2021-08-08T06:04:53Z</time>
      </trkpt>
      <trkpt lat="45.21486" lon="5.73233">
        <ele>879.312</ele>
        <time>2021-08-08T06:04:59Z</time>
      </trkpt>
      <trkpt lat="45.21481" lon="5.73228">
        <ele>877.767</ele>
        <time>2021-08-08T06:05:02Z</time>
      </trkpt>
      <trkpt lat="45.21477" lon="5.73224">
        <ele>877.398</ele>
        <time>2021-08-08T06:05:04Z</time>
      </trkpt>
      <trkpt lat="45.21474" lon="5.73211">
        <ele>877.185</ele>
        <time>2021-08-08T06:05:08Z</time>
      </trkpt>
      <trkpt lat="45.21474" lon="5.73205">
        <ele>877.265</ele>
        <time>2021-08-08T06:05:10Z</time>
      </trkpt>
      <trkpt lat="45.21473" lon="5.73188">
        <ele>876.664</ele>
        <time>2021-08-08T06:05:18Z</time>
      </trkpt>
      <trkpt lat="45.2147" lon="5.73183">
        <ele>873.691</ele>
        <time>2021-08-08T06:05:23Z</time>
      </trkpt>
      <trkpt lat="45.21463" lon="5.73175">
        <ele>871.22</ele>
        <time>2021-08-08T06:05:29Z</time>
      </trkpt>
      <trkpt lat="45.21462" lon="5.73172">
        <ele>870.223</ele>
        <time>2021-08-08T06:05:31Z</time>
      </trkpt>
      <trkpt lat="45.21461" lon="5.7317">
        <ele>869.494</ele>
        <time>2021-08-08T06:05:32Z</time>
      </trkpt>
      <trkpt lat="45.21459" lon="5.73168">
        <ele>868.812</ele>
        <time>2021-08-08T06:05:34Z</time>
      </trkpt>
      <trkpt lat="45.21449" lon="5.73161">
        <ele>868.135</ele>
        <time>2021-08-08T06:05:41Z</time>
      </trkpt>
      <trkpt lat="45.21443" lon="5.73162">
        <ele>866.275</ele>
        <time>2021-08-08T06:05:45Z</time>
      </trkpt>
      <trkpt lat="45.2143" lon="5.73155">
        <ele>865.202</ele>
        <time>2021-08-08T06:05:52Z</time>
      </trkpt>
      <trkpt lat="45.21426" lon="5.73151">
        <ele>864.343</ele>
        <time>2021-08-08T06:05:55Z</time>
      </trkpt>
      <trkpt lat="45.21417" lon="5.73137">
        <ele>862.224</ele>
        <time>2021-08-08T06:06:02Z</time>
      </trkpt>
      <trkpt lat="45.21413" lon="5.73128">
        <ele>861.555</ele>
        <time>2021-08-08T06:06:06Z</time>
      </trkpt>
      <trkpt lat="45.21407" lon="5.73119">
        <ele>860.777</ele>
        <time>2021-08-08T06:06:10Z</time>
      </trkpt>
      <trkpt lat="45.21394" lon="5.73105">
        <ele>859.419</ele>
        <time>2021-08-08T06:06:18Z</time>
      </trkpt>
      <trkpt lat="45.21381" lon="5.73087">
        <ele>857.579</ele>
        <time>2021-08-08T06:06:27Z</time>
      </trkpt>
      <trkpt lat="45.21372" lon="5.73073">
        <ele>857.484</ele>
        <time>2021-08-08T06:06:33Z</time>
      </trkpt>
      <trkpt lat="45.21367" lon="5.73066">
        <ele>856.202</ele>
        <time>2021-08-08T06:06:39Z</time>
      </trkpt>
      <trkpt lat="45.2136" lon="5.73062">
        <ele>854.508</ele>
        <time>2021-08-08T06:06:45Z</time>
      </trkpt>
      <trkpt lat="45.21353" lon="5.73049">
        <ele>851.787</ele>
        <time>2021-08-08T06:06:55Z</time>
      </trkpt>
      <trkpt lat="45.21349" lon="5.73041">
        <ele>850.074</ele>
        <time>2021-08-08T06:07:00Z</time>
      </trkpt>
      <trkpt lat="45.21343" lon="5.73034">
        <ele>848.361</ele>
        <time>2021-08-08T06:07:06Z</time>
      </trkpt>
      <trkpt lat="45.21343" lon="5.73031">
        <ele>847.695</ele>
        <time>2021-08-08T06:07:08Z</time>
      </trkpt>
      <trkpt lat="45.21342" lon="5.7303">
        <ele>846.975</ele>
        <time>2021-08-08T06:07:09Z</time>
      </trkpt>
      <trkpt lat="45.21332" lon="5.73019">
        <ele>844.482</ele>
        <time>2021-08-08T06:07:18Z</time>
      </trkpt>
      <trkpt lat="45.21323" lon="5.73007">
        <ele>842.163</ele>
        <time>2021-08-08T06:07:27Z</time>
      </trkpt>
      <trkpt lat="45.21313" lon="5.72995">
        <ele>840.649</ele>
        <time>2021-08-08T06:07:36Z</time>
      </trkpt>
      <trkpt lat="45.21312" lon="5.72993">
        <ele>839.748</ele>
        <time>2021-08-08T06:07:37Z</time>
      </trkpt>
      <trkpt lat="45.21304" lon="5.72983">
        <ele>837.393</ele>
        <time>2021-08-08T06:07:45Z</time>
      </trkpt>
      <trkpt lat="45.21299" lon="5.72977">
        <ele>835.573</ele>
        <time>2021-08-08T06:07:51Z</time>
      </trkpt>
      <trkpt lat="45.21297" lon="5.72975">
        <ele>835.675</ele>
        <time>2021-08-08T06:07:53Z</time>
      </trkpt>
      <trkpt lat="45.2129" lon="5.72969">
        <ele>834.011</ele>
        <time>2021-08-08T06:07:59Z</time>
      </trkpt>
      <trkpt lat="45.21287" lon="5.72964">
        <ele>832.6</ele>
        <time>2021-08-08T06:08:03Z</time>
      </trkpt>
      <trkpt lat="45.21277" lon="5.72952">
        <ele>829.903</ele>
        <time>2021-08-08T06:08:11Z</time>
      </trkpt>
      <trkpt lat="45.21269" lon="5.72951">
        <ele>829.068</ele>
        <time>2021-08-08T06:08:19Z</time>
      </trkpt>
      <trkpt lat="45.21267" lon="5.72951">
        <ele>827.481</ele>
        <time>2021-08-08T06:08:22Z</time>
      </trkpt>
      <trkpt lat="45.21263" lon="5.72948">
        <ele>825.982</ele>
        <time>2021-08-08T06:08:25Z</time>
      </trkpt>
      <trkpt lat="45.21255" lon="5.72941">
        <ele>822.6</ele>
        <time>2021-08-08T06:08:33Z</time>
      </trkpt>
      <trkpt lat="45.21249" lon="5.72941">
        <ele>821.222</ele>
        <time>2021-08-08T06:08:39Z</time>
      </trkpt>
      <trkpt lat="45.21238" lon="5.72937">
        <ele>819.265</ele>
        <time>2021-08-08T06:08:48Z</time>
      </trkpt>
      <trkpt lat="45.2123" lon="5.72924">
        <ele>817.858</ele>
        <time>2021-08-08T06:08:56Z</time>
      </trkpt>
      <trkpt lat="45.21224" lon="5.7292">
        <ele>815.854</ele>
        <time>2021-08-08T06:09:02Z</time>
      </trkpt>
      <trkpt lat="45.21221" lon="5.72918">
        <ele>814.972</ele>
        <time>2021-08-08T06:09:06Z</time>
      </trkpt>
      <trkpt lat="45.21216" lon="5.72917">
        <ele>814</ele>
        <time>2021-08-08T06:09:12Z</time>
      </trkpt>
      <trkpt lat="45.21214" lon="5.72921">
        <ele>813.298</ele>
        <time>2021-08-08T06:09:16Z</time>
      </trkpt>
      <trkpt lat="45.21215" lon="5.7293">
        <ele>811.971</ele>
        <time>2021-08-08T06:09:22Z</time>
      </trkpt>
      <trkpt lat="45.21218" lon="5.72942">
        <ele>810.881</ele>
        <time>2021-08-08T06:09:29Z</time>
      </trkpt>
      <trkpt lat="45.21217" lon="5.72945">
        <ele>808.598</ele>
        <time>2021-08-08T06:09:34Z</time>
      </trkpt>
      <trkpt lat="45.21211" lon="5.72942">
        <ele>807.164</ele>
        <time>2021-08-08T06:09:37Z</time>
      </trkpt>
      <trkpt lat="45.21203" lon="5.72932">
        <ele>805.886</ele>
        <time>2021-08-08T06:09:42Z</time>
      </trkpt>
      <trkpt lat="45.21192" lon="5.72921">
        <ele>803.893</ele>
        <time>2021-08-08T06:09:50Z</time>
      </trkpt>
      <trkpt lat="45.2118" lon="5.72909">
        <ele>801.86</ele>
        <time>2021-08-08T06:10:00Z</time>
      </trkpt>
      <trkpt lat="45.21177" lon="5.72905">
        <ele>800.362</ele>
        <time>2021-08-08T06:10:04Z</time>
      </trkpt>
      <trkpt lat="45.2117" lon="5.72902">
        <ele>798.562</ele>
        <time>2021-08-08T06:10:09Z</time>
      </trkpt>
      <trkpt lat="45.21169" lon="5.72902">
        <ele>798.269</ele>
        <time>2021-08-08T06:10:10Z</time>
      </trkpt>
      <trkpt lat="45.21157" lon="5.72897">
        <ele>797.067</ele>
        <time>2021-08-08T06:10:18Z</time>
      </trkpt>
      <trkpt lat="45.21147" lon="5.72891">
        <ele>793.927</ele>
        <time>2021-08-08T06:10:26Z</time>
      </trkpt>
      <trkpt lat="45.21138" lon="5.72891">
        <ele>791.642</ele>
        <time>2021-08-08T06:10:34Z</time>
      </trkpt>
      <trkpt lat="45.21128" lon="5.72888">
        <ele>789.492</ele>
        <time>2021-08-08T06:10:40Z</time>
      </trkpt>
      <trkpt lat="45.21115" lon="5.72879">
        <ele>787.433</ele>
        <time>2021-08-08T06:10:47Z</time>
      </trkpt>
      <trkpt lat="45.21108" lon="5.72868">
        <ele>786.911</ele>
        <time>2021-08-08T06:10:52Z</time>
      </trkpt>
      <trkpt lat="45.21101" lon="5.72861">
        <ele>785.653</ele>
        <time>2021-08-08T06:11:00Z</time>
      </trkpt>
      <trkpt lat="45.21093" lon="5.72851">
        <ele>784.531</ele>
        <time>2021-08-08T06:11:07Z</time>
      </trkpt>
      <trkpt lat="45.21086" lon="5.72841">
        <ele>784.701</ele>
        <time>2021-08-08T06:11:13Z</time>
      </trkpt>
      <trkpt lat="45.21085" lon="5.7284">
        <ele>783.488</ele>
        <time>2021-08-08T06:11:14Z</time>
      </trkpt>
      <trkpt lat="45.21071" lon="5.7282">
        <ele>781.654</ele>
        <time>2021-08-08T06:11:23Z</time>
      </trkpt>
      <trkpt lat="45.21066" lon="5.72809">
        <ele>781.707</ele>
        <time>2021-08-08T06:11:27Z</time>
      </trkpt>
      <trkpt lat="45.21061" lon="5.72794">
        <ele>781.332</ele>
        <time>2021-08-08T06:11:35Z</time>
      </trkpt>
      <trkpt lat="45.21059" lon="5.72791">
        <ele>780.916</ele>
        <time>2021-08-08T06:11:37Z</time>
      </trkpt>
      <trkpt lat="45.21054" lon="5.72777">
        <ele>780.706</ele>
        <time>2021-08-08T06:11:43Z</time>
      </trkpt>
      <trkpt lat="45.21049" lon="5.72766">
        <ele>779.715</ele>
        <time>2021-08-08T06:11:49Z</time>
      </trkpt>
      <trkpt lat="45.21045" lon="5.72751">
        <ele>778.063</ele>
        <time>2021-08-08T06:11:56Z</time>
      </trkpt>
      <trkpt lat="45.21039" lon="5.72747">
        <ele>776.976</ele>
        <time>2021-08-08T06:12:03Z</time>
      </trkpt>
      <trkpt lat="45.21035" lon="5.72746">
        <ele>775.694</ele>
        <time>2021-08-08T06:12:10Z</time>
      </trkpt>
      <trkpt lat="45.21028" lon="5.72744">
        <ele>772.852</ele>
        <time>2021-08-08T06:12:18Z</time>
      </trkpt>
      <trkpt lat="45.21023" lon="5.72743">
        <ele>772.063</ele>
        <time>2021-08-08T06:12:23Z</time>
      </trkpt>
      <trkpt lat="45.21022" lon="5.72746">
        <ele>770.153</ele>
        <time>2021-08-08T06:12:28Z</time>
      </trkpt>
      <trkpt lat="45.21018" lon="5.72746">
        <ele>768.181</ele>
        <time>2021-08-08T06:12:33Z</time>
      </trkpt>
      <trkpt lat="45.21014" lon="5.72746">
        <ele>766.945</ele>
        <time>2021-08-08T06:12:39Z</time>
      </trkpt>
      <trkpt lat="45.2101" lon="5.7275">
        <ele>764.179</ele>
        <time>2021-08-08T06:12:48Z</time>
      </trkpt>
      <trkpt lat="45.21007" lon="5.72755">
        <ele>762.236</ele>
        <time>2021-08-08T06:12:54Z</time>
      </trkpt>
      <trkpt lat="45.21005" lon="5.72756">
        <ele>760.464</ele>
        <time>2021-08-08T06:12:57Z</time>
      </trkpt>
      <trkpt lat="45.21001" lon="5.72758">
        <ele>759.424</ele>
        <time>2021-08-08T06:13:02Z</time>
      </trkpt>
      <trkpt lat="45.20995" lon="5.7276">
        <ele>758.685</ele>
        <time>2021-08-08T06:13:10Z</time>
      </trkpt>
      <trkpt lat="45.20992" lon="5.72759">
        <ele>757.514</ele>
        <time>2021-08-08T06:13:16Z</time>
      </trkpt>
      <trkpt lat="45.20987" lon="5.72755">
        <ele>754.809</ele>
        <time>2021-08-08T06:13:23Z</time>
      </trkpt>
      <trkpt lat="45.20984" lon="5.72754">
        <ele>753.528</ele>
        <time>2021-08-08T06:13:26Z</time>
      </trkpt>
      <trkpt lat="45.20983" lon="5.72753">
        <ele>753.319</ele>
        <time>2021-08-08T06:13:27Z</time>
      </trkpt>
      <trkpt lat="45.20977" lon="5.72744">
        <ele>751.103</ele>
        <time>2021-08-08T06:13:34Z</time>
      </trkpt>
      <trkpt lat="45.20971" lon="5.72736">
        <ele>748.867</ele>
        <time>2021-08-08T06:13:42Z</time>
      </trkpt>
      <trkpt lat="45.20966" lon="5.7273">
        <ele>745.799</ele>
        <time>2021-08-08T06:13:49Z</time>
      </trkpt>
      <trkpt lat="45.20965" lon="5.72729">
        <ele>744.744</ele>
        <time>2021-08-08T06:13:51Z</time>
      </trkpt>
      <trkpt lat="45.2096" lon="5.72724">
        <ele>743.51</ele>
        <time>2021-08-08T06:13:59Z</time>
      </trkpt>
      <trkpt lat="45.20955" lon="5.72719">
        <ele>740.529</ele>
        <time>2021-08-08T06:14:06Z</time>
      </trkpt>
      <trkpt lat="45.20954" lon="5.72718">
        <ele>739.882</ele>
        <time>2021-08-08T06:14:07Z</time>
      </trkpt>
      <trkpt lat="45.2095" lon="5.72715">
        <ele>738.499</ele>
        <time>2021-08-08T06:14:11Z</time>
      </trkpt>
      <trkpt lat="45.20944" lon="5.7271">
        <ele>737.507</ele>
        <time>2021-08-08T06:14:18Z</time>
      </trkpt>
      <trkpt lat="45.20943" lon="5.72709">
        <ele>737.001</ele>
        <time>2021-08-08T06:14:19Z</time>
      </trkpt>
      <trkpt lat="45.2094" lon="5.72701">
        <ele>735.464</ele>
        <time>2021-08-08T06:14:23Z</time>
      </trkpt>
      <trkpt lat="45.20936" lon="5.72694">
        <ele>734.449</ele>
        <time>2021-08-08T06:14:27Z</time>
      </trkpt>
      <trkpt lat="45.20931" lon="5.72691">
        <ele>732.963</ele>
        <time>2021-08-08T06:14:30Z</time>
      </trkpt>
      <trkpt lat="45.20923" lon="5.72682">
        <ele>731.759</ele>
        <time>2021-08-08T06:14:36Z</time>
      </trkpt>
      <trkpt lat="45.20914" lon="5.72677">
        <ele>728.536</ele>
        <time>2021-08-08T06:14:45Z</time>
      </trkpt>
      <trkpt lat="45.2091" lon="5.7268">
        <ele>728.083</ele>
        <time>2021-08-08T06:14:52Z</time>
      </trkpt>
      <trkpt lat="45.20904" lon="5.72682">
        <ele>726.285</ele>
        <time>2021-08-08T06:14:59Z</time>
      </trkpt>
      <trkpt lat="45.209" lon="5.72682">
        <ele>724.567</ele>
        <time>2021-08-08T06:15:04Z</time>
      </trkpt>
      <trkpt lat="45.20898" lon="5.72682">
        <ele>723.525</ele>
        <time>2021-08-08T06:15:06Z</time>
      </trkpt>
      <trkpt lat="45.20888" lon="5.72685">
        <ele>720.363</ele>
        <time>2021-08-08T06:15:15Z</time>
      </trkpt>
      <trkpt lat="45.20879" lon="5.72687">
        <ele>719.092</ele>
        <time>2021-08-08T06:15:22Z</time>
      </trkpt>
      <trkpt lat="45.20876" lon="5.72687">
        <ele>718.326</ele>
        <time>2021-08-08T06:15:24Z</time>
      </trkpt>
      <trkpt lat="45.20863" lon="5.72688">
        <ele>717.151</ele>
        <time>2021-08-08T06:15:31Z</time>
      </trkpt>
      <trkpt lat="45.20854" lon="5.72689">
        <ele>714.25</ele>
        <time>2021-08-08T06:15:37Z</time>
      </trkpt>
      <trkpt lat="45.20846" lon="5.72693">
        <ele>711.609</ele>
        <time>2021-08-08T06:15:45Z</time>
      </trkpt>
      <trkpt lat="45.20844" lon="5.72693">
        <ele>711.177</ele>
        <time>2021-08-08T06:15:46Z</time>
      </trkpt>
      <trkpt lat="45.20841" lon="5.72692">
        <ele>710.294</ele>
        <time>2021-08-08T06:15:48Z</time>
      </trkpt>
      <trkpt lat="45.20838" lon="5.72684">
        <ele>709.093</ele>
        <time>2021-08-08T06:15:55Z</time>
      </trkpt>
      <trkpt lat="45.20834" lon="5.72672">
        <ele>707.343</ele>
        <time>2021-08-08T06:16:03Z</time>
      </trkpt>
      <trkpt lat="45.20832" lon="5.72667">
        <ele>705.446</ele>
        <time>2021-08-08T06:16:07Z</time>
      </trkpt>
      <trkpt lat="45.20827" lon="5.7266">
        <ele>703.424</ele>
        <time>2021-08-08T06:16:13Z</time>
      </trkpt>
      <trkpt lat="45.20824" lon="5.72664">
        <ele>701.491</ele>
        <time>2021-08-08T06:16:19Z</time>
      </trkpt>
      <trkpt lat="45.20821" lon="5.72668">
        <ele>699.132</ele>
        <time>2021-08-08T06:16:25Z</time>
      </trkpt>
      <trkpt lat="45.20817" lon="5.7267">
        <ele>697.352</ele>
        <time>2021-08-08T06:16:31Z</time>
      </trkpt>
      <trkpt lat="45.2081" lon="5.72662">
        <ele>696.019</ele>
        <time>2021-08-08T06:16:37Z</time>
      </trkpt>
      <trkpt lat="45.20806" lon="5.72654">
        <ele>693.401</ele>
        <time>2021-08-08T06:16:44Z</time>
      </trkpt>
      <trkpt lat="45.20803" lon="5.72644">
        <ele>692.946</ele>
        <time>2021-08-08T06:16:51Z</time>
      </trkpt>
      <trkpt lat="45.20799" lon="5.72637">
        <ele>690.397</ele>
        <time>2021-08-08T06:16:57Z</time>
      </trkpt>
      <trkpt lat="45.20794" lon="5.72628">
        <ele>688.779</ele>
        <time>2021-08-08T06:17:04Z</time>
      </trkpt>
      <trkpt lat="45.20793" lon="5.72631">
        <ele>687.363</ele>
        <time>2021-08-08T06:17:10Z</time>
      </trkpt>
      <trkpt lat="45.20793" lon="5.72635">
        <ele>686.9</ele>
        <time>2021-08-08T06:17:13Z</time>
      </trkpt>
      <trkpt lat="45.20789" lon="5.72642">
        <ele>684.71</ele>
        <time>2021-08-08T06:17:19Z</time>
      </trkpt>
      <trkpt lat="45.20784" lon="5.72647">
        <ele>682.998</ele>
        <time>2021-08-08T06:17:25Z</time>
      </trkpt>
      <trkpt lat="45.2078" lon="5.72648">
        <ele>681.17</ele>
        <time>2021-08-08T06:17:31Z</time>
      </trkpt>
      <trkpt lat="45.20775" lon="5.72642">
        <ele>679.345</ele>
        <time>2021-08-08T06:17:38Z</time>
      </trkpt>
      <trkpt lat="45.20774" lon="5.72637">
        <ele>677.894</ele>
        <time>2021-08-08T06:17:42Z</time>
      </trkpt>
      <trkpt lat="45.20774" lon="5.72632">
        <ele>676.698</ele>
        <time>2021-08-08T06:17:44Z</time>
      </trkpt>
      <trkpt lat="45.20774" lon="5.72626">
        <ele>676.009</ele>
        <time>2021-08-08T06:17:47Z</time>
      </trkpt>
      <trkpt lat="45.20772" lon="5.72619">
        <ele>674.526</ele>
        <time>2021-08-08T06:17:51Z</time>
      </trkpt>
      <trkpt lat="45.20768" lon="5.72617">
        <ele>673.07</ele>
        <time>2021-08-08T06:17:58Z</time>
      </trkpt>
      <trkpt lat="45.20763" lon="5.72617">
        <ele>671.399</ele>
        <time>2021-08-08T06:18:05Z</time>
      </trkpt>
      <trkpt lat="45.20755" lon="5.72617">
        <ele>668.788</ele>
        <time>2021-08-08T06:18:10Z</time>
      </trkpt>
      <trkpt lat="45.2075" lon="5.72616">
        <ele>667.627</ele>
        <time>2021-08-08T06:18:14Z</time>
      </trkpt>
      <trkpt lat="45.20744" lon="5.72604">
        <ele>664.884</ele>
        <time>2021-08-08T06:18:22Z</time>
      </trkpt>
      <trkpt lat="45.2074" lon="5.72594">
        <ele>663.434</ele>
        <time>2021-08-08T06:18:28Z</time>
      </trkpt>
      <trkpt lat="45.20738" lon="5.72592">
        <ele>663.091</ele>
        <time>2021-08-08T06:18:30Z</time>
      </trkpt>
      <trkpt lat="45.20732" lon="5.72588">
        <ele>660.19</ele>
        <time>2021-08-08T06:18:37Z</time>
      </trkpt>
      <trkpt lat="45.20728" lon="5.72585">
        <ele>659.286</ele>
        <time>2021-08-08T06:18:40Z</time>
      </trkpt>
      <trkpt lat="45.20713" lon="5.72578">
        <ele>655.218</ele>
        <time>2021-08-08T06:18:53Z</time>
      </trkpt>
      <trkpt lat="45.20709" lon="5.72576">
        <ele>655.218</ele>
        <time>2021-08-08T06:18:56Z</time>
      </trkpt>
      <trkpt lat="45.20707" lon="5.72573">
        <ele>653.326</ele>
        <time>2021-08-08T06:18:58Z</time>
      </trkpt>
      <trkpt lat="45.20701" lon="5.72569">
        <ele>651.438</ele>
        <time>2021-08-08T06:19:03Z</time>
      </trkpt>
      <trkpt lat="45.20697" lon="5.72569">
        <ele>650.752</ele>
        <time>2021-08-08T06:19:07Z</time>
      </trkpt>
      <trkpt lat="45.20691" lon="5.72571">
        <ele>649.754</ele>
        <time>2021-08-08T06:19:12Z</time>
      </trkpt>
      <trkpt lat="45.20687" lon="5.72571">
        <ele>649.037</ele>
        <time>2021-08-08T06:19:14Z</time>
      </trkpt>
      <trkpt lat="45.20683" lon="5.72575">
        <ele>647.906</ele>
        <time>2021-08-08T06:19:18Z</time>
      </trkpt>
      <trkpt lat="45.20672" lon="5.72586">
        <ele>646.38</ele>
        <time>2021-08-08T06:19:24Z</time>
      </trkpt>
      <trkpt lat="45.20661" lon="5.72598">
        <ele>645.086</ele>
        <time>2021-08-08T06:19:31Z</time>
      </trkpt>
      <trkpt lat="45.20651" lon="5.72606">
        <ele>644.548</ele>
        <time>2021-08-08T06:19:36Z</time>
      </trkpt>
      <trkpt lat="45.2064" lon="5.72606">
        <ele>642.818</ele>
        <time>2021-08-08T06:19:42Z</time>
      </trkpt>
      <trkpt lat="45.20628" lon="5.726">
        <ele>641.355</ele>
        <time>2021-08-08T06:19:48Z</time>
      </trkpt>
      <trkpt lat="45.2062" lon="5.72594">
        <ele>640.483</ele>
        <time>2021-08-08T06:19:52Z</time>
      </trkpt>
      <trkpt lat="45.20608" lon="5.72586">
        <ele>639.384</ele>
        <time>2021-08-08T06:19:57Z</time>
      </trkpt>
      <trkpt lat="45.20592" lon="5.72572">
        <ele>638.141</ele>
        <time>2021-08-08T06:20:05Z</time>
      </trkpt>
      <trkpt lat="45.20581" lon="5.72566">
        <ele>637.546</ele>
        <time>2021-08-08T06:20:13Z</time>
      </trkpt>
      <trkpt lat="45.20575" lon="5.72563">
        <ele>636.205</ele>
        <time>2021-08-08T06:20:16Z</time>
      </trkpt>
      <trkpt lat="45.2056" lon="5.72559">
        <ele>635.733</ele>
        <time>2021-08-08T06:20:23Z</time>
      </trkpt>
      <trkpt lat="45.20556" lon="5.72558">
        <ele>635.333</ele>
        <time>2021-08-08T06:20:25Z</time>
      </trkpt>
      <trkpt lat="45.20551" lon="5.72557">
        <ele>634.417</ele>
        <time>2021-08-08T06:20:28Z</time>
      </trkpt>
      <trkpt lat="45.20545" lon="5.72563">
        <ele>634.052</ele>
        <time>2021-08-08T06:20:32Z</time>
      </trkpt>
      <trkpt lat="45.20527" lon="5.72574">
        <ele>631.992</ele>
        <time>2021-08-08T06:20:42Z</time>
      </trkpt>
      <trkpt lat="45.20522" lon="5.72575">
        <ele>631.266</ele>
        <time>2021-08-08T06:20:44Z</time>
      </trkpt>
      <trkpt lat="45.20503" lon="5.72572">
        <ele>630.244</ele>
        <time>2021-08-08T06:20:51Z</time>
      </trkpt>
      <trkpt lat="45.20496" lon="5.72567">
        <ele>630.114</ele>
        <time>2021-08-08T06:20:54Z</time>
      </trkpt>
      <trkpt lat="45.20478" lon="5.72553">
        <ele>627.755</ele>
        <time>2021-08-08T06:21:02Z</time>
      </trkpt>
      <trkpt lat="45.20472" lon="5.72544">
        <ele>627.419</ele>
        <time>2021-08-08T06:21:07Z</time>
      </trkpt>
      <trkpt lat="45.20461" lon="5.72529">
        <ele>625.506</ele>
        <time>2021-08-08T06:21:14Z</time>
      </trkpt>
      <trkpt lat="45.20454" lon="5.72519">
        <ele>624.504</ele>
        <time>2021-08-08T06:21:19Z</time>
      </trkpt>
      <trkpt lat="45.20443" lon="5.72519">
        <ele>623.637</ele>
        <time>2021-08-08T06:21:25Z</time>
      </trkpt>
      <trkpt lat="45.20438" lon="5.72524">
        <ele>621.92</ele>
        <time>2021-08-08T06:21:31Z</time>
      </trkpt>
      <trkpt lat="45.20435" lon="5.72524">
        <ele>621.028</ele>
        <time>2021-08-08T06:21:33Z</time>
      </trkpt>
      <trkpt lat="45.20429" lon="5.72521">
        <ele>618.351</ele>
        <time>2021-08-08T06:21:41Z</time>
      </trkpt>
      <trkpt lat="45.20429" lon="5.72522">
        <ele>617.361</ele>
        <time>2021-08-08T06:21:43Z</time>
      </trkpt>
      <trkpt lat="45.20427" lon="5.72523">
        <ele>615.613</ele>
        <time>2021-08-08T06:21:46Z</time>
      </trkpt>
      <trkpt lat="45.20424" lon="5.72528">
        <ele>613.39</ele>
        <time>2021-08-08T06:21:54Z</time>
      </trkpt>
      <trkpt lat="45.20421" lon="5.7253">
        <ele>612.073</ele>
        <time>2021-08-08T06:22:00Z</time>
      </trkpt>
      <trkpt lat="45.20417" lon="5.72537">
        <ele>610.649</ele>
        <time>2021-08-08T06:22:08Z</time>
      </trkpt>
      <trkpt lat="45.20413" lon="5.72541">
        <ele>608.843</ele>
        <time>2021-08-08T06:22:15Z</time>
      </trkpt>
      <trkpt lat="45.20408" lon="5.72542">
        <ele>607.478</ele>
        <time>2021-08-08T06:22:21Z</time>
      </trkpt>
      <trkpt lat="45.20401" lon="5.72542">
        <ele>604.68</ele>
        <time>2021-08-08T06:22:27Z</time>
      </trkpt>
      <trkpt lat="45.20399" lon="5.72548">
        <ele>602.34</ele>
        <time>2021-08-08T06:22:33Z</time>
      </trkpt>
      <trkpt lat="45.20395" lon="5.72548">
        <ele>601.251</ele>
        <time>2021-08-08T06:22:35Z</time>
      </trkpt>
      <trkpt lat="45.20388" lon="5.7254">
        <ele>600.172</ele>
        <time>2021-08-08T06:22:42Z</time>
      </trkpt>
      <trkpt lat="45.20382" lon="5.72538">
        <ele>597.383</ele>
        <time>2021-08-08T06:22:49Z</time>
      </trkpt>
      <trkpt lat="45.20378" lon="5.72533">
        <ele>596.201</ele>
        <time>2021-08-08T06:22:54Z</time>
      </trkpt>
      <trkpt lat="45.20371" lon="5.72528">
        <ele>593.862</ele>
        <time>2021-08-08T06:23:01Z</time>
      </trkpt>
      <trkpt lat="45.20365" lon="5.72525">
        <ele>592.426</ele>
        <time>2021-08-08T06:23:07Z</time>
      </trkpt>
      <trkpt lat="45.20364" lon="5.72524">
        <ele>592.01</ele>
        <time>2021-08-08T06:23:08Z</time>
      </trkpt>
      <trkpt lat="45.20362" lon="5.72521">
        <ele>590.348</ele>
        <time>2021-08-08T06:23:11Z</time>
      </trkpt>
      <trkpt lat="45.20359" lon="5.72526">
        <ele>589.028</ele>
        <time>2021-08-08T06:23:18Z</time>
      </trkpt>
      <trkpt lat="45.20354" lon="5.72527">
        <ele>587.186</ele>
        <time>2021-08-08T06:23:25Z</time>
      </trkpt>
      <trkpt lat="45.20345" lon="5.72523">
        <ele>585.172</ele>
        <time>2021-08-08T06:23:33Z</time>
      </trkpt>
      <trkpt lat="45.2034" lon="5.72524">
        <ele>582.291</ele>
        <time>2021-08-08T06:23:50Z</time>
      </trkpt>
      <trkpt lat="45.2034" lon="5.72523">
        <ele>582.283</ele>
        <time>2021-08-08T06:23:52Z</time>
      </trkpt>
      <trkpt lat="45.20337" lon="5.72525">
        <ele>580.342</ele>
        <time>2021-08-08T06:23:56Z</time>
      </trkpt>
      <trkpt lat="45.20332" lon="5.72527">
        <ele>578.775</ele>
        <time>2021-08-08T06:24:01Z</time>
      </trkpt>
      <trkpt lat="45.20323" lon="5.72525">
        <ele>576.258</ele>
        <time>2021-08-08T06:24:10Z</time>
      </trkpt>
      <trkpt lat="45.20316" lon="5.72522">
        <ele>574.111</ele>
        <time>2021-08-08T06:24:18Z</time>
      </trkpt>
      <trkpt lat="45.20307" lon="5.72521">
        <ele>571.579</ele>
        <time>2021-08-08T06:24:25Z</time>
      </trkpt>
      <trkpt lat="45.20305" lon="5.72521">
        <ele>572.041</ele>
        <time>2021-08-08T06:24:26Z</time>
      </trkpt>
      <trkpt lat="45.20292" lon="5.72522">
        <ele>569.41</ele>
        <time>2021-08-08T06:24:33Z</time>
      </trkpt>
      <trkpt lat="45.20281" lon="5.72523">
        <ele>567.355</ele>
        <time>2021-08-08T06:24:40Z</time>
      </trkpt>
      <trkpt lat="45.20274" lon="5.72524">
        <ele>565.808</ele>
        <time>2021-08-08T06:24:46Z</time>
      </trkpt>
      <trkpt lat="45.20273" lon="5.72524">
        <ele>564.978</ele>
        <time>2021-08-08T06:24:47Z</time>
      </trkpt>
      <trkpt lat="45.20262" lon="5.72521">
        <ele>562.045</ele>
        <time>2021-08-08T06:24:55Z</time>
      </trkpt>
      <trkpt lat="45.20255" lon="5.72524">
        <ele>559.438</ele>
        <time>2021-08-08T06:25:03Z</time>
      </trkpt>
      <trkpt lat="45.20249" lon="5.72524">
        <ele>557.247</ele>
        <time>2021-08-08T06:25:09Z</time>
      </trkpt>
      <trkpt lat="45.20246" lon="5.72522">
        <ele>556.074</ele>
        <time>2021-08-08T06:25:11Z</time>
      </trkpt>
      <trkpt lat="45.20242" lon="5.72523">
        <ele>554.843</ele>
        <time>2021-08-08T06:25:14Z</time>
      </trkpt>
      <trkpt lat="45.20234" lon="5.72525">
        <ele>554.33</ele>
        <time>2021-08-08T06:25:20Z</time>
      </trkpt>
      <trkpt lat="45.20232" lon="5.72525">
        <ele>553.596</ele>
        <time>2021-08-08T06:25:21Z</time>
      </trkpt>
      <trkpt lat="45.20225" lon="5.72525">
        <ele>550.644</ele>
        <time>2021-08-08T06:25:28Z</time>
      </trkpt>
      <trkpt lat="45.20224" lon="5.72524">
        <ele>550.753</ele>
        <time>2021-08-08T06:25:29Z</time>
      </trkpt>
      <trkpt lat="45.20216" lon="5.72523">
        <ele>547.218</ele>
        <time>2021-08-08T06:25:36Z</time>
      </trkpt>
      <trkpt lat="45.20213" lon="5.72522">
        <ele>546.446</ele>
        <time>2021-08-08T06:25:39Z</time>
      </trkpt>
      <trkpt lat="45.20209" lon="5.72516">
        <ele>545.868</ele>
        <time>2021-08-08T06:25:43Z</time>
      </trkpt>
      <trkpt lat="45.202" lon="5.72506">
        <ele>543.878</ele>
        <time>2021-08-08T06:25:51Z</time>
      </trkpt>
      <trkpt lat="45.2019" lon="5.72498">
        <ele>541.494</ele>
        <time>2021-08-08T06:25:58Z</time>
      </trkpt>
      <trkpt lat="45.20183" lon="5.72494">
        <ele>540.594</ele>
        <time>2021-08-08T06:26:05Z</time>
      </trkpt>
      <trkpt lat="45.20174" lon="5.72491">
        <ele>538.552</ele>
        <time>2021-08-08T06:26:14Z</time>
      </trkpt>
      <trkpt lat="45.20171" lon="5.72492">
        <ele>538.813</ele>
        <time>2021-08-08T06:26:26Z</time>
      </trkpt>
      <trkpt lat="45.20166" lon="5.72484">
        <ele>537.666</ele>
        <time>2021-08-08T06:26:52Z</time>
      </trkpt>
      <trkpt lat="45.20164" lon="5.72476">
        <ele>536.336</ele>
        <time>2021-08-08T06:27:00Z</time>
      </trkpt>
      <trkpt lat="45.2016" lon="5.72473">
        <ele>533.967</ele>
        <time>2021-08-08T06:27:07Z</time>
      </trkpt>
      <trkpt lat="45.20158" lon="5.72471">
        <ele>532.208</ele>
        <time>2021-08-08T06:27:13Z</time>
      </trkpt>
      <trkpt lat="45.20155" lon="5.72466">
        <ele>530.278</ele>
        <time>2021-08-08T06:27:20Z</time>
      </trkpt>
      <trkpt lat="45.20152" lon="5.72463">
        <ele>528.379</ele>
        <time>2021-08-08T06:27:26Z</time>
      </trkpt>
      <trkpt lat="45.2015" lon="5.72462">
        <ele>527.594</ele>
        <time>2021-08-08T06:27:28Z</time>
      </trkpt>
      <trkpt lat="45.20147" lon="5.7246">
        <ele>525.861</ele>
        <time>2021-08-08T06:27:32Z</time>
      </trkpt>
      <trkpt lat="45.20143" lon="5.72461">
        <ele>522.973</ele>
        <time>2021-08-08T06:27:38Z</time>
      </trkpt>
      <trkpt lat="45.20139" lon="5.72466">
        <ele>521.82</ele>
        <time>2021-08-08T06:27:44Z</time>
      </trkpt>
      <trkpt lat="45.20137" lon="5.7247">
        <ele>519.267</ele>
        <time>2021-08-08T06:27:50Z</time>
      </trkpt>
      <trkpt lat="45.20134" lon="5.72483">
        <ele>517.086</ele>
        <time>2021-08-08T06:27:57Z</time>
      </trkpt>
      <trkpt lat="45.20132" lon="5.72491">
        <ele>514.665</ele>
        <time>2021-08-08T06:28:02Z</time>
      </trkpt>
      <trkpt lat="45.20125" lon="5.725">
        <ele>512.643</ele>
        <time>2021-08-08T06:28:08Z</time>
      </trkpt>
      <trkpt lat="45.20117" lon="5.7251">
        <ele>512.082</ele>
        <time>2021-08-08T06:28:16Z</time>
      </trkpt>
      <trkpt lat="45.20113" lon="5.72521">
        <ele>509.678</ele>
        <time>2021-08-08T06:28:21Z</time>
      </trkpt>
      <trkpt lat="45.20113" lon="5.72527">
        <ele>508.433</ele>
        <time>2021-08-08T06:28:26Z</time>
      </trkpt>
      <trkpt lat="45.20109" lon="5.72526">
        <ele>507.109</ele>
        <time>2021-08-08T06:28:31Z</time>
      </trkpt>
      <trkpt lat="45.20107" lon="5.72525">
        <ele>505.837</ele>
        <time>2021-08-08T06:28:33Z</time>
      </trkpt>
      <trkpt lat="45.20106" lon="5.72524">
        <ele>505.312</ele>
        <time>2021-08-08T06:28:34Z</time>
      </trkpt>
      <trkpt lat="45.20102" lon="5.72526">
        <ele>504.695</ele>
        <time>2021-08-08T06:28:37Z</time>
      </trkpt>
      <trkpt lat="45.20093" lon="5.72536">
        <ele>503.905</ele>
        <time>2021-08-08T06:28:44Z</time>
      </trkpt>
      <trkpt lat="45.20094" lon="5.72539">
        <ele>503.241</ele>
        <time>2021-08-08T06:28:46Z</time>
      </trkpt>
      <trkpt lat="45.20096" lon="5.72544">
        <ele>501.429</ele>
        <time>2021-08-08T06:28:50Z</time>
      </trkpt>
      <trkpt lat="45.2009" lon="5.72544">
        <ele>499.154</ele>
        <time>2021-08-08T06:28:54Z</time>
      </trkpt>
      <trkpt lat="45.2008" lon="5.72541">
        <ele>497.698</ele>
        <time>2021-08-08T06:28:59Z</time>
      </trkpt>
      <trkpt lat="45.20076" lon="5.72535">
        <ele>497.637</ele>
        <time>2021-08-08T06:29:01Z</time>
      </trkpt>
      <trkpt lat="45.20069" lon="5.72521">
        <ele>497.649</ele>
        <time>2021-08-08T06:29:05Z</time>
      </trkpt>
      <trkpt lat="45.20075" lon="5.72491">
        <ele>496.474</ele>
        <time>2021-08-08T06:29:13Z</time>
      </trkpt>
      <trkpt lat="45.20077" lon="5.72477">
        <ele>495.674</ele>
        <time>2021-08-08T06:29:17Z</time>
      </trkpt>
      <trkpt lat="45.20074" lon="5.72455">
        <ele>494.875</ele>
        <time>2021-08-08T06:29:24Z</time>
      </trkpt>
      <trkpt lat="45.20071" lon="5.72444">
        <ele>493.537</ele>
        <time>2021-08-08T06:29:27Z</time>
      </trkpt>
      <trkpt lat="45.20066" lon="5.72437">
        <ele>492.203</ele>
        <time>2021-08-08T06:29:30Z</time>
      </trkpt>
      <trkpt lat="45.20062" lon="5.72432">
        <ele>491.59</ele>
        <time>2021-08-08T06:29:32Z</time>
      </trkpt>
      <trkpt lat="45.20052" lon="5.72428">
        <ele>490.032</ele>
        <time>2021-08-08T06:29:37Z</time>
      </trkpt>
      <trkpt lat="45.20031" lon="5.72426">
        <ele>487.421</ele>
        <time>2021-08-08T06:29:45Z</time>
      </trkpt>
      <trkpt lat="45.20013" lon="5.72424">
        <ele>485.827</ele>
        <time>2021-08-08T06:29:52Z</time>
      </trkpt>
      <trkpt lat="45.19996" lon="5.72423">
        <ele>485.22</ele>
        <time>2021-08-08T06:29:58Z</time>
      </trkpt>
      <trkpt lat="45.19971" lon="5.72423">
        <ele>482.217</ele>
        <time>2021-08-08T06:30:06Z</time>
      </trkpt>
      <trkpt lat="45.19965" lon="5.72424">
        <ele>480.951</ele>
        <time>2021-08-08T06:30:08Z</time>
      </trkpt>
      <trkpt lat="45.19955" lon="5.72424">
        <ele>480.09</ele>
        <time>2021-08-08T06:30:12Z</time>
      </trkpt>
      <trkpt lat="45.19932" lon="5.72428">
        <ele>478.987</ele>
        <time>2021-08-08T06:30:20Z</time>
      </trkpt>
      <trkpt lat="45.19916" lon="5.72434">
        <ele>479.806</ele>
        <time>2021-08-08T06:30:26Z</time>
      </trkpt>
      <trkpt lat="45.1991" lon="5.72435">
        <ele>480.639</ele>
        <time>2021-08-08T06:30:28Z</time>
      </trkpt>
      <trkpt lat="45.19895" lon="5.72442">
        <ele>482.026</ele>
        <time>2021-08-08T06:30:35Z</time>
      </trkpt>
      <trkpt lat="45.19893" lon="5.72445">
        <ele>482.977</ele>
        <time>2021-08-08T06:30:37Z</time>
      </trkpt>
      <trkpt lat="45.19891" lon="5.72465">
        <ele>483.47</ele>
        <time>2021-08-08T06:30:43Z</time>
      </trkpt>
      <trkpt lat="45.19886" lon="5.72482">
        <ele>484.17</ele>
        <time>2021-08-08T06:30:49Z</time>
      </trkpt>
      <trkpt lat="45.19872" lon="5.72498">
        <ele>483.894</ele>
        <time>2021-08-08T06:30:55Z</time>
      </trkpt>
      <trkpt lat="45.19862" lon="5.72512">
        <ele>483.022</ele>
        <time>2021-08-08T06:31:01Z</time>
      </trkpt>
      <trkpt lat="45.19863" lon="5.72531">
        <ele>481.616</ele>
        <time>2021-08-08T06:31:07Z</time>
      </trkpt>
      <trkpt lat="45.19865" lon="5.72548">
        <ele>480.374</ele>
        <time>2021-08-08T06:31:12Z</time>
      </trkpt>
      <trkpt lat="45.19865" lon="5.72551">
        <ele>479.79</ele>
        <time>2021-08-08T06:31:13Z</time>
      </trkpt>
      <trkpt lat="45.19858" lon="5.72546">
        <ele>478.594</ele>
        <time>2021-08-08T06:31:18Z</time>
      </trkpt>
      <trkpt lat="45.19857" lon="5.72539">
        <ele>478.287</ele>
        <time>2021-08-08T06:31:20Z</time>
      </trkpt>
      <trkpt lat="45.19854" lon="5.72529">
        <ele>476.757</ele>
        <time>2021-08-08T06:31:24Z</time>
      </trkpt>
      <trkpt lat="45.19846" lon="5.72502">
        <ele>475.142</ele>
        <time>2021-08-08T06:31:32Z</time>
      </trkpt>
      <trkpt lat="45.1984" lon="5.72484">
        <ele>473.625</ele>
        <time>2021-08-08T06:31:37Z</time>
      </trkpt>
      <trkpt lat="45.19842" lon="5.72458">
        <ele>471.267</ele>
        <time>2021-08-08T06:31:44Z</time>
      </trkpt>
      <trkpt lat="45.1984" lon="5.72442">
        <ele>469.767</ele>
        <time>2021-08-08T06:31:49Z</time>
      </trkpt>
      <trkpt lat="45.19835" lon="5.72444">
        <ele>469.687</ele>
        <time>2021-08-08T06:31:52Z</time>
      </trkpt>
      <trkpt lat="45.19833" lon="5.72464">
        <ele>468.781</ele>
        <time>2021-08-08T06:31:58Z</time>
      </trkpt>
      <trkpt lat="45.1983" lon="5.72488">
        <ele>465.852</ele>
        <time>2021-08-08T06:32:05Z</time>
      </trkpt>
      <trkpt lat="45.1983" lon="5.72495">
        <ele>465.106</ele>
        <time>2021-08-08T06:32:07Z</time>
      </trkpt>
      <trkpt lat="45.19827" lon="5.72514">
        <ele>463.932</ele>
        <time>2021-08-08T06:32:12Z</time>
      </trkpt>
      <trkpt lat="45.19824" lon="5.7254">
        <ele>462.443</ele>
        <time>2021-08-08T06:32:19Z</time>
      </trkpt>
      <trkpt lat="45.19825" lon="5.72562">
        <ele>460.476</ele>
        <time>2021-08-08T06:32:25Z</time>
      </trkpt>
      <trkpt lat="45.19827" lon="5.72587">
        <ele>459.102</ele>
        <time>2021-08-08T06:32:32Z</time>
      </trkpt>
      <trkpt lat="45.19832" lon="5.72608">
        <ele>457.036</ele>
        <time>2021-08-08T06:32:38Z</time>
      </trkpt>
      <trkpt lat="45.19837" lon="5.72631">
        <ele>455.542</ele>
        <time>2021-08-08T06:32:44Z</time>
      </trkpt>
      <trkpt lat="45.19845" lon="5.72649">
        <ele>453.749</ele>
        <time>2021-08-08T06:32:50Z</time>
      </trkpt>
      <trkpt lat="45.19854" lon="5.72666">
        <ele>452.682</ele>
        <time>2021-08-08T06:32:56Z</time>
      </trkpt>
      <trkpt lat="45.19862" lon="5.72684">
        <ele>452.233</ele>
        <time>2021-08-08T06:33:02Z</time>
      </trkpt>
      <trkpt lat="45.19863" lon="5.72687">
        <ele>452.219</ele>
        <time>2021-08-08T06:33:03Z</time>
      </trkpt>
      <trkpt lat="45.19856" lon="5.72682">
        <ele>450.495</ele>
        <time>2021-08-08T06:33:08Z</time>
      </trkpt>
      <trkpt lat="45.19841" lon="5.72663">
        <ele>448.312</ele>
        <time>2021-08-08T06:33:15Z</time>
      </trkpt>
      <trkpt lat="45.19824" lon="5.72643">
        <ele>445.586</ele>
        <time>2021-08-08T06:33:23Z</time>
      </trkpt>
      <trkpt lat="45.19809" lon="5.72628">
        <ele>444.774</ele>
        <time>2021-08-08T06:33:30Z</time>
      </trkpt>
      <trkpt lat="45.19798" lon="5.72614">
        <ele>443.483</ele>
        <time>2021-08-08T06:33:35Z</time>
      </trkpt>
      <trkpt lat="45.19795" lon="5.72607">
        <ele>441.573</ele>
        <time>2021-08-08T06:33:37Z</time>
      </trkpt>
      <trkpt lat="45.1979" lon="5.72583">
        <ele>439.936</ele>
        <time>2021-08-08T06:33:44Z</time>
      </trkpt>
      <trkpt lat="45.1979" lon="5.72563">
        <ele>438.197</ele>
        <time>2021-08-08T06:33:50Z</time>
      </trkpt>
      <trkpt lat="45.1979" lon="5.72541">
        <ele>436.536</ele>
        <time>2021-08-08T06:33:56Z</time>
      </trkpt>
      <trkpt lat="45.19791" lon="5.72537">
        <ele>436.317</ele>
        <time>2021-08-08T06:33:57Z</time>
      </trkpt>
      <trkpt lat="45.19784" lon="5.7253">
        <ele>435.084</ele>
        <time>2021-08-08T06:34:03Z</time>
      </trkpt>
      <trkpt lat="45.19781" lon="5.72548">
        <ele>433.744</ele>
        <time>2021-08-08T06:34:08Z</time>
      </trkpt>
      <trkpt lat="45.19781" lon="5.72555">
        <ele>432.936</ele>
        <time>2021-08-08T06:34:10Z</time>
      </trkpt>
      <trkpt lat="45.19781" lon="5.72559">
        <ele>432.629</ele>
        <time>2021-08-08T06:34:11Z</time>
      </trkpt>
      <trkpt lat="45.1978" lon="5.72565">
        <ele>431.659</ele>
        <time>2021-08-08T06:34:13Z</time>
      </trkpt>
      <trkpt lat="45.19774" lon="5.72581">
        <ele>429.553</ele>
        <time>2021-08-08T06:34:19Z</time>
      </trkpt>
      <trkpt lat="45.19773" lon="5.7258">
        <ele>429.415</ele>
        <time>2021-08-08T06:34:20Z</time>
      </trkpt>
      <trkpt lat="45.19766" lon="5.72565">
        <ele>428.364</ele>
        <time>2021-08-08T06:34:25Z</time>
      </trkpt>
      <trkpt lat="45.19762" lon="5.72543">
        <ele>427.588</ele>
        <time>2021-08-08T06:34:31Z</time>
      </trkpt>
      <trkpt lat="45.19767" lon="5.72523">
        <ele>426.198</ele>
        <time>2021-08-08T06:34:37Z</time>
      </trkpt>
      <trkpt lat="45.19773" lon="5.7251">
        <ele>424.579</ele>
        <time>2021-08-08T06:34:41Z</time>
      </trkpt>
      <trkpt lat="45.19771" lon="5.72507">
        <ele>424.105</ele>
        <time>2021-08-08T06:34:44Z</time>
      </trkpt>
      <trkpt lat="45.19759" lon="5.72519">
        <ele>422.242</ele>
        <time>2021-08-08T06:34:51Z</time>
      </trkpt>
      <trkpt lat="45.19748" lon="5.72535">
        <ele>421.349</ele>
        <time>2021-08-08T06:34:57Z</time>
      </trkpt>
      <trkpt lat="45.19743" lon="5.72553">
        <ele>421.488</ele>
        <time>2021-08-08T06:35:03Z</time>
      </trkpt>
      <trkpt lat="45.19742" lon="5.72568">
        <ele>421.928</ele>
        <time>2021-08-08T06:35:07Z</time>
      </trkpt>
      <trkpt lat="45.19743" lon="5.72595">
        <ele>422.271</ele>
        <time>2021-08-08T06:35:14Z</time>
      </trkpt>
      <trkpt lat="45.19743" lon="5.72612">
        <ele>422.34</ele>
        <time>2021-08-08T06:35:18Z</time>
      </trkpt>
      <trkpt lat="45.19744" lon="5.72628">
        <ele>421.812</ele>
        <time>2021-08-08T06:35:23Z</time>
      </trkpt>
      <trkpt lat="45.19752" lon="5.72633">
        <ele>422.465</ele>
        <time>2021-08-08T06:35:27Z</time>
      </trkpt>
      <trkpt lat="45.19754" lon="5.72635">
        <ele>421.692</ele>
        <time>2021-08-08T06:35:28Z</time>
      </trkpt>
      <trkpt lat="45.19772" lon="5.72658">
        <ele>421.461</ele>
        <time>2021-08-08T06:35:36Z</time>
      </trkpt>
      <trkpt lat="45.19785" lon="5.72679">
        <ele>421.972</ele>
        <time>2021-08-08T06:35:43Z</time>
      </trkpt>
      <trkpt lat="45.19801" lon="5.72694">
        <ele>422.1</ele>
        <time>2021-08-08T06:35:50Z</time>
      </trkpt>
      <trkpt lat="45.19812" lon="5.72706">
        <ele>422.967</ele>
        <time>2021-08-08T06:35:56Z</time>
      </trkpt>
      <trkpt lat="45.19824" lon="5.72719">
        <ele>423.04</ele>
        <time>2021-08-08T06:36:01Z</time>
      </trkpt>
      <trkpt lat="45.19837" lon="5.72737">
        <ele>423.381</ele>
        <time>2021-08-08T06:36:07Z</time>
      </trkpt>
      <trkpt lat="45.19846" lon="5.7275">
        <ele>423.36</ele>
        <time>2021-08-08T06:36:12Z</time>
      </trkpt>
      <trkpt lat="45.19852" lon="5.72747">
        <ele>421.088</ele>
        <time>2021-08-08T06:36:20Z</time>
      </trkpt>
      <trkpt lat="45.19852" lon="5.72743">
        <ele>419.916</ele>
        <time>2021-08-08T06:36:23Z</time>
      </trkpt>
      <trkpt lat="45.19855" lon="5.72753">
        <ele>418.506</ele>
        <time>2021-08-08T06:36:28Z</time>
      </trkpt>
      <trkpt lat="45.19856" lon="5.72767">
        <ele>417.135</ele>
        <time>2021-08-08T06:36:35Z</time>
      </trkpt>
      <trkpt lat="45.19855" lon="5.72765">
        <ele>416.174</ele>
        <time>2021-08-08T06:36:37Z</time>
      </trkpt>
      <trkpt lat="45.19856" lon="5.72759">
        <ele>413.625</ele>
        <time>2021-08-08T06:36:43Z</time>
      </trkpt>
      <trkpt lat="45.19857" lon="5.72764">
        <ele>412.066</ele>
        <time>2021-08-08T06:36:48Z</time>
      </trkpt>
      <trkpt lat="45.19864" lon="5.72766">
        <ele>410.714</ele>
        <time>2021-08-08T06:36:55Z</time>
      </trkpt>
      <trkpt lat="45.1987" lon="5.72769">
        <ele>407.415</ele>
        <time>2021-08-08T06:37:02Z</time>
      </trkpt>
      <trkpt lat="45.19872" lon="5.72769">
        <ele>404.337</ele>
        <time>2021-08-08T06:37:04Z</time>
      </trkpt>
      <trkpt lat="45.19876" lon="5.72771">
        <ele>401.235</ele>
        <time>2021-08-08T06:37:08Z</time>
      </trkpt>
      <trkpt lat="45.19858" lon="5.72778">
        <ele>398.868</ele>
        <time>2021-08-08T06:37:14Z</time>
      </trkpt>
      <trkpt lat="45.19852" lon="5.72769">
        <ele>397.549</ele>
        <time>2021-08-08T06:37:20Z</time>
      </trkpt>
      <trkpt lat="45.1985" lon="5.72767">
        <ele>394.534</ele>
        <time>2021-08-08T06:37:23Z</time>
      </trkpt>
      <trkpt lat="45.19853" lon="5.72778">
        <ele>393.048</ele>
        <time>2021-08-08T06:37:29Z</time>
      </trkpt>
      <trkpt lat="45.19843" lon="5.7277">
        <ele>391.672</ele>
        <time>2021-08-08T06:37:33Z</time>
      </trkpt>
      <trkpt lat="45.19823" lon="5.72755">
        <ele>389.356</ele>
        <time>2021-08-08T06:37:41Z</time>
      </trkpt>
      <trkpt lat="45.1981" lon="5.72741">
        <ele>387.884</ele>
        <time>2021-08-08T06:37:47Z</time>
      </trkpt>
      <trkpt lat="45.19797" lon="5.7273">
        <ele>386.214</ele>
        <time>2021-08-08T06:37:53Z</time>
      </trkpt>
      <trkpt lat="45.19794" lon="5.72729">
        <ele>385.718</ele>
        <time>2021-08-08T06:37:54Z</time>
      </trkpt>
      <trkpt lat="45.19797" lon="5.72738">
        <ele>385.301</ele>
        <time>2021-08-08T06:37:59Z</time>
      </trkpt>
      <trkpt lat="45.1981" lon="5.72755">
        <ele>382.708</ele>
        <time>2021-08-08T06:38:05Z</time>
      </trkpt>
      <trkpt lat="45.1982" lon="5.72773">
        <ele>379.943</ele>
        <time>2021-08-08T06:38:12Z</time>
      </trkpt>
      <trkpt lat="45.19833" lon="5.72784">
        <ele>378.492</ele>
        <time>2021-08-08T06:38:18Z</time>
      </trkpt>
      <trkpt lat="45.19844" lon="5.72797">
        <ele>377.046</ele>
        <time>2021-08-08T06:38:24Z</time>
      </trkpt>
      <trkpt lat="45.19844" lon="5.72802">
        <ele>375.865</ele>
        <time>2021-08-08T06:38:26Z</time>
      </trkpt>
      <trkpt lat="45.19827" lon="5.72792">
        <ele>373.198</ele>
        <time>2021-08-08T06:38:34Z</time>
      </trkpt>
      <trkpt lat="45.19811" lon="5.72786">
        <ele>371.209</ele>
        <time>2021-08-08T06:38:41Z</time>
      </trkpt>
      <trkpt lat="45.19799" lon="5.7278">
        <ele>369.609</ele>
        <time>2021-08-08T06:38:48Z</time>
      </trkpt>
      <trkpt lat="45.19813" lon="5.72794">
        <ele>368.208</ele>
        <time>2021-08-08T06:38:54Z</time>
      </trkpt>
      <trkpt lat="45.19822" lon="5.72805">
        <ele>367.134</ele>
        <time>2021-08-08T06:38:59Z</time>
      </trkpt>
      <trkpt lat="45.19824" lon="5.72807">
        <ele>366.326</ele>
        <time>2021-08-08T06:39:00Z</time>
      </trkpt>
      <trkpt lat="45.1984" lon="5.72821">
        <ele>364.834</ele>
        <time>2021-08-08T06:39:08Z</time>
      </trkpt>
      <trkpt lat="45.19846" lon="5.7283">
        <ele>362.819</ele>
        <time>2021-08-08T06:39:13Z</time>
      </trkpt>
      <trkpt lat="45.19832" lon="5.72822">
        <ele>360.693</ele>
        <time>2021-08-08T06:39:19Z</time>
      </trkpt>
      <trkpt lat="45.19818" lon="5.72813">
        <ele>358.738</ele>
        <time>2021-08-08T06:39:26Z</time>
      </trkpt>
      <trkpt lat="45.19818" lon="5.72814">
        <ele>358.229</ele>
        <time>2021-08-08T06:39:27Z</time>
      </trkpt>
      <trkpt lat="45.19831" lon="5.72827">
        <ele>357.325</ele>
        <time>2021-08-08T06:39:33Z</time>
      </trkpt>
      <trkpt lat="45.19838" lon="5.72838">
        <ele>356.213</ele>
        <time>2021-08-08T06:39:37Z</time>
      </trkpt>
      <trkpt lat="45.19823" lon="5.72832">
        <ele>353.996</ele>
        <time>2021-08-08T06:39:43Z</time>
      </trkpt>
      <trkpt lat="45.19821" lon="5.72831">
        <ele>353.771</ele>
        <time>2021-08-08T06:39:44Z</time>
      </trkpt>
      <trkpt lat="45.19806" lon="5.72818">
        <ele>352.078</ele>
        <time>2021-08-08T06:39:51Z</time>
      </trkpt>
      <trkpt lat="45.19794" lon="5.72809">
        <ele>351.185</ele>
        <time>2021-08-08T06:39:57Z</time>
      </trkpt>
      <trkpt lat="45.19794" lon="5.72811">
        <ele>351.386</ele>
        <time>2021-08-08T06:39:58Z</time>
      </trkpt>
      <trkpt lat="45.19803" lon="5.72827">
        <ele>349.711</ele>
        <time>2021-08-08T06:40:04Z</time>
      </trkpt>
      <trkpt lat="45.1982" lon="5.7284">
        <ele>348.375</ele>
        <time>2021-08-08T06:40:10Z</time>
      </trkpt>
      <trkpt lat="45.19824" lon="5.72844">
        <ele>347.405</ele>
        <time>2021-08-08T06:40:12Z</time>
      </trkpt>
      <trkpt lat="45.19825" lon="5.72847">
        <ele>347.158</ele>
        <time>2021-08-08T06:40:14Z</time>
      </trkpt>
      <trkpt lat="45.19808" lon="5.72836">
        <ele>344.62</ele>
        <time>2021-08-08T06:40:22Z</time>
      </trkpt>
      <trkpt lat="45.19806" lon="5.72834">
        <ele>344.493</ele>
        <time>2021-08-08T06:40:23Z</time>
      </trkpt>
      <trkpt lat="45.1979" lon="5.72825">
        <ele>343.108</ele>
        <time>2021-08-08T06:40:29Z</time>
      </trkpt>
      <trkpt lat="45.19783" lon="5.72817">
        <ele>341.364</ele>
        <time>2021-08-08T06:40:33Z</time>
      </trkpt>
      <trkpt lat="45.19772" lon="5.7281">
        <ele>339.47</ele>
        <time>2021-08-08T06:40:38Z</time>
      </trkpt>
      <trkpt lat="45.19762" lon="5.72803">
        <ele>336.982</ele>
        <time>2021-08-08T06:40:44Z</time>
      </trkpt>
      <trkpt lat="45.19774" lon="5.72822">
        <ele>335.222</ele>
        <time>2021-08-08T06:40:51Z</time>
      </trkpt>
      <trkpt lat="45.19784" lon="5.7284">
        <ele>333.168</ele>
        <time>2021-08-08T06:40:58Z</time>
      </trkpt>
      <trkpt lat="45.19796" lon="5.72859">
        <ele>330.866</ele>
        <time>2021-08-08T06:41:05Z</time>
      </trkpt>
      <trkpt lat="45.19806" lon="5.72872">
        <ele>328.783</ele>
        <time>2021-08-08T06:41:11Z</time>
      </trkpt>
      <trkpt lat="45.19808" lon="5.72876">
        <ele>328.505</ele>
        <time>2021-08-08T06:41:12Z</time>
      </trkpt>
      <trkpt lat="45.19808" lon="5.72882">
        <ele>326.915</ele>
        <time>2021-08-08T06:41:16Z</time>
      </trkpt>
      <trkpt lat="45.19793" lon="5.7287">
        <ele>325.076</ele>
        <time>2021-08-08T06:41:23Z</time>
      </trkpt>
      <trkpt lat="45.19777" lon="5.72855">
        <ele>322.432</ele>
        <time>2021-08-08T06:41:30Z</time>
      </trkpt>
      <trkpt lat="45.19764" lon="5.72843">
        <ele>320.657</ele>
        <time>2021-08-08T06:41:36Z</time>
      </trkpt>
      <trkpt lat="45.19762" lon="5.72841">
        <ele>320.65</ele>
        <time>2021-08-08T06:41:37Z</time>
      </trkpt>
      <trkpt lat="45.19755" lon="5.72834">
        <ele>319.146</ele>
        <time>2021-08-08T06:41:41Z</time>
      </trkpt>
      <trkpt lat="45.19752" lon="5.72835">
        <ele>318.075</ele>
        <time>2021-08-08T06:41:43Z</time>
      </trkpt>
      <trkpt lat="45.19755" lon="5.72852">
        <ele>316.199</ele>
        <time>2021-08-08T06:41:49Z</time>
      </trkpt>
      <trkpt lat="45.19765" lon="5.72864">
        <ele>314.759</ele>
        <time>2021-08-08T06:41:54Z</time>
      </trkpt>
      <trkpt lat="45.19774" lon="5.72881">
        <ele>313.145</ele>
        <time>2021-08-08T06:42:01Z</time>
      </trkpt>
      <trkpt lat="45.19788" lon="5.72902">
        <ele>310.846</ele>
        <time>2021-08-08T06:42:08Z</time>
      </trkpt>
      <trkpt lat="45.198" lon="5.72919">
        <ele>309.51</ele>
        <time>2021-08-08T06:42:15Z</time>
      </trkpt>
      <trkpt lat="45.19792" lon="5.72922">
        <ele>307.666</ele>
        <time>2021-08-08T06:42:21Z</time>
      </trkpt>
      <trkpt lat="45.19778" lon="5.72913">
        <ele>305.779</ele>
        <time>2021-08-08T06:42:26Z</time>
      </trkpt>
      <trkpt lat="45.19758" lon="5.72897">
        <ele>303.004</ele>
        <time>2021-08-08T06:42:34Z</time>
      </trkpt>
      <trkpt lat="45.19753" lon="5.72893">
        <ele>301.707</ele>
        <time>2021-08-08T06:42:36Z</time>
      </trkpt>
      <trkpt lat="45.1975" lon="5.72891">
        <ele>301.271</ele>
        <time>2021-08-08T06:42:37Z</time>
      </trkpt>
      <trkpt lat="45.19731" lon="5.72879">
        <ele>298.786</ele>
        <time>2021-08-08T06:42:45Z</time>
      </trkpt>
      <trkpt lat="45.19713" lon="5.72867">
        <ele>296.03</ele>
        <time>2021-08-08T06:42:52Z</time>
      </trkpt>
      <trkpt lat="45.19698" lon="5.72851">
        <ele>294.45</ele>
        <time>2021-08-08T06:42:58Z</time>
      </trkpt>
      <trkpt lat="45.19695" lon="5.72851">
        <ele>293.314</ele>
        <time>2021-08-08T06:43:01Z</time>
      </trkpt>
      <trkpt lat="45.197" lon="5.72867">
        <ele>291.74</ele>
        <time>2021-08-08T06:43:07Z</time>
      </trkpt>
      <trkpt lat="45.19702" lon="5.72873">
        <ele>291.406</ele>
        <time>2021-08-08T06:43:09Z</time>
      </trkpt>
      <trkpt lat="45.19715" lon="5.72892">
        <ele>289.923</ele>
        <time>2021-08-08T06:43:16Z</time>
      </trkpt>
      <trkpt lat="45.19725" lon="5.72909">
        <ele>288.656</ele>
        <time>2021-08-08T06:43:21Z</time>
      </trkpt>
      <trkpt lat="45.19734" lon="5.72929">
        <ele>286.904</ele>
        <time>2021-08-08T06:43:27Z</time>
      </trkpt>
      <trkpt lat="45.19743" lon="5.72946">
        <ele>285.677</ele>
        <time>2021-08-08T06:43:33Z</time>
      </trkpt>
      <trkpt lat="45.19752" lon="5.72958">
        <ele>284.475</ele>
        <time>2021-08-08T06:43:36Z</time>
      </trkpt>
      <trkpt lat="45.19756" lon="5.72963">
        <ele>284.292</ele>
        <time>2021-08-08T06:43:38Z</time>
      </trkpt>
      <trkpt lat="45.19774" lon="5.72982">
        <ele>281.322</ele>
        <time>2021-08-08T06:43:46Z</time>
      </trkpt>
      <trkpt lat="45.19784" lon="5.72997">
        <ele>279.959</ele>
        <time>2021-08-08T06:43:51Z</time>
      </trkpt>
      <trkpt lat="45.19799" lon="5.73009">
        <ele>277.282</ele>
        <time>2021-08-08T06:43:57Z</time>
      </trkpt>
      <trkpt lat="45.19802" lon="5.73011">
        <ele>276.995</ele>
        <time>2021-08-08T06:43:58Z</time>
      </trkpt>
      <trkpt lat="45.1981" lon="5.73017">
        <ele>275.621</ele>
        <time>2021-08-08T06:44:01Z</time>
      </trkpt>
      <trkpt lat="45.1981" lon="5.73022">
        <ele>274.867</ele>
        <time>2021-08-08T06:44:03Z</time>
      </trkpt>
      <trkpt lat="45.19799" lon="5.73021">
        <ele>273.409</ele>
        <time>2021-08-08T06:44:07Z</time>
      </trkpt>
      <trkpt lat="45.19781" lon="5.73013">
        <ele>271.571</ele>
        <time>2021-08-08T06:44:12Z</time>
      </trkpt>
      <trkpt lat="45.19769" lon="5.73013">
        <ele>270.061</ele>
        <time>2021-08-08T06:44:16Z</time>
      </trkpt>
      <trkpt lat="45.19771" lon="5.7302">
        <ele>269.983</ele>
        <time>2021-08-08T06:44:21Z</time>
      </trkpt>
      <trkpt lat="45.19779" lon="5.73027">
        <ele>268.163</ele>
        <time>2021-08-08T06:44:24Z</time>
      </trkpt>
      <trkpt lat="45.19787" lon="5.73033">
        <ele>266.748</ele>
        <time>2021-08-08T06:44:27Z</time>
      </trkpt>
      <trkpt lat="45.19801" lon="5.73044">
        <ele>264.613</ele>
        <time>2021-08-08T06:44:34Z</time>
      </trkpt>
      <trkpt lat="45.1979" lon="5.73042">
        <ele>263.202</ele>
        <time>2021-08-08T06:44:38Z</time>
      </trkpt>
      <trkpt lat="45.1977" lon="5.73036">
        <ele>259.549</ele>
        <time>2021-08-08T06:44:45Z</time>
      </trkpt>
      <trkpt lat="45.19762" lon="5.73031">
        <ele>258.465</ele>
        <time>2021-08-08T06:44:48Z</time>
      </trkpt>
      <trkpt lat="45.19759" lon="5.73039">
        <ele>257.278</ele>
        <time>2021-08-08T06:44:53Z</time>
      </trkpt>
      <trkpt lat="45.19761" lon="5.73039">
        <ele>256.927</ele>
        <time>2021-08-08T06:44:54Z</time>
      </trkpt>
      <trkpt lat="45.19776" lon="5.73054">
        <ele>254.115</ele>
        <time>2021-08-08T06:45:02Z</time>
      </trkpt>
      <trkpt lat="45.19793" lon="5.73062">
        <ele>252.686</ele>
        <time>2021-08-08T06:45:08Z</time>
      </trkpt>
      <trkpt lat="45.19794" lon="5.73063">
        <ele>251.387</ele>
        <time>2021-08-08T06:45:11Z</time>
      </trkpt>
      <trkpt lat="45.19787" lon="5.73063">
        <ele>250.45</ele>
        <time>2021-08-08T06:45:14Z</time>
      </trkpt>
      <trkpt lat="45.19772" lon="5.73059">
        <ele>246.488</ele>
        <time>2021-08-08T06:45:20Z</time>
      </trkpt>
      <trkpt lat="45.19768" lon="5.73057">
        <ele>249.21</ele>
        <time>2021-08-08T06:45:21Z</time>
      </trkpt>
      <trkpt lat="45.19759" lon="5.73054">
        <ele>246.659</ele>
        <time>2021-08-08T06:45:24Z</time>
      </trkpt>
      <trkpt lat="45.19753" lon="5.73056">
        <ele>245.747</ele>
        <time>2021-08-08T06:45:28Z</time>
      </trkpt>
      <trkpt lat="45.19765" lon="5.73068">
        <ele>244.325</ele>
        <time>2021-08-08T06:45:35Z</time>
      </trkpt>
      <trkpt lat="45.19779" lon="5.73076">
        <ele>242.366</ele>
        <time>2021-08-08T06:45:42Z</time>
      </trkpt>
      <trkpt lat="45.19791" lon="5.73083">
        <ele>240.474</ele>
        <time>2021-08-08T06:45:47Z</time>
      </trkpt>
      <trkpt lat="45.19806" lon="5.73098">
        <ele>239.244</ele>
        <time>2021-08-08T06:45:54Z</time>
      </trkpt>
      <trkpt lat="45.19804" lon="5.73102">
        <ele>238.443</ele>
        <time>2021-08-08T06:45:56Z</time>
      </trkpt>
      <trkpt lat="45.19791" lon="5.73095">
        <ele>236.723</ele>
        <time>2021-08-08T06:46:03Z</time>
      </trkpt>
      <trkpt lat="45.19773" lon="5.73087">
        <ele>234.57</ele>
        <time>2021-08-08T06:46:10Z</time>
      </trkpt>
      <trkpt lat="45.19763" lon="5.73086">
        <ele>233.738</ele>
        <time>2021-08-08T06:46:14Z</time>
      </trkpt>
      <trkpt lat="45.1976" lon="5.73095">
        <ele>232.077</ele>
        <time>2021-08-08T06:46:20Z</time>
      </trkpt>
      <trkpt lat="45.19764" lon="5.73096">
        <ele>230.894</ele>
        <time>2021-08-08T06:46:24Z</time>
      </trkpt>
      <trkpt lat="45.19784" lon="5.73108">
        <ele>229.046</ele>
        <time>2021-08-08T06:46:30Z</time>
      </trkpt>
      <trkpt lat="45.19788" lon="5.73111">
        <ele>228.855</ele>
        <time>2021-08-08T06:46:31Z</time>
      </trkpt>
      <trkpt lat="45.19798" lon="5.7312">
        <ele>227.611</ele>
        <time>2021-08-08T06:46:35Z</time>
      </trkpt>
      <trkpt lat="45.19799" lon="5.7313">
        <ele>226.889</ele>
        <time>2021-08-08T06:46:39Z</time>
      </trkpt>
      <trkpt lat="45.19786" lon="5.73139">
        <ele>225.002</ele>
        <time>2021-08-08T06:46:44Z</time>
      </trkpt>
      <trkpt lat="45.19783" lon="5.73145">
        <ele>224.613</ele>
        <time>2021-08-08T06:46:46Z</time>
      </trkpt>
      <trkpt lat="45.19784" lon="5.73174">
        <ele>221.347</ele>
        <time>2021-08-08T06:46:54Z</time>
      </trkpt>
      <trkpt lat="45.19789" lon="5.73191">
        <ele>221.177</ele>
        <time>2021-08-08T06:46:59Z</time>
      </trkpt>
      <trkpt lat="45.19788" lon="5.73209">
        <ele>220.362</ele>
        <time>2021-08-08T06:47:04Z</time>
      </trkpt>
      <trkpt lat="45.19781" lon="5.73227">
        <ele>220.998</ele>
        <time>2021-08-08T06:47:09Z</time>
      </trkpt>
      <trkpt lat="45.19773" lon="5.73252">
        <ele>220.924</ele>
        <time>2021-08-08T06:47:16Z</time>
      </trkpt>
      <trkpt lat="45.19772" lon="5.73255">
        <ele>221.22</ele>
        <time>2021-08-08T06:47:17Z</time>
      </trkpt>
      <trkpt lat="45.19764" lon="5.73271">
        <ele>221.699</ele>
        <time>2021-08-08T06:47:22Z</time>
      </trkpt>
      <trkpt lat="45.19762" lon="5.73275">
        <ele>221.893</ele>
        <time>2021-08-08T06:47:23Z</time>
      </trkpt>
      <trkpt lat="45.1975" lon="5.73307">
        <ele>222.589</ele>
        <time>2021-08-08T06:47:31Z</time>
      </trkpt>
      <trkpt lat="45.19743" lon="5.73328">
        <ele>222.151</ele>
        <time>2021-08-08T06:47:37Z</time>
      </trkpt>
      <trkpt lat="45.19735" lon="5.7335">
        <ele>222.103</ele>
        <time>2021-08-08T06:47:44Z</time>
      </trkpt>
      <trkpt lat="45.19728" lon="5.73376">
        <ele>221.167</ele>
        <time>2021-08-08T06:47:51Z</time>
      </trkpt>
      <trkpt lat="45.19718" lon="5.73394">
        <ele>220.821</ele>
        <time>2021-08-08T06:47:57Z</time>
      </trkpt>
      <trkpt lat="45.19699" lon="5.73412">
        <ele>219.315</ele>
        <time>2021-08-08T06:48:05Z</time>
      </trkpt>
      <trkpt lat="45.19687" lon="5.73417">
        <ele>218.65</ele>
        <time>2021-08-08T06:48:10Z</time>
      </trkpt>
      <trkpt lat="45.19671" lon="5.73432">
        <ele>218.876</ele>
        <time>2021-08-08T06:48:17Z</time>
      </trkpt>
      <trkpt lat="45.19656" lon="5.73442">
        <ele>218.658</ele>
        <time>2021-08-08T06:48:23Z</time>
      </trkpt>
      <trkpt lat="45.19638" lon="5.73447">
        <ele>218.88</ele>
        <time>2021-08-08T06:48:29Z</time>
      </trkpt>
      <trkpt lat="45.19626" lon="5.73442">
        <ele>218.951</ele>
        <time>2021-08-08T06:48:35Z</time>
      </trkpt>
      <trkpt lat="45.19609" lon="5.73467">
        <ele>218.957</ele>
        <time>2021-08-08T06:48:41Z</time>
      </trkpt>
      <trkpt lat="45.19596" lon="5.73484">
        <ele>219.081</ele>
        <time>2021-08-08T06:48:47Z</time>
      </trkpt>
      <trkpt lat="45.19592" lon="5.73486">
        <ele>219.427</ele>
        <time>2021-08-08T06:48:49Z</time>
      </trkpt>
      <trkpt lat="45.19594" lon="5.73501">
        <ele>219.164</ele>
        <time>2021-08-08T06:48:54Z</time>
      </trkpt>
      <trkpt lat="45.19595" lon="5.73506">
        <ele>218.759</ele>
        <time>2021-08-08T06:48:55Z</time>
      </trkpt>
      <trkpt lat="45.19616" lon="5.73532">
        <ele>219.118</ele>
        <time>2021-08-08T06:49:03Z</time>
      </trkpt>
      <trkpt lat="45.19623" lon="5.73543">
        <ele>219.062</ele>
        <time>2021-08-08T06:49:08Z</time>
      </trkpt>
      <trkpt lat="45.19633" lon="5.73558">
        <ele>219.301</ele>
        <time>2021-08-08T06:49:14Z</time>
      </trkpt>
      <trkpt lat="45.19647" lon="5.73573">
        <ele>218.897</ele>
        <time>2021-08-08T06:49:19Z</time>
      </trkpt>
      <trkpt lat="45.19663" lon="5.73587">
        <ele>219.26</ele>
        <time>2021-08-08T06:49:26Z</time>
      </trkpt>
      <trkpt lat="45.19674" lon="5.73606">
        <ele>219.655</ele>
        <time>2021-08-08T06:49:34Z</time>
      </trkpt>
      <trkpt lat="45.19685" lon="5.73618">
        <ele>219.518</ele>
        <time>2021-08-08T06:49:39Z</time>
      </trkpt>
      <trkpt lat="45.19703" lon="5.73635">
        <ele>219.865</ele>
        <time>2021-08-08T06:49:45Z</time>
      </trkpt>
      <trkpt lat="45.19712" lon="5.73655">
        <ele>219.676</ele>
        <time>2021-08-08T06:49:50Z</time>
      </trkpt>
      <trkpt lat="45.19703" lon="5.73675">
        <ele>220.35</ele>
        <time>2021-08-08T06:49:57Z</time>
      </trkpt>
      <trkpt lat="45.19685" lon="5.73682">
        <ele>219.901</ele>
        <time>2021-08-08T06:50:03Z</time>
      </trkpt>
      <trkpt lat="45.19677" lon="5.73688">
        <ele>220.445</ele>
        <time>2021-08-08T06:50:06Z</time>
      </trkpt>
      <trkpt lat="45.19651" lon="5.73684">
        <ele>220.012</ele>
        <time>2021-08-08T06:50:13Z</time>
      </trkpt>
      <trkpt lat="45.19637" lon="5.73711">
        <ele>220.454</ele>
        <time>2021-08-08T06:50:20Z</time>
      </trkpt>
      <trkpt lat="45.19637" lon="5.73738">
        <ele>220.295</ele>
        <time>2021-08-08T06:50:26Z</time>
      </trkpt>
      <trkpt lat="45.19645" lon="5.73766">
        <ele>220.403</ele>
        <time>2021-08-08T06:50:34Z</time>
      </trkpt>
      <trkpt lat="45.19652" lon="5.73778">
        <ele>220.633</ele>
        <time>2021-08-08T06:50:38Z</time>
      </trkpt>
      <trkpt lat="45.19654" lon="5.73804">
        <ele>220.329</ele>
        <time>2021-08-08T06:50:44Z</time>
      </trkpt>
      <trkpt lat="45.19658" lon="5.73821">
        <ele>220.245</ele>
        <time>2021-08-08T06:50:48Z</time>
      </trkpt>
      <trkpt lat="45.19663" lon="5.73847">
        <ele>220.401</ele>
        <time>2021-08-08T06:50:55Z</time>
      </trkpt>
      <trkpt lat="45.19666" lon="5.73867">
        <ele>220.178</ele>
        <time>2021-08-08T06:51:00Z</time>
      </trkpt>
      <trkpt lat="45.1967" lon="5.73891">
        <ele>220.261</ele>
        <time>2021-08-08T06:51:06Z</time>
      </trkpt>
      <trkpt lat="45.19675" lon="5.7392">
        <ele>220.29</ele>
        <time>2021-08-08T06:51:14Z</time>
      </trkpt>
      <trkpt lat="45.19677" lon="5.7393">
        <ele>220.054</ele>
        <time>2021-08-08T06:51:17Z</time>
      </trkpt>
      <trkpt lat="45.19685" lon="5.73953">
        <ele>220.39</ele>
        <time>2021-08-08T06:51:24Z</time>
      </trkpt>
      <trkpt lat="45.19686" lon="5.73975">
        <ele>220.562</ele>
        <time>2021-08-08T06:51:30Z</time>
      </trkpt>
      <trkpt lat="45.19689" lon="5.74003">
        <ele>220.433</ele>
        <time>2021-08-08T06:51:37Z</time>
      </trkpt>
      <trkpt lat="45.19668" lon="5.7401">
        <ele>220.308</ele>
        <time>2021-08-08T06:51:43Z</time>
      </trkpt>
      <trkpt lat="45.19647" lon="5.74009">
        <ele>220.018</ele>
        <time>2021-08-08T06:51:49Z</time>
      </trkpt>
      <trkpt lat="45.1963" lon="5.74002">
        <ele>219.937</ele>
        <time>2021-08-08T06:51:54Z</time>
      </trkpt>
      <trkpt lat="45.19619" lon="5.73994">
        <ele>220.139</ele>
        <time>2021-08-08T06:51:58Z</time>
      </trkpt>
      <trkpt lat="45.19611" lon="5.73978">
        <ele>220.31</ele>
        <time>2021-08-08T06:52:02Z</time>
      </trkpt>
      <trkpt lat="45.19615" lon="5.73959">
        <ele>220.25</ele>
        <time>2021-08-08T06:52:06Z</time>
      </trkpt>
      <trkpt lat="45.19629" lon="5.73951">
        <ele>220.547</ele>
        <time>2021-08-08T06:52:14Z</time>
      </trkpt>
      <trkpt lat="45.19636" lon="5.73942">
        <ele>220.038</ele>
        <time>2021-08-08T06:52:20Z</time>
      </trkpt>
      <trkpt lat="45.19637" lon="5.73941">
        <ele>220.038</ele>
        <time>2021-08-08T06:52:21Z</time>
      </trkpt>
      <trkpt lat="45.19632" lon="5.73932">
        <ele>220.186</ele>
        <time>2021-08-08T06:52:26Z</time>
      </trkpt>
      <trkpt lat="45.19631" lon="5.73922">
        <ele>222.992</ele>
        <time>2021-08-08T06:52:33Z</time>
      </trkpt>
      <trkpt lat="45.19636" lon="5.73941">
        <ele>224.719</ele>
        <time>2021-08-08T06:52:43Z</time>
      </trkpt>
      <trkpt lat="45.19635" lon="5.73953">
        <ele>226.07</ele>
        <time>2021-08-08T06:52:49Z</time>
      </trkpt>
      <trkpt lat="45.19637" lon="5.73971">
        <ele>227.948</ele>
        <time>2021-08-08T06:52:56Z</time>
      </trkpt>
      <trkpt lat="45.19649" lon="5.73969">
        <ele>227.976</ele>
        <time>2021-08-08T06:53:03Z</time>
      </trkpt>
      <trkpt lat="45.1965" lon="5.73969">
        <ele>228.345</ele>
        <time>2021-08-08T06:53:04Z</time>
      </trkpt>
    </trkseg>
  </trk>
</gpx>